[[{"header":{"parameterUnit":"m.s-1","parameterCategory":1,"la1":30.6,"la2":28.766,"lo1":-90.7593,"lo2":-88.6598,"dx":0.0162,"dy":0.0183,"nx":116,"ny":114,"refTime":"2023-01-14T06:00:00:Z","depth":0,"parameterNumber":2,"parameterNumberName":"U-component_of_WINDS"},"data":[0.0,0.0,0.0,0.0,0.0,0.0,0.0,0.0,0.0,0.0,0.0,0.0,0.0,0.0,0.0,0.0,0.0,0.0,0.0,0.0,0.0,0.0,0.0,0.0,0.0,0.0,0.0,0.0,0.0,0.0,0.0,0.0,0.0,0.0,0.0,0.0,0.0,0.0,0.0,0.0,0.0,0.0,0.0,0.0,0.0,0.0,0.0,0.0,0.0,0.0,0.0,0.0,0.0,0.0,0.0,0.0,0.0,0.0,0.0,0.0,0.0,0.0,0.0,0.0,0.0,0.0,0.0,0.0,0.0,0.0,0.0,0.0,0.0,0.0,0.0,0.0,0.0,0.0,0.0,0.0,0.0,0.0,0.0,0.0,0.0,0.0,0.0,0.0,0.0,0.0,0.0,0.0,0.0,0.0,0.0,0.0,0.0,0.0,0.0,0.0,0.0,0.0,0.0,0.0,0.0,0.0,0.0,0.0,0.0,0.0,0.0,0.0,0.0,0.0,0.0,0.0,0.0,0.0,0.0,0.0,0.0,0.0,0.0,0.0,0.0,0.0,0.0,0.0,0.0,0.0,0.0,0.0,0.0,0.0,0.0,0.0,0.0,0.0,0.0,0.0,0.0,0.0,0.0,0.0,0.0,0.0,0.0,0.0,0.0,0.0,0.0,0.0,0.0,0.0,0.0,0.0,0.0,0.0,0.0,0.0,0.0,0.0,0.0,0.0,0.0,0.0,0.0,0.0,0.0,0.0,0.0,0.0,0.0,0.0,0.0,0.0,0.0,0.0,0.0,0.0,0.0,0.0,0.0,0.0,0.0,0.0,0.0,0.0,0.0,0.0,0.0,0.0,0.0,0.0,0.0,0.0,0.0,0.0,0.0,0.0,0.0,0.0,0.0,0.0,0.0,0.0,0.0,0.0,0.0,0.0,0.0,0.0,0.0,0.0,0.0,0.0,0.0,0.0,0.0,0.0,0.0,0.0,0.0,0.0,0.0,0.0,0.0,0.0,0.0,0.0,0.0,0.0,0.0,0.0,0.0,0.0,0.0,0.0,0.0,0.0,0.0,0.0,0.0,0.0,0.0,0.0,0.0,0.0,0.0,0.0,0.0,0.0,0.0,0.0,0.0,0.0,0.0,0.0,0.0,0.0,0.0,0.0,0.0,0.0,0.0,0.0,0.0,0.0,0.0,0.0,0.0,0.0,0.0,0.0,0.0,0.0,0.0,0.0,0.0,0.0,0.0,0.0,0.0,0.0,0.0,0.0,0.0,0.0,0.0,0.0,0.0,0.0,0.0,0.0,0.0,0.0,0.0,0.0,0.0,0.0,0.0,0.0,0.0,0.0,0.0,0.0,0.0,0.0,0.0,0.0,0.0,0.0,0.0,0.0,0.0,0.0,0.0,0.0,0.0,0.0,0.0,0.0,0.0,0.0,0.0,0.0,0.0,0.0,0.0,0.0,0.0,0.0,0.0,0.0,0.0,0.0,0.0,0.0,0.0,0.0,0.0,0.0,0.0,0.0,0.0,0.0,0.0,0.0,0.0,0.0,0.0,0.0,0.0,0.0,0.0,0.0,0.0,0.0,0.0,0.0,0.0,0.0,0.0,0.0,0.0,0.0,0.0,0.0,0.0,0.0,0.0,0.0,0.0,0.0,0.0,0.0,0.0,0.0,0.0,0.0,0.0,0.0,0.0,0.0,0.0,0.0,0.0,0.0,0.0,0.0,0.0,0.0,0.0,0.0,0.0,0.0,0.0,0.0,0.0,0.0,0.0,0.0,0.0,0.0,0.0,0.0,0.0,0.0,0.0,0.0,0.0,0.0,0.0,0.0,0.0,0.0,0.0,0.0,0.0,0.0,0.0,0.0,0.0,0.0,0.0,0.0,0.0,0.0,0.0,0.0,0.0,0.0,0.0,0.0,0.0,0.0,0.0,0.0,0.0,0.0,0.0,0.0,0.0,0.0,0.0,0.0,0.0,0.0,0.0,0.0,0.0,0.0,0.0,0.0,0.0,0.0,0.0,0.0,0.0,0.0,0.0,0.0,0.0,0.0,0.0,0.0,0.0,0.0,0.0,0.0,0.0,0.0,0.0,0.0,0.0,0.0,0.0,0.0,0.0,0.0,0.0,0.0,0.0,0.0,0.0,0.0,0.0,0.0,0.0,0.0,0.0,0.0,0.0,0.0,0.0,0.0,0.0,0.0,0.0,0.0,0.0,0.0,0.0,0.0,0.0,0.0,0.0,0.0,0.0,0.0,0.0,0.0,0.0,0.0,0.0,0.0,0.0,0.0,0.0,0.0,0.0,0.0,0.0,0.0,0.0,0.0,0.0,0.0,0.0,0.0,0.0,0.0,0.0,0.0,0.0,0.0,0.0,0.0,0.0,0.0,0.0,0.0,0.0,0.0,0.0,0.0,0.0,0.0,0.0,0.0,0.0,0.0,0.0,0.0,0.0,0.0,0.0,0.0,0.0,0.0,0.0,0.0,0.0,0.0,0.0,0.0,0.0,0.0,0.0,0.0,0.0,0.0,0.0,0.0,0.0,0.0,0.0,0.0,0.0,0.0,0.0,0.0,0.0,0.0,0.0,0.0,0.0,0.0,0.0,0.0,0.0,0.0,0.0,0.0,0.0,0.0,0.0,0.0,0.0,0.0,0.0,0.0,0.0,0.0,0.0,0.0,0.0,0.0,0.0,0.0,0.0,0.0,0.0,0.0,0.0,0.0,0.0,0.0,0.0,0.0,0.0,0.0,0.0,0.0,0.0,0.0,0.0,0.0,0.0,0.0,0.0,0.0,0.0,0.0,0.0,0.0,0.0,0.0,0.0,0.0,0.0,0.0,0.0,0.0,0.0,0.0,0.0,0.0,0.0,0.0,0.0,0.0,0.0,0.0,0.0,0.0,0.0,0.0,0.0,0.0,0.0,0.0,0.0,0.0,0.0,0.0,0.0,0.0,0.0,0.0,0.0,0.0,0.0,0.0,0.0,0.0,0.0,0.0,0.0,0.0,0.0,0.0,0.0,0.0,0.0,0.0,0.0,0.0,0.0,0.0,0.0,0.0,0.0,0.0,0.0,0.0,0.0,0.0,0.0,0.0,0.0,0.0,0.0,0.0,0.0,0.0,0.0,0.0,0.0,0.0,0.0,0.0,0.0,0.0,0.0,0.0,0.0,0.0,0.0,0.0,0.0,0.0,0.0,0.0,0.0,0.0,0.0,0.0,0.0,0.0,0.0,0.0,0.0,0.0,0.0,0.0,0.0,0.0,0.0,0.0,0.0,0.0,0.0,0.0,0.0,0.0,0.0,0.0,0.0,0.0,0.0,0.0,0.0,0.0,0.0,0.0,0.0,0.0,0.0,0.0,0.0,0.0,0.0,0.0,0.0,0.0,0.0,0.0,0.0,0.0,0.0,0.0,0.0,0.0,0.0,0.0,0.0,0.0,0.0,0.0,0.0,0.0,0.0,0.0,0.0,0.0,0.0,0.0,0.0,0.0,0.0,0.0,0.0,0.0,0.0,0.0,0.0,0.0,0.0,0.0,0.0,0.0,0.0,0.0,0.0,0.0,0.0,0.0,0.0,0.0,0.0,0.0,0.0,0.0,0.0,0.0,0.0,0.0,0.0,0.0,0.0,0.0,0.0,0.0,0.0,0.0,0.0,0.0,0.0,0.0,0.0,0.0,0.0,0.0,0.0,0.0,0.0,0.0,0.0,0.0,0.0,0.0,0.0,0.0,0.0,0.0,0.0,0.0,0.0,0.0,0.0,0.0,0.0,0.0,0.0,0.0,0.0,0.0,0.0,0.0,0.0,0.0,0.0,0.0,0.0,0.0,0.0,0.0,0.0,0.0,0.0,0.0,0.0,0.0,0.0,0.0,0.0,0.0,0.0,0.0,0.0,0.0,0.0,0.0,0.0,0.0,0.0,0.0,0.0,0.0,0.0,0.0,0.0,0.0,0.0,0.0,0.0,0.0,0.0,0.0,0.0,0.0,0.0,0.0,0.0,0.0,0.0,0.0,0.0,0.0,0.0,0.0,0.0,0.0,0.0,0.0,0.0,0.0,0.0,0.0,0.0,0.0,0.0,0.0,0.0,0.0,0.0,0.0,0.0,0.0,0.0,0.0,0.0,0.0,0.0,0.0,0.0,0.0,0.0,0.0,0.0,0.0,0.0,0.0,0.0,0.0,0.0,0.0,0.0,0.0,0.0,0.0,0.0,0.0,0.0,0.0,0.0,0.0,0.0,0.0,0.0,0.0,0.0,0.0,0.0,0.0,0.0,0.0,0.0,0.0,0.0,0.0,0.0,0.0,0.0,0.0,0.0,0.0,0.0,0.0,0.0,0.0,0.0,0.0,0.0,0.0,0.0,0.0,0.0,0.0,0.0,0.0,0.0,0.0,0.0,0.0,0.0,0.0,0.0,0.0,0.0,0.0,0.0,0.0,0.0,0.0,0.0,0.0,0.0,0.0,0.0,0.0,0.0,0.0,0.0,0.0,0.0,0.0,0.0,0.0,0.0,0.0,0.0,0.0,0.0,0.0,0.0,0.0,0.0,0.0,0.0,0.0,0.0,0.0,0.0,0.0,0.0,0.0,0.0,0.0,0.0,0.0,0.0,0.0,0.0,0.0,0.0,0.0,0.0,0.0,0.0,0.0,0.0,0.0,0.0,0.0,0.0,0.0,0.0,0.0,0.0,0.0,0.0,0.0,0.0,0.0,0.0,0.0,0.0,0.0,0.0,0.0,0.0,0.0,0.0,0.0,0.0,0.0,0.0,0.0,0.0,0.0,0.0,0.0,0.0,0.0,0.0,0.0,0.0,0.0,0.0,0.0,0.0,0.0,0.0,0.0,0.0,0.0,0.0,0.0,0.0,0.0,0.0,0.0,0.0,0.0,0.0,0.0,0.0,0.0,0.0,0.0,0.0,0.0,0.0,0.0,0.0,0.0,0.0,0.0,0.0,0.0,0.0,0.0,0.0,0.0,0.0,0.0,0.0,0.0,0.0,0.0,0.0,0.0,0.0,0.0,0.0,0.0,0.0,0.0,0.0,0.0,0.0,0.0,0.0,0.0,0.0,0.0,0.0,0.0,0.0,0.0,0.0,0.0,0.0,0.0,0.0,0.0,0.0,0.0,0.0,0.0,0.0,0.0,0.0,0.0,0.0,0.0,0.0,0.0,0.0,0.0,0.0,0.0,0.0,0.0,0.0,0.0,0.0,0.0,0.0,0.0,0.0,0.0,0.0,0.0,0.0,0.0,0.0,0.0,0.0,0.0,0.0,0.0,0.0,0.0,0.0,0.0,0.0,0.0,0.0,0.0,0.0,0.0,0.0,0.0,0.0,0.0,0.0,0.0,0.0,0.0,0.0,0.0,0.0,0.0,0.0,0.0,0.0,0.0,0.0,0.0,0.0,0.0,0.0,0.0,0.0,0.0,0.0,0.0,0.0,0.0,0.0,0.0,0.0,0.0,0.0,0.0,0.0,0.0,0.0,0.0,0.0,0.0,0.0,0.0,0.0,0.0,0.0,0.0,0.0,0.0,0.0,0.0,0.0,0.0,0.0,0.0,0.0,0.0,0.0,0.0,0.0,0.0,0.0,0.0,0.0,0.0,0.0,0.0,0.0,0.0,0.0,0.0,0.0,0.0,0.0,0.0,0.0,0.0,0.0,0.0,0.0,0.0,0.0,0.0,0.0,0.0,0.0,0.0,0.0,0.0,0.0,0.0,0.0,0.0,0.0,0.0,0.0,0.0,0.0,0.0,0.0,0.0,0.0,0.0,0.0,0.0,0.0,0.0,0.0,0.0,0.0,0.0,0.0,0.0,0.0,0.0,0.0,0.0,0.0,0.0,0.0,0.0,0.0,0.0,0.0,0.0,0.0,0.0,0.0,0.0,0.0,0.0,0.0,0.0,0.0,0.0,0.0,0.0,0.0,0.0,0.0,0.0,0.0,0.0,0.0,0.0,0.0,0.0,0.0,0.0,0.0,0.0,0.0,0.0,0.0,0.0,0.0,0.0,0.0,0.0,0.0,0.0,0.0,0.0,0.0,0.0,0.0,0.0,0.0,0.0,0.0,0.0,0.0,0.0,0.0,0.0,0.0,0.0,2.9457,2.7144,0.0,0.0,0.0,0.0,0.0,0.0,0.0,0.0,0.0,0.0,0.0,0.0,0.0,0.0,0.0,0.0,0.0,0.0,0.0,0.0,0.0,0.0,0.0,0.0,0.0,0.0,0.0,0.0,0.0,0.0,0.0,0.0,0.0,0.0,0.0,0.0,0.0,0.0,0.0,0.0,0.0,0.0,0.0,0.0,0.0,0.0,0.0,0.0,0.0,0.0,0.0,0.0,0.0,0.0,0.0,0.0,0.0,0.0,0.0,0.0,0.0,0.0,0.0,0.0,0.0,0.0,0.0,0.0,0.0,0.0,0.0,0.0,0.0,0.0,0.0,0.0,0.0,0.0,0.0,0.0,0.0,0.0,0.0,0.0,0.0,0.0,0.0,0.0,0.0,0.0,0.0,0.0,0.0,0.0,0.0,0.0,0.0,0.0,0.0,0.0,0.0,0.0,0.0,0.0,0.0,0.0,0.0,0.0,0.0,0.0,0.0,0.0,0.0,0.0,3.1862,3.022,0.0,0.0,0.0,0.0,0.0,0.0,0.0,0.0,0.0,0.0,0.0,0.0,0.0,0.0,0.0,0.0,0.0,0.0,0.0,0.0,0.0,0.0,0.0,0.0,0.0,0.0,0.0,0.0,0.0,0.0,0.0,0.0,0.0,0.0,0.0,0.0,0.0,0.0,0.0,0.0,0.0,0.0,0.0,0.0,0.0,0.0,0.0,0.0,0.0,0.0,0.0,0.0,0.0,0.0,0.0,0.0,0.0,0.0,0.0,0.0,0.0,0.0,0.0,0.0,0.0,0.0,0.0,0.0,0.0,0.0,0.0,0.0,0.0,0.0,0.0,0.0,0.0,0.0,0.0,0.0,0.0,0.0,0.0,0.0,0.0,0.0,0.0,0.0,0.0,0.0,0.0,0.0,0.0,0.0,0.0,0.0,0.0,0.0,0.0,0.0,0.0,0.0,0.0,0.0,0.0,0.0,0.0,0.0,3.4293,3.4633,3.5129,3.4789,3.4816,3.5103,3.4267,3.348,3.2774,3.1577,0.0,0.0,0.0,0.0,0.0,0.0,0.0,0.0,0.0,0.0,0.0,0.0,0.0,0.0,0.0,0.0,0.0,0.0,0.0,0.0,0.0,0.0,0.0,0.0,0.0,0.0,0.0,0.0,0.0,0.0,0.0,0.0,0.0,0.0,0.0,0.0,0.0,0.0,3.7165,3.6913,3.663,3.6223,0.0,0.0,0.0,0.0,0.0,0.0,0.0,0.0,0.0,0.0,0.0,0.0,0.0,0.0,0.0,0.0,0.0,0.0,0.0,0.0,0.0,0.0,0.0,0.0,0.0,0.0,0.0,0.0,0.0,0.0,0.0,0.0,0.0,0.0,0.0,0.0,0.0,0.0,0.0,0.0,0.0,0.0,0.0,0.0,2.7969,2.8392,0.0,0.0,0.0,0.0,0.0,0.0,0.0,0.0,0.0,0.0,0.0,0.0,0.0,3.3169,3.4607,3.4397,3.5051,3.6567,3.709,3.7612,3.8161,3.8606,3.8579,3.8161,3.8527,0.0,3.4079,3.3757,0.0,0.0,0.0,0.0,0.0,0.0,0.0,0.0,0.0,0.0,0.0,0.0,0.0,0.0,0.0,0.0,0.0,0.0,0.0,0.0,0.0,0.0,0.0,0.0,0.0,0.0,0.0,0.0,0.0,0.0,0.0,0.0,0.0,0.0,0.0,0.0,3.6209,3.858,4.0109,3.9569,3.989,4.0705,3.8295,3.5261,3.1912,3.1401,0.0,0.0,0.0,0.0,0.0,0.0,0.0,0.0,0.0,0.0,0.0,0.0,0.0,0.0,0.0,0.0,0.0,0.0,0.0,0.0,0.0,0.0,0.0,0.0,0.0,0.0,0.0,0.0,0.0,0.0,0.0,0.0,0.0,0.0,0.0,0.0,0.0,0.0,0.0,2.7083,2.8126,2.8836,2.8736,2.8665,0.0,0.0,0.0,0.0,0.0,0.0,0.0,0.0,0.0,3.5077,3.5129,3.5652,3.675,3.6802,3.722,3.7978,3.8579,3.8998,3.9233,3.9494,3.9625,3.9677,3.9939,3.939,3.8187,3.6701,3.59,3.5528,0.0,0.0,0.0,0.0,3.3003,3.3043,0.0,0.0,0.0,0.0,0.0,0.0,0.0,0.0,0.0,0.0,0.0,0.0,0.0,0.0,0.0,2.3951,0.0,0.0,0.0,0.0,0.0,0.0,0.0,0.0,0.0,0.0,0.0,0.0,3.8512,4.0182,4.1827,4.1326,4.1822,4.3062,4.1926,3.886,3.4631,3.4442,3.3205,0.0,0.0,0.0,0.0,0.0,0.0,0.0,0.0,0.0,0.0,0.0,0.0,0.0,0.0,0.0,0.0,0.0,0.0,0.0,0.0,0.0,0.0,0.0,0.0,0.0,0.0,0.0,0.0,0.0,0.0,0.0,0.0,0.0,0.0,0.0,0.0,0.0,0.0,2.8684,2.9574,3.0072,3.0635,3.0876,0.0,0.0,0.0,0.0,0.0,0.0,3.526,3.573,3.6541,3.7848,3.7743,3.8031,3.8762,3.9024,3.9155,3.9155,3.9756,3.9965,3.9834,4.0122,4.0409,4.0671,4.0958,4.1246,4.1402,3.9329,3.8636,3.8644,3.7284,3.6673,3.6718,3.6412,3.6125,3.5999,0.0,0.0,0.0,0.0,0.0,0.0,0.0,0.0,0.0,0.0,0.0,0.0,0.0,0.0,2.6417,2.7449,2.682,2.6412,0.0,0.0,0.0,0.0,0.0,0.0,0.0,0.0,0.0,3.7719,3.9665,4.1071,4.1974,4.1694,4.2055,4.298,4.2809,4.2176,4.1165,3.8483,3.7248,3.6737,0.0,0.0,0.0,0.0,0.0,0.0,0.0,0.0,0.0,0.0,0.0,0.0,0.0,0.0,0.0,0.0,0.0,0.0,0.0,0.0,0.0,0.0,0.0,0.0,0.0,0.0,0.0,0.0,0.0,0.0,0.0,0.0,0.0,0.0,0.0,0.0,0.0,0.0,0.0,3.3528,3.4719,0.0,0.0,0.0,0.0,3.4319,3.5338,3.6488,3.7665,3.7769,3.8527,4.02,3.973,4.0017,4.1141,4.0592,4.0331,4.0331,4.0932,4.0932,4.0409,4.1533,4.1742,4.1324,4.2422,4.2605,4.2082,4.1402,4.0629,4.0037,3.9959,3.9427,3.8846,3.9334,3.9316,3.9119,0.0,0.0,0.0,0.0,0.0,0.0,0.0,0.0,0.0,0.0,0.0,0.0,0.0,2.7771,2.8806,2.9671,3.0195,3.0179,2.9404,0.0,0.0,0.0,0.0,0.0,0.0,0.0,3.8086,4.0383,4.169,4.2684,4.3356,4.2875,4.3322,4.4492,4.3494,4.3083,4.3031,4.1444,3.9648,3.7852,3.711,3.4923,0.0,0.0,0.0,0.0,0.0,0.0,0.0,0.0,0.0,0.0,0.0,0.0,0.0,0.0,0.0,0.0,0.0,0.0,0.0,0.0,0.0,0.0,0.0,0.0,0.0,0.0,0.0,0.0,0.0,0.0,0.0,0.0,0.0,0.0,0.0,0.0,0.0,3.2472,3.3873,0.0,3.5142,3.5943,3.6619,3.7142,3.824,3.9233,4.0043,4.0435,4.1089,4.2056,4.1559,4.1455,4.1847,4.1638,4.1533,4.1559,4.2134,4.2291,4.2108,4.2526,4.2814,4.2997,4.3389,4.3676,4.3807,4.3598,4.284,4.2006,4.2006,4.1569,4.1004,4.1183,4.0948,4.0581,0.0,0.0,0.0,0.0,0.0,0.0,0.0,0.0,0.0,0.0,0.0,2.5801,2.8294,2.9785,3.0863,3.1467,3.2195,3.2132,3.1063,0.0,0.0,0.0,0.0,0.0,0.0,3.8402,3.9919,4.2039,4.3081,4.3804,4.4316,4.432,4.501,4.6148,4.5147,4.468,4.4585,4.3769,4.1923,3.9573,3.9615,3.7912,3.5122,0.0,0.0,0.0,0.0,0.0,0.0,0.0,0.0,0.0,0.0,0.0,0.0,0.0,0.0,0.0,0.0,0.0,0.0,0.0,0.0,0.0,0.0,0.0,0.0,0.0,0.0,0.0,0.0,0.0,0.0,0.0,0.0,0.0,0.0,3.2927,3.4093,3.3105,3.4393,3.5711,3.6505,3.7374,3.8266,3.9207,4.0357,4.1167,4.1585,4.2134,4.2709,4.3284,4.2762,4.2552,4.2735,4.2735,4.2657,4.2474,4.3023,4.331,4.331,4.352,4.3912,4.4487,4.467,4.4957,4.5323,4.5323,4.4879,4.4147,4.3755,4.328,4.2853,4.2853,4.2531,4.199,0.0,0.0,0.0,0.0,0.0,0.0,0.0,0.0,0.0,0.0,2.5633,2.7644,2.8764,3.0952,3.2467,3.2819,3.2578,3.2105,3.1459,3.2044,0.0,0.0,0.0,0.0,3.9262,3.9866,4.0917,4.26,4.3803,4.4524,4.481,4.6035,4.701,4.77,4.77,4.712,4.6122,4.5395,4.4091,4.2267,4.0955,3.9885,3.8743,0.0,0.0,0.0,0.0,0.0,0.0,0.0,0.0,0.0,0.0,0.0,0.0,0.0,0.0,0.0,0.0,0.0,0.0,0.0,0.0,0.0,0.0,0.0,0.0,0.0,0.0,0.0,0.0,0.0,0.0,0.0,0.0,0.0,3.335,3.4585,3.5571,3.5697,3.6689,3.7584,3.8031,3.9066,3.986,4.0409,4.1507,4.2262,4.2262,4.2735,4.331,4.3859,4.3363,4.3337,4.3912,4.3912,4.365,4.3127,4.3676,4.3964,4.3964,4.4539,4.5114,4.5689,4.6238,4.6473,4.6473,4.6473,4.6473,4.6369,4.5218,4.4583,4.4364,4.4338,4.3984,4.3432,0.0,0.0,0.0,0.0,0.0,0.0,0.0,0.0,0.0,0.0,2.6773,2.7978,3.0666,3.205,3.2663,3.2578,3.2468,3.2321,3.2136,0.0,0.0,0.0,0.0,0.0,4.0026,4.1899,4.3305,4.4096,4.5499,4.6418,4.6914,4.7231,4.7472,4.7567,4.7567,4.7261,4.6737,4.6564,4.5828,4.4541,4.2137,4.0097,3.8499,0.0,0.0,0.0,0.0,0.0,0.0,0.0,0.0,0.0,0.0,0.0,0.0,0.0,0.0,0.0,0.0,0.0,0.0,0.0,0.0,0.0,0.0,0.0,0.0,0.0,0.0,0.0,0.0,0.0,0.0,0.0,3.5682,3.6852,3.6281,3.6603,3.707,3.7563,3.8033,3.8908,4.055,4.1086,4.1597,4.2189,4.2545,4.2743,4.2743,4.331,4.3702,4.3859,4.4121,4.4539,4.514,4.514,4.5271,4.5532,4.5689,4.5767,4.5767,4.5924,4.6081,4.6264,4.6421,4.6473,4.6473,4.6473,4.6473,4.6447,4.6107,4.5779,4.5503,4.5089,4.4575,4.4015,0.0,0.0,0.0,0.0,0.0,0.0,0.0,0.0,0.0,0.0,2.7346,2.8233,3.1477,3.2476,3.2827,3.2633,3.2578,3.2757,3.3036,0.0,0.0,0.0,0.0,4.0414,4.1517,4.3662,4.498,4.5341,4.685,4.766,4.7866,4.8323,4.8552,4.8552,4.8438,4.8288,4.7962,4.6989,4.6413,4.5972,4.31,4.1179,3.9951,3.8832,3.7463,3.598,3.4816,3.4115,3.3444,3.2013,0.0,0.0,0.0,0.0,0.0,0.0,0.0,0.0,0.0,0.0,0.0,0.0,0.0,0.0,0.0,0.0,0.0,0.0,0.0,0.0,0.0,0.0,0.0,0.0,3.7123,3.8249,3.9201,3.8836,3.88,3.9388,3.9353,4.0042,4.1699,4.1761,4.2031,4.2846,4.2923,4.2944,4.2944,4.3991,4.4465,4.4251,4.5036,4.5637,4.5976,4.5976,4.6159,4.6473,4.6473,4.6604,4.6839,4.6839,4.697,4.7205,4.7205,4.7205,4.7205,4.7205,4.7205,4.7153,0.0,0.0,0.0,0.0,4.494,4.4624,0.0,0.0,0.0,0.0,0.0,0.0,0.0,0.0,0.0,0.0,0.0,2.8494,3.1633,3.256,3.2966,3.2912,3.2912,3.3193,0.0,0.0,0.0,3.8129,4.0066,4.1855,4.3449,4.5033,4.5916,4.6207,4.7733,4.8343,4.8133,4.9154,4.9835,5.0056,4.9835,4.9658,4.9445,4.7261,4.6591,4.6772,4.4069,4.2751,4.2183,3.9777,3.8367,3.7333,3.4929,3.4445,3.4722,3.3223,0.0,0.0,0.0,0.0,0.0,0.0,0.0,0.0,0.0,0.0,0.0,0.0,0.0,0.0,0.0,0.0,0.0,0.0,0.0,0.0,0.0,0.0,0.0,0.0,3.8666,3.9404,4.159,4.1103,4.0737,4.1055,4.0769,4.1022,4.214,4.1869,4.2016,4.3039,4.3067,4.2938,4.2938,4.441,0.0,0.0,0.0,4.6481,4.6578,4.6578,4.6604,4.6656,4.6656,4.6944,4.744,4.744,4.7702,4.8172,4.8172,4.8172,4.8198,4.825,4.8329,4.8277,4.7127,4.6517,4.6099,4.5527,4.5298,4.5182,0.0,0.0,0.0,0.0,0.0,0.0,0.0,0.0,0.0,2.8271,2.7758,2.8482,3.2573,3.3108,3.315,3.2912,3.2912,3.3193,0.0,0.0,3.8854,3.9349,4.1755,4.3597,4.4816,4.5127,4.5563,4.6301,4.7099,4.7774,4.8133,4.8882,4.9778,5.0695,4.9983,4.9872,5.0175,4.904,4.8213,4.7564,4.5865,4.4166,4.2555,4.1398,4.022,3.9009,3.8477,3.8077,3.7523,3.6168,3.5369,3.4724,3.2911,0.0,0.0,0.0,0.0,0.0,0.0,0.0,0.0,0.0,0.0,0.0,0.0,0.0,0.0,0.0,0.0,0.0,0.0,0.0,0.0,3.8782,3.987,4.0708,4.1696,4.2834,4.3357,4.2572,4.2316,4.2768,4.3864,4.3854,4.3882,4.4115,4.3725,4.3492,4.3492,4.3796,4.4313,4.4679,4.5368,4.6183,4.7153,4.7179,4.7388,4.7858,4.7858,0.0,4.8015,4.8015,4.8068,4.8172,4.8172,4.8172,4.8224,4.8721,4.9165,4.9453,4.8303,4.7571,4.7038,4.672,4.6373,4.6115,0.0,0.0,0.0,0.0,0.0,0.0,0.0,0.0,0.0,0.0,2.7186,2.7968,3.1652,3.2029,3.229,3.285,3.3959,0.0,0.0,3.801,4.0137,4.0418,4.2409,4.4164,4.5671,4.5336,4.5824,4.7233,4.8098,4.8711,4.9042,5.0112,5.0803,5.1145,5.0646,5.0067,4.9521,4.8623,4.7897,4.7209,4.5785,4.4591,4.3611,4.2488,4.1463,4.0509,4.0139,3.9585,3.8816,3.7461,3.6784,3.6261,3.4876,3.4327,3.3757,0.0,0.0,0.0,0.0,0.0,0.0,0.0,0.0,0.0,0.0,0.0,0.0,0.0,0.0,3.5224,3.5889,0.0,3.7844,3.9776,4.1113,4.2083,4.2544,4.3981,4.4538,4.3342,4.375,4.4337,4.4926,4.4678,4.478,4.5344,4.4841,4.4387,4.4084,4.4447,4.4738,4.5129,4.5711,4.6514,4.7754,4.7754,4.7911,4.8172,4.8486,4.8643,4.8643,4.8904,4.9035,4.9035,4.9035,4.9035,4.9061,4.9374,4.9479,4.9427,4.8852,4.8616,4.8616,4.8262,4.7844,4.7427,0.0,0.0,0.0,0.0,0.0,0.0,0.0,0.0,0.0,0.0,2.6262,2.7195,3.0192,3.0697,3.1404,0.0,0.0,0.0,0.0,3.8813,4.0926,4.1181,4.2576,4.4205,4.5972,4.5589,4.6035,4.7547,4.8651,4.9296,4.9447,5.0841,5.148,5.1503,5.1176,5.0322,4.9026,4.7834,4.7137,4.6694,4.538,4.4875,4.4741,4.3448,4.2417,4.1524,4.094,4.0293,3.9524,3.8323,3.7892,3.7738,3.6938,3.6415,3.5646,3.3321,3.2897,0.0,0.0,0.0,0.0,0.0,0.0,0.0,0.0,3.3779,3.3775,3.5244,3.5791,3.6297,3.7176,3.7903,3.8933,4.09,4.2284,4.3267,4.3856,4.4915,4.5302,4.4243,4.5029,4.571,4.5685,4.5327,4.5532,4.6361,4.5982,4.5496,4.5108,4.5523,4.5912,4.6223,4.6645,4.7344,4.8521,4.83,4.83,4.8431,4.8786,4.8904,4.893,4.9348,4.9557,4.9557,4.9557,4.9636,4.974,4.974,4.9531,4.9244,4.9244,4.9505,4.9871,4.9395,4.8911,4.848,0.0,0.0,0.0,0.0,0.0,0.0,0.0,0.0,0.0,0.0,0.0,0.0,0.0,0.0,0.0,0.0,0.0,0.0,0.0,3.9123,4.1312,4.1205,4.2735,4.4103,4.5269,4.5612,4.5703,4.5522,4.6675,4.7248,4.7374,4.8813,5.0454,5.2062,5.0912,5.0409,5.0359,4.8398,4.7272,4.6726,4.5889,4.557,4.5498,4.4657,4.3217,4.1586,4.1524,4.1032,4.0293,3.9554,3.9308,3.9062,3.78,3.7738,3.7483,3.4083,0.0,3.2738,2.9564,2.9838,3.1802,3.4867,3.4775,3.4724,0.0,3.7845,3.7152,3.7758,3.8697,3.9294,3.9074,3.9891,4.0928,4.2343,4.3054,4.3856,4.5121,4.5958,4.6285,4.6226,4.6272,4.6384,4.6373,4.679,4.6907,4.639,4.6299,4.6406,4.6883,4.6923,4.7587,4.8621,4.8157,4.8572,4.9756,4.8706,4.8505,4.901,4.8484,4.8277,4.8277,4.8355,4.8381,4.8381,4.8381,4.8669,4.9165,4.9165,4.9427,4.9793,4.9793,4.9845,4.9766,4.8747,4.8094,4.7807,0.0,0.0,0.0,0.0,0.0,0.0,0.0,0.0,0.0,0.0,0.0,0.0,0.0,0.0,0.0,0.0,0.0,0.0,3.4841,3.8289,4.0721,4.1566,4.2635,4.4113,4.5976,4.5478,4.5682,4.6658,4.7136,4.7626,4.8072,4.9169,5.0172,5.1042,5.055,4.9754,4.8846,4.7948,4.6834,4.5478,4.5216,4.5067,4.4962,4.4291,4.3248,4.2202,4.2202,4.1463,0.0,0.0,4.0108,3.9955,3.897,3.8371,3.7485,3.4712,3.3674,0.0,3.3197,3.3338,3.41,3.6618,3.6287,3.5843,3.7799,3.7562,3.7397,3.8974,3.9668,4.0101,4.0639,4.1356,4.2189,4.3082,4.4054,4.4852,4.5475,4.6398,4.6904,4.655,4.7486,4.7955,4.7169,4.7174,4.7327,4.7425,4.7376,4.7488,4.774,4.7075,4.741,4.9028,4.8185,4.8246,4.9494,4.9013,4.8512,4.8086,4.8574,4.8538,4.8198,4.8878,4.9191,4.9191,4.9191,4.9322,4.9557,4.9557,4.9505,4.9427,4.9427,4.9218,4.893,4.9113,4.8864,4.851,0.0,0.0,0.0,0.0,0.0,0.0,0.0,0.0,0.0,0.0,0.0,0.0,0.0,0.0,0.0,0.0,0.0,0.0,0.0,3.7308,3.9692,4.1506,4.2219,0.0,4.5583,4.5132,4.5528,4.688,4.7231,4.77,4.8217,4.9217,4.9845,5.0168,5.0045,4.922,4.7749,4.7012,4.5913,4.4595,4.437,4.4295,4.4233,4.3741,4.294,4.2017,4.1873,4.1209,0.0,0.0,3.9627,3.9586,3.9061,3.809,3.6734,3.469,3.3311,3.3107,3.5467,3.5804,3.5967,3.782,3.7629,3.7084,3.7585,3.7483,3.7888,3.9605,4.0244,4.0858,4.1834,4.244,4.3048,4.3638,4.4761,4.5504,4.5504,4.6486,4.7081,4.6786,4.8018,4.86,4.7746,4.776,4.7998,4.8431,4.8226,4.8359,4.8864,4.7968,4.818,4.9768,4.8755,4.8624,4.9556,4.9085,4.8342,4.7561,4.8488,4.8498,4.7989,4.8982,4.9427,4.9401,4.9244,4.927,4.9401,4.9244,4.9035,4.8826,4.8826,4.8564,4.8277,4.9113,4.9165,4.8904,0.0,0.0,0.0,0.0,0.0,0.0,0.0,0.0,0.0,0.0,0.0,0.0,0.0,0.0,0.0,0.0,0.0,0.0,0.0,3.6353,3.8287,4.0735,4.1238,4.2001,4.3071,4.4619,4.5211,4.4776,4.6035,4.6665,4.67,4.8183,4.9286,4.9987,4.9505,4.8951,4.8253,4.5603,4.4532,4.4503,4.3882,4.3587,4.3587,4.3587,4.2325,4.0532,3.998,0.0,0.0,0.0,3.7445,3.7548,3.736,3.6649,0.0,3.3649,3.1765,0.0,3.4763,3.5774,3.6276,3.8274,3.8859,3.8936,3.8965,3.9114,3.9414,3.9908,4.0935,4.1945,4.248,4.3076,4.3666,4.4284,4.5046,4.5504,4.5504,4.6106,4.6757,4.7405,4.7439,4.7606,4.8153,4.8845,4.9248,4.912,4.8481,4.8893,5.0691,5.0213,5.0438,5.1702,5.055,5.0241,5.0859,4.9047,4.8185,4.8192,4.8204,4.7959,4.7388,4.7963,4.8224,4.8198,4.7649,4.7728,4.8198,4.7649,4.7728,4.8224,4.8224,4.8198,4.8172,4.8224,4.8224,4.8224,0.0,0.0,0.0,0.0,0.0,0.0,0.0,0.0,0.0,0.0,0.0,0.0,0.0,0.0,0.0,0.0,0.0,0.0,0.0,3.4823,3.7086,3.8619,4.0422,4.18,4.2678,4.3991,4.4854,4.5177,4.6163,4.6872,4.7355,4.7872,4.8217,4.8437,4.7967,4.7457,4.6749,4.5113,4.423,4.3894,4.3241,4.294,4.2786,4.1401,4.0515,3.9667,0.0,0.0,0.0,0.0,0.0,0.0,3.6432,0.0,0.0,3.369,0.0,3.3557,3.4841,3.6184,3.7377,3.8109,3.8391,3.8477,3.8558,3.9216,4.0129,4.1018,4.2119,4.3118,4.3722,4.3975,4.4172,4.4369,4.4583,4.4954,4.5413,4.6123,4.6563,4.6766,4.7441,4.7874,4.7546,4.8141,4.8679,4.9076,4.8826,4.937,5.0803,5.0297,5.0522,5.1759,5.0607,5.0073,5.0269,4.9709,4.8541,4.7025,4.707,4.7197,4.7362,4.7911,4.8172,4.8172,4.7989,4.8015,4.8172,4.7989,4.8015,4.8172,4.8172,4.8172,4.8172,4.8172,4.8172,4.8172,0.0,0.0,0.0,0.0,0.0,0.0,0.0,0.0,0.0,0.0,0.0,0.0,0.0,0.0,0.0,0.0,0.0,0.0,0.0,0.0,3.4789,3.6274,3.8347,3.9692,4.0213,4.1644,4.26,4.3076,4.438,4.524,4.572,4.6522,4.7044,4.7231,4.6532,4.6043,4.5629,4.4237,4.3754,4.38,4.2119,4.1801,4.1986,3.9474,3.8257,0.0,0.0,0.0,0.0,0.0,0.0,0.0,0.0,0.0,0.0,3.4687,3.5036,3.5627,3.6224,3.7151,3.814,3.8588,3.8755,3.8866,3.944,4.0304,4.129,4.2293,4.3202,4.3947,4.434,4.4425,4.4425,4.4425,4.4583,4.4947,4.536,4.601,4.6534,4.6709,4.7452,4.7828,4.7516,4.8106,4.8696,4.9314,4.937,4.9904,5.114,5.0607,5.0747,5.1759,5.0803,5.0269,5.0269,5.0146,4.8976,4.7052,4.6884,4.6882,4.7048,4.7832,4.8068,4.7885,4.7885,4.7989,4.8172,4.7963,4.8015,4.8172,4.8172,4.8172,4.8172,4.8172,4.8172,4.8172,0.0,0.0,0.0,0.0,0.0,0.0,0.0,0.0,0.0,0.0,0.0,0.0,0.0,0.0,0.0,0.0,0.0,0.0,0.0,0.0,0.0,3.3774,3.5162,3.599,3.6076,3.7752,3.8689,3.8797,4.1003,4.2132,4.2199,4.4297,4.5662,4.6281,4.5056,4.4575,4.4649,4.2805,4.2905,4.3969,4.069,4.017,4.1023,3.7861,0.0,0.0,0.0,0.0,0.0,0.0,0.0,0.0,0.0,3.3868,3.4953,3.6515,3.6868,3.7126,3.8558,3.8643,3.8478,3.9508,3.9788,4.0154,4.139,4.2177,4.2795,4.3413,4.4003,4.4425,4.4453,4.4425,4.4425,4.4509,4.5039,4.5487,4.5391,4.5921,4.6595,4.7165,4.7207,4.7459,4.8106,4.8724,4.9342,4.996,5.0016,5.0522,5.1731,5.1253,5.1197,5.1759,5.1197,5.0859,5.0859,5.0241,4.9375,4.8192,4.7561,4.7007,4.6638,4.7675,4.7885,4.7388,4.7388,4.7675,4.8146,4.7597,4.7702,4.8172,4.8172,4.8172,4.8172,4.8172,4.8172,4.8172,0.0,0.0,0.0,0.0,0.0,0.0,0.0,0.0,0.0,0.0,0.0,0.0,0.0,0.0,0.0,0.0,0.0,0.0,0.0,0.0,0.0,0.0,0.0,0.0,0.0,0.0,0.0,0.0,0.0,4.089,4.1455,4.2998,4.3347,4.2478,4.1799,4.1096,4.0259,3.8928,3.903,3.9915,0.0,3.7769,3.8165,0.0,0.0,0.0,0.0,0.0,0.0,0.0,3.2125,3.3057,3.5581,3.5943,3.5707,3.6983,3.7561,3.7731,3.7234,3.7866,3.8807,3.9058,3.9788,4.08,4.2064,4.2823,4.3441,4.4059,4.4312,4.4565,4.5015,4.4706,4.4706,4.5661,4.5599,4.5514,4.597,4.6248,4.653,4.7122,4.7207,4.7628,4.8696,4.937,4.9988,5.0607,5.0635,5.0972,5.1759,5.1646,5.1618,5.1787,5.1197,5.0859,5.0859,4.937,4.8747,4.8868,4.7781,4.7229,4.7171,4.788,4.812,4.7963,4.7963,4.8041,4.8172,4.8015,4.8041,4.8172,4.8172,4.8172,4.8172,4.8172,4.8172,4.8172,0.0,0.0,0.0,0.0,0.0,0.0,0.0,0.0,0.0,0.0,0.0,0.0,0.0,0.0,0.0,0.0,0.0,0.0,0.0,0.0,0.0,0.0,0.0,0.0,0.0,0.0,0.0,0.0,0.0,0.0,0.0,3.9884,4.015,3.9688,3.9162,3.8373,3.7355,0.0,0.0,0.0,0.0,0.0,0.0,0.0,0.0,0.0,0.0,0.0,0.0,0.0,3.2835,3.3968,3.6872,3.727,3.6944,3.7867,3.8394,3.8309,3.7334,3.797,3.8917,3.9198,3.9985,4.1025,4.2289,4.2642,4.297,4.3798,4.3817,4.392,4.4724,4.4846,4.4959,4.538,4.5633,4.5886,4.6251,4.6532,4.6926,4.7544,4.76,4.7993,4.8949,4.9595,5.0213,5.0831,5.114,5.1421,5.1759,5.1787,5.1787,5.1787,5.145,5.1281,5.1281,5.0006,4.9135,4.8788,4.8271,4.7558,4.6579,4.766,4.8041,4.7832,4.8068,4.8172,4.8172,4.8172,4.8172,4.8172,4.8172,4.8172,4.8172,4.8172,4.8172,4.8224,0.0,0.0,0.0,0.0,0.0,0.0,0.0,0.0,0.0,0.0,0.0,0.0,0.0,0.0,0.0,0.0,0.0,0.0,0.0,0.0,0.0,0.0,0.0,0.0,0.0,0.0,0.0,0.0,0.0,0.0,0.0,0.0,0.0,0.0,0.0,0.0,0.0,0.0,0.0,0.0,0.0,0.0,0.0,0.0,0.0,0.0,0.0,0.0,0.0,0.0,3.4251,3.5706,3.7596,3.813,3.8179,3.8698,3.8894,3.8721,3.799,3.8299,3.9002,3.9535,4.0126,4.0884,4.1976,4.2071,4.2048,4.297,4.3037,4.3194,4.4013,4.4639,4.4959,4.4593,4.5464,4.6251,4.6504,4.701,4.7516,4.8078,4.8134,4.8387,4.9089,4.9651,5.0241,5.0944,5.1478,5.1787,5.1787,5.1787,5.1787,5.1787,5.1787,5.1787,5.1787,5.1169,5.0122,4.8572,4.8953,4.7993,4.6015,4.7555,4.7911,4.7466,4.7963,4.8172,4.8172,4.8172,4.8172,4.8172,4.8172,4.8172,4.8198,4.8277,4.8303,4.8381,0.0,0.0,0.0,0.0,0.0,0.0,0.0,0.0,0.0,0.0,0.0,0.0,0.0,0.0,0.0,0.0,0.0,0.0,0.0,0.0,0.0,0.0,0.0,0.0,0.0,0.0,0.0,0.0,0.0,0.0,0.0,0.0,0.0,0.0,0.0,0.0,0.0,0.0,0.0,0.0,0.0,0.0,0.0,0.0,0.0,0.0,0.0,0.0,0.0,0.0,3.3745,3.6134,3.8077,3.8638,3.8466,3.7591,3.8131,3.8608,3.7456,3.799,3.8889,3.9002,3.9479,4.0041,4.0423,4.119,4.1755,4.1589,4.2571,4.3338,4.3017,4.3445,4.4116,4.5015,4.5352,4.6026,4.76,4.7909,4.7993,4.8106,4.8134,4.8555,4.9679,4.9904,5.0438,5.1534,5.1731,5.1787,5.1787,5.1787,5.1787,5.1787,5.1787,5.1787,5.1787,5.1169,5.0472,4.9749,4.9283,4.8651,4.781,4.8083,4.812,4.8041,4.8146,4.8172,4.8172,4.8172,4.8172,4.8172,4.8172,4.8172,4.825,4.8747,4.893,4.9008,0.0,0.0,0.0,0.0,0.0,0.0,0.0,0.0,0.0,0.0,0.0,0.0,0.0,0.0,0.0,0.0,0.0,0.0,0.0,0.0,0.0,0.0,0.0,0.0,0.0,0.0,2.7819,2.9427,0.0,2.955,3.0874,3.0843,3.0658,3.0381,3.072,0.0,0.0,0.0,0.0,0.0,0.0,0.0,0.0,0.0,0.0,0.0,0.0,0.0,0.0,0.0,3.349,3.6297,3.8489,3.9239,3.9073,3.8245,3.8116,3.8159,3.7231,3.7653,3.8355,3.8355,3.8833,3.9284,3.9143,3.9326,3.9557,3.9707,4.0223,4.0804,4.1708,4.2064,4.2552,4.375,4.4425,4.5268,4.6504,4.6954,4.7403,4.805,4.7853,4.8246,4.982,4.996,5.0466,5.1702,5.1787,5.1787,5.1787,5.1787,5.1787,5.1787,5.1787,5.1787,5.1787,5.1506,5.092,4.9983,5.0051,4.9361,4.8154,4.8585,4.8521,4.8172,4.8172,4.8355,4.8643,4.8643,4.8826,4.9061,4.9061,4.9061,4.9113,4.9401,4.9505,4.9584,0.0,0.0,0.0,0.0,0.0,0.0,0.0,0.0,0.0,0.0,0.0,0.0,0.0,0.0,0.0,0.0,0.0,0.0,0.0,0.0,0.0,0.0,0.0,0.0,0.0,0.0,0.0,2.8817,2.7718,0.0,0.0,0.0,0.0,0.0,2.9766,2.9396,2.8394,0.0,0.0,0.0,0.0,2.6759,0.0,0.0,0.0,0.0,0.0,0.0,0.0,0.0,3.2629,3.54,3.7545,3.869,3.9178,3.8419,3.799,3.7597,3.7119,3.7428,3.7906,3.7906,3.8299,3.8527,3.7814,3.7563,3.7555,3.7601,3.7584,3.8048,3.9453,4.0134,4.0697,4.1691,4.3041,4.4369,4.538,4.6083,4.6897,4.7993,4.7684,4.8021,4.9595,4.9876,5.041,5.1506,5.1731,5.1787,5.1787,5.1787,5.1787,5.1787,5.1787,5.1787,5.1787,5.1787,5.126,5.0184,5.0712,5.002,4.8444,4.8919,4.8753,4.8172,4.8172,4.8538,4.9087,4.9087,4.9401,4.9897,4.9897,4.9897,4.9897,5.0028,5.008,5.0159,0.0,0.0,0.0,0.0,0.0,0.0,0.0,0.0,0.0,0.0,0.0,0.0,0.0,0.0,0.0,0.0,0.0,0.0,0.0,0.0,0.0,0.0,0.0,0.0,0.0,0.0,0.0,2.6947,2.6627,0.0,0.0,0.0,0.0,0.0,0.0,2.8535,2.8363,2.7569,0.0,0.0,0.0,0.0,0.0,0.0,0.0,0.0,0.0,2.6384,2.7117,0.0,3.0054,3.2356,3.3301,3.5623,3.7754,3.6675,3.6718,3.7063,3.7007,3.7428,3.7906,3.7906,3.7934,3.769,3.6332,3.6797,3.7007,3.5178,3.5982,3.669,3.5811,3.7179,3.8726,3.9421,4.1295,4.3554,4.5886,4.6729,4.7375,4.805,4.8078,4.8331,4.9061,4.9623,5.0241,5.0916,5.1478,5.1787,5.1787,5.1787,5.1787,5.1787,5.1787,5.1787,5.1787,5.1787,5.1478,5.078,5.0823,5.0243,4.903,4.9033,4.8753,4.8172,4.8172,4.8538,4.9087,4.9087,4.9401,4.9897,4.9897,4.9897,4.9949,5.0498,5.0707,5.0786,0.0,0.0,0.0,0.0,0.0,0.0,0.0,0.0,0.0,0.0,0.0,0.0,0.0,0.0,0.0,0.0,0.0,0.0,0.0,0.0,0.0,0.0,0.0,0.0,0.0,0.0,2.5206,2.5878,2.5968,0.0,0.0,0.0,0.0,0.0,0.0,2.8266,2.7989,2.7408,0.0,0.0,0.0,0.0,0.0,0.0,0.0,0.0,0.0,0.0,2.6413,2.7311,2.8979,3.092,3.2178,3.3663,3.5111,3.5985,3.719,3.7962,3.7203,3.7428,3.7906,3.7906,3.7625,3.7051,3.6006,3.56,3.4955,3.3618,3.3907,3.4442,3.4579,3.5251,3.6307,3.7841,3.9812,4.1909,4.4312,4.5464,4.6588,4.7965,4.7797,4.7965,4.8949,4.9595,5.0354,5.1337,5.1646,5.1787,5.1787,5.1787,5.1787,5.1787,5.1787,5.1787,5.1787,5.1787,5.1843,5.1983,5.1988,5.132,5.02,5.0189,4.9631,4.8721,4.8721,4.9035,4.9584,4.9949,5.0237,5.0472,5.0786,5.0917,5.0943,5.1178,5.1282,5.1309,0.0,0.0,0.0,0.0,0.0,0.0,0.0,0.0,0.0,0.0,0.0,0.0,0.0,0.0,0.0,0.0,0.0,0.0,0.0,0.0,0.0,0.0,0.0,0.0,0.0,0.0,2.4134,2.511,2.5188,2.5704,0.0,0.0,2.74,2.8039,0.0,0.0,0.0,0.0,0.0,0.0,0.0,0.0,0.0,0.0,0.0,0.0,0.0,0.0,0.0,0.0,0.0,2.9463,0.0,0.0,0.0,0.0,3.6978,3.769,3.695,3.7288,3.7906,3.7906,3.7237,3.6443,3.5924,3.4651,3.3265,3.2594,3.2306,3.2463,3.3198,3.3621,3.4499,0.0,0.0,4.0752,4.2782,4.4499,4.6251,4.7937,4.7909,4.8106,4.8949,4.9595,5.0466,5.1702,5.1787,5.1787,5.1787,5.1787,5.1787,5.1787,5.1787,5.1871,5.204,5.2068,5.2377,5.2995,5.2995,5.2322,5.1135,5.102,5.022,4.9062,4.9127,4.9296,4.9688,5.0289,5.0629,5.0838,5.1204,5.1465,5.1596,5.1596,5.1596,5.1596,0.0,0.0,0.0,0.0,0.0,0.0,0.0,0.0,0.0,0.0,0.0,0.0,0.0,0.0,0.0,0.0,0.0,0.0,0.0,0.0,0.0,0.0,0.0,0.0,0.0,0.0,2.399,2.4624,2.4323,2.4835,2.61,2.61,2.6453,2.7122,0.0,0.0,0.0,0.0,0.0,0.0,0.0,0.0,0.0,0.0,0.0,0.0,0.0,0.0,0.0,0.0,0.0,0.0,0.0,0.0,0.0,0.0,3.5466,3.562,3.6003,3.6978,3.7906,3.7906,3.6744,3.5604,3.5734,3.4119,3.2475,3.1939,3.1392,3.0999,3.0999,3.2299,3.3514,3.4206,3.7617,4.0526,4.1744,4.4422,4.6729,4.7993,4.8668,4.9033,4.9033,4.9595,5.0466,5.1702,5.1787,5.1787,5.1787,5.1787,5.1787,5.1787,5.1787,5.2096,5.2686,5.2686,5.3023,5.3669,5.3669,5.2994,5.179,5.1108,5.0209,4.9125,4.9035,4.9087,4.9139,4.9688,5.0263,5.0786,5.0812,5.1126,5.1596,5.1596,5.1596,5.1596,0.0,0.0,0.0,0.0,0.0,0.0,0.0,0.0,0.0,0.0,0.0,0.0,0.0,0.0,0.0,0.0,0.0,0.0,0.0,0.0,0.0,0.0,0.0,0.0,0.0,0.0,0.0,2.4255,2.4805,2.5321,2.5749,2.6,2.6453,2.7122,2.7122,2.6967,0.0,0.0,0.0,0.0,0.0,0.0,0.0,0.0,0.0,0.0,0.0,0.0,0.0,0.0,0.0,0.0,0.0,0.0,0.0,0.0,0.0,0.0,3.4898,3.5411,3.6286,3.6463,3.5178,3.4093,3.4658,3.2948,3.1282,3.1258,3.1104,3.0973,3.0973,3.2069,3.3067,3.3567,3.6983,4.0007,4.1162,4.4143,4.6588,4.7403,4.805,4.8752,4.9595,4.9848,5.0466,5.1702,5.1787,5.1787,5.1787,5.1787,5.1787,5.1787,5.2208,5.2517,5.2714,5.3135,5.3669,5.4316,5.4316,5.3636,5.2453,5.185,5.1044,5.0179,4.9797,4.9871,5.0289,5.0838,5.0943,5.0838,5.1204,5.1439,5.1596,5.1596,5.1596,5.1596,0.0,0.0,0.0,0.0,0.0,0.0,0.0,0.0,0.0,0.0,0.0,0.0,0.0,0.0,0.0,0.0,0.0,0.0,0.0,0.0,0.0,0.0,0.0,0.0,0.0,0.0,2.461,2.447,2.527,2.5659,2.574,2.615,2.6457,2.6654,2.6654,2.6496,0.0,0.0,0.0,0.0,0.0,0.0,0.0,0.0,0.0,0.0,0.0,0.0,0.0,0.0,0.0,0.0,0.0,0.0,0.0,0.0,0.0,0.0,0.0,3.4257,3.5315,3.5435,3.419,3.3176,3.4366,3.2638,3.1035,3.1834,3.1627,3.1313,3.1313,3.2254,3.3171,3.3621,3.708,4.0014,4.0885,4.3882,4.6335,4.7431,4.8302,4.9202,5.0213,5.0297,5.0719,5.1731,5.1787,5.1787,5.1787,5.1787,5.1899,5.2124,5.2489,5.2826,5.3079,5.3697,5.4316,5.4934,5.4934,5.4254,5.3101,5.2267,5.1431,5.0773,5.0153,5.0106,0.0,5.1073,5.11,5.0812,5.1152,5.1413,5.1596,5.1596,5.1596,5.1596,0.0,0.0,0.0,0.0,0.0,0.0,0.0,0.0,0.0,0.0,0.0,0.0,0.0,0.0,0.0,0.0,0.0,0.0,0.0,0.0,0.0,0.0,0.0,0.0,0.0,2.4244,2.4526,2.5036,2.5711,2.602,2.6048,2.6666,2.661,2.602,2.5992,2.5936,0.0,0.0,0.0,0.0,0.0,0.0,0.0,0.0,0.0,0.0,0.0,0.0,0.0,0.0,0.0,0.0,0.0,0.0,0.0,0.0,0.0,0.0,0.0,0.0,3.4597,3.4624,3.345,3.2768,3.4553,0.0,0.0,0.0,0.0,3.1707,3.1759,3.2803,3.377,3.4371,3.7739,4.0495,4.1055,4.3598,4.6083,4.7797,4.9117,5.0129,5.0691,5.0831,5.114,5.1731,5.1787,5.1787,5.1787,5.1787,5.2068,5.2686,5.2742,5.3079,5.3726,5.4344,5.4934,5.5496,5.5496,5.485,5.3669,5.241,5.1529,5.0871,5.0287,4.9976,5.0054,5.0629,5.0838,5.0838,5.0838,5.1152,5.1596,5.1596,5.1596,5.1596,0.0,0.0,0.0,0.0,0.0,0.0,0.0,0.0,0.0,0.0,0.0,0.0,0.0,0.0,0.0,0.0,0.0,0.0,0.0,0.0,0.0,0.0,0.0,0.0,0.0,2.5458,2.5542,2.5683,2.6807,2.734,2.734,2.7959,2.7931,2.7312,2.6807,0.0,0.0,0.0,0.0,0.0,0.0,0.0,0.0,0.0,0.0,0.0,0.0,0.0,0.0,0.0,0.0,0.0,0.0,0.0,0.0,0.0,2.7393,0.0,0.0,0.0,3.1696,3.1849,3.1277,0.0,0.0,0.0,0.0,0.0,0.0,0.0,3.168,3.2803,3.3927,3.492,3.8006,4.0658,4.1719,4.4719,4.6757,4.6729,4.8218,4.9314,4.9454,5.0326,5.114,5.1731,5.1787,5.1787,5.1787,5.1787,5.2068,5.2686,5.3192,5.3754,5.4372,5.499,5.5355,5.5496,5.5496,5.485,5.3697,5.2849,5.2126,5.1494,5.0922,5.0812,5.1204,5.1335,5.1413,5.1413,5.1413,5.1492,5.1596,5.1596,5.1596,5.1596,0.0,0.0,0.0,0.0,0.0,0.0,0.0,0.0,0.0,0.0,0.0,0.0,0.0,0.0,0.0,0.0,0.0,0.0,0.0,0.0,0.0,0.0,0.0,0.0,0.0,2.616,2.6301,2.6301,2.7565,2.8043,2.779,2.8099,2.7931,2.7312,2.6666,0.0,0.0,0.0,0.0,0.0,0.0,0.0,0.0,0.0,0.0,0.0,0.0,0.0,0.0,2.5907,2.5907,2.5853,0.0,0.0,0.0,0.0,2.6532,0.0,0.0,0.0,3.0164,3.0524,0.0,0.0,0.0,0.0,0.0,0.0,0.0,0.0,3.2751,3.4123,3.5447,3.6518,3.9121,4.1489,4.2979,4.5036,4.6335,4.6307,4.7909,4.9033,4.9033,5.0157,5.114,5.1731,5.1534,5.1506,5.1787,5.1787,5.2208,5.3107,5.3501,5.3978,5.4569,5.5187,5.5496,5.5496,5.5496,5.499,5.4091,5.3124,5.2479,5.209,5.1239,5.11,5.1596,5.1596,5.1596,5.1596,5.1596,5.1596,5.1596,5.1596,5.1596,5.1596,0.0,0.0,0.0,0.0,0.0,0.0,0.0,0.0,0.0,0.0,0.0,0.0,0.0,0.0,0.0,0.0,0.0,0.0,0.0,0.0,0.0,0.0,0.0,0.0,2.6048,2.6554,2.6863,2.6947,2.8324,2.8689,2.8183,2.8296,2.7846,2.6919,2.6217,0.0,0.0,0.0,0.0,0.0,0.0,0.0,0.0,0.0,0.0,0.0,0.0,0.0,0.0,2.5907,2.5907,2.5853,2.5633,0.0,0.0,0.0,0.0,0.0,0.0,2.8392,2.9442,3.0026,0.0,0.0,0.0,0.0,0.0,0.0,0.0,0.0,3.4259,3.5835,3.7343,3.864,4.0748,4.2694,4.4051,4.4959,4.5605,4.597,4.7797,4.8977,4.878,5.0045,5.1084,5.1618,5.1169,5.114,5.1759,5.1787,5.2377,5.3641,5.3669,5.4007,5.4709,5.5243,5.5496,5.5496,5.5496,5.5187,5.4453,5.3371,5.275,5.2431,5.1355,5.1178,5.1596,5.1596,5.1596,5.1596,5.1596,5.1596,5.1596,5.1596,5.1596,5.1596,0.0,0.0,0.0,0.0,0.0,0.0,0.0,0.0,0.0,0.0,0.0,0.0,0.0,0.0,0.0,0.0,0.0,0.0,0.0,0.0,0.0,0.0,0.0,2.6132,2.6666,2.675,2.7088,2.7621,2.9392,3.0207,3.0122,3.0656,2.9757,2.7565,2.6413,2.5907,0.0,0.0,0.0,0.0,2.5795,0.0,0.0,0.0,0.0,0.0,0.0,0.0,0.0,2.5907,2.5907,2.5907,2.5853,0.0,0.0,0.0,0.0,0.0,2.74,2.829,2.9305,3.0352,3.0618,0.0,0.0,0.0,0.0,0.0,0.0,3.3329,3.5379,3.6396,3.7745,4.0323,4.2642,4.4026,4.3658,4.5099,4.5774,4.4818,4.7263,4.864,4.76,4.9539,5.0916,5.1,5.0916,5.114,5.1759,5.1787,5.2377,5.3641,5.3669,5.4203,5.5355,5.544,5.5496,5.5496,5.5496,5.4926,5.373,5.3571,5.2823,5.1883,5.1628,5.1518,5.1596,5.1596,5.1596,5.1596,5.1596,5.1596,5.1596,5.1596,5.1596,5.1596,0.0,0.0,0.0,0.0,0.0,0.0,0.0,0.0,0.0,0.0,0.0,0.0,0.0,0.0,0.0,0.0,0.0,0.0,0.0,0.0,0.0,0.0,2.5907,2.6188,2.6807,2.7144,2.7959,2.9251,3.0459,3.1218,3.1527,3.0459,2.8998,2.7228,2.6301,2.5907,2.5907,0.0,0.0,0.0,0.0,0.0,0.0,0.0,0.0,0.0,0.0,0.0,0.0,0.0,2.5907,2.5907,2.5907,0.0,0.0,0.0,0.0,0.0,2.7669,2.8529,2.9699,3.1532,3.199,0.0,0.0,0.0,0.0,0.0,3.4499,3.4929,3.6878,3.8269,3.9864,4.2012,4.3315,4.3975,4.4031,4.4734,4.5324,4.5408,4.6982,4.7965,4.774,4.9033,5.0157,5.0831,5.0578,5.0803,5.1731,5.1787,5.2377,5.3641,5.3669,5.4259,5.5496,5.5496,5.5496,5.5496,5.5116,5.4595,5.4082,5.3308,5.27,5.2215,5.1741,5.1596,5.1596,5.1596,5.1596,5.1596,5.1596,5.1596,5.1596,5.1596,5.1596,5.1596,0.0,0.0,0.0,0.0,0.0,0.0,0.0,0.0,0.0,0.0,0.0,0.0,0.0,0.0,0.0,0.0,0.0,0.0,0.0,0.0,2.5907,2.5907,2.5907,2.6245,2.7031,2.7678,2.8914,3.074,3.1246,3.164,3.1921,2.9729,2.8099,2.7003,2.6245,2.5907,2.5907,2.5907,0.0,0.0,0.0,0.0,0.0,0.0,0.0,0.0,0.0,0.0,0.0,0.0,0.0,0.0,0.0,0.0,0.0,0.0,2.6851,2.7391,2.8184,2.9158,3.0487,3.2965,0.0,0.0,3.4519,3.5018,3.5459,3.606,3.6307,3.6962,3.8587,4.0475,4.2182,4.3266,4.361,4.3835,4.4144,4.4312,4.4818,4.5942,4.6869,4.76,4.8078,4.8949,4.9932,5.1,5.0663,5.0916,5.2152,5.2236,5.2742,5.3866,5.3894,5.44,5.5496,5.5496,5.5379,5.5261,5.4762,5.4378,5.4019,5.3078,5.2465,5.2342,5.1846,5.1596,5.1596,5.1596,5.1596,5.1596,5.1596,5.1596,5.1596,5.1596,5.1596,5.1596,0.0,0.0,0.0,0.0,0.0,0.0,0.0,0.0,0.0,0.0,0.0,0.0,0.0,0.0,0.0,0.0,0.0,0.0,0.0,0.0,2.5907,2.5907,2.5907,2.6469,2.7678,2.8324,2.9532,3.1415,3.1471,3.1218,3.0628,2.9307,2.8324,2.765,2.6441,2.5907,2.5907,2.5907,2.5907,0.0,0.0,0.0,0.0,0.0,0.0,0.0,0.0,0.0,0.0,0.0,0.0,0.0,0.0,0.0,0.0,2.6582,2.694,2.7538,2.9066,3.029,3.1771,3.4427,3.3963,0.0,3.6179,3.6503,3.6408,3.7123,3.7783,3.8847,4.0493,4.2663,4.4059,4.3582,4.3975,4.4144,4.3638,4.4059,4.465,4.5324,4.6982,4.8078,4.8134,4.9707,5.1,5.1674,5.1674,5.2208,5.3473,5.3529,5.3838,5.4484,5.4512,5.485,5.5496,5.5496,5.5261,5.4616,5.4497,5.3899,5.2711,5.2588,5.2218,5.1721,5.1596,5.1596,5.1596,5.1596,5.1596,5.1596,5.1596,5.1596,5.1596,5.1596,5.1596,5.1596,0.0,0.0,0.0,0.0,0.0,0.0,0.0,0.0,0.0,0.0,0.0,0.0,0.0,0.0,0.0,0.0,0.0,0.0,0.0,0.0,2.5907,2.5907,2.5907,2.6301,2.7144,2.8183,2.9617,3.1499,3.1864,3.1752,3.1106,2.9448,2.838,2.7734,2.6469,2.5907,2.5907,2.5907,2.5907,2.5907,0.0,0.0,0.0,0.0,0.0,0.0,0.0,0.0,0.0,0.0,0.0,0.0,0.0,0.0,0.0,0.0,2.7332,2.8116,3.0425,3.1527,3.275,3.583,3.599,0.0,3.8243,3.8639,3.8671,3.9285,3.9396,3.9979,4.2133,4.2957,4.3554,4.4481,4.42,4.4031,4.4565,4.4846,4.5493,4.6897,4.7684,4.8415,4.9202,4.9904,5.055,5.1169,5.1562,5.2152,5.3023,5.3445,5.395,5.4569,5.4597,5.4878,5.5496,5.5116,5.4524,5.3926,5.3926,5.3443,5.2588,5.2218,5.1846,5.1596,5.1596,5.1596,5.1596,5.1596,5.1596,5.1596,5.1596,5.1596,5.1596,5.1596,5.1596,5.1596,0.0,0.0,0.0,0.0,0.0,0.0,0.0,0.0,0.0,0.0,0.0,0.0,0.0,0.0,0.0,0.0,0.0,0.0,0.0,0.0,2.5907,2.5907,2.5907,2.6188,2.6807,2.7846,2.9307,3.119,3.1808,3.1583,3.0572,2.9083,2.8183,2.7734,2.6469,2.602,2.616,2.5964,2.5907,2.5907,2.5907,0.0,0.0,0.0,0.0,0.0,0.0,0.0,0.0,0.0,0.0,0.0,0.0,0.0,0.0,0.0,2.7897,2.8881,3.14,3.2681,3.4091,3.7111,0.0,3.8445,4.0294,4.035,4.0182,4.0603,4.0997,4.1699,4.3216,4.3638,4.4088,4.5155,4.4621,4.4509,4.5745,4.5914,4.6532,4.8218,4.8583,4.9117,5.0157,5.0438,5.0803,5.1393,5.204,5.2658,5.3276,5.3894,5.4456,5.485,5.4878,5.5074,5.5496,5.488,5.4259,5.3833,5.347,5.2956,5.2218,5.1846,5.1596,5.1596,5.1596,5.1596,5.1596,5.1596,5.1596,5.1596,5.1596,5.1596,5.1596,5.1596,5.1596,5.1596,0.0,0.0,0.0,0.0,0.0,0.0,0.0,0.0,0.0,0.0,0.0,0.0,0.0,0.0,0.0,0.0,0.0,0.0,0.0,2.5907,2.5907,2.5907,2.5907,2.6188,2.6778,2.7425,2.8661,3.0516,3.1162,3.0516,2.8661,2.8043,2.7762,2.7706,2.6469,2.6217,2.675,2.616,2.5907,2.5907,2.5907,2.5907,0.0,0.0,0.0,0.0,0.0,0.0,0.0,0.0,0.0,0.0,0.0,0.0,0.0,0.0,2.8633,3.001,3.1921,3.3907,3.6036,3.8331,3.9536,4.0503,4.22,4.1615,4.0716,4.0716,4.2683,4.4228,4.361,4.5015,4.6083,4.5436,4.5352,4.5774,4.7038,4.7207,4.7684,4.8921,4.9595,5.0213,5.0831,5.1421,5.204,5.2658,5.3304,5.3922,5.454,5.5159,5.5496,5.5496,5.5496,5.5496,5.5496,5.488,5.4497,5.4497,5.32,5.2218,5.1596,5.1596,5.1596,5.1596,5.1596,5.1596,5.1596,5.1596,5.1596,5.1596,5.1596,5.1596,5.1596,5.1596,5.1596,5.1596,0.0,0.0,0.0,0.0,0.0,0.0,0.0,0.0,0.0,0.0,0.0,0.0,0.0,0.0,0.0,0.0,0.0,0.0,0.0,2.6312,2.6204,2.5907,2.5907,2.5964,2.616,2.6778,2.779,2.9223,2.942,2.9026,2.8043,2.7397,2.7088,2.7059,2.6245,2.5992,2.616,2.5964,2.5907,2.5907,2.5907,2.5907,0.0,0.0,0.0,0.0,0.0,0.0,0.0,0.0,0.0,0.0,0.0,0.0,0.0,2.7137,2.8204,2.9645,3.282,3.4461,3.6115,3.9367,4.0349,4.0851,4.2289,4.2289,4.2036,4.2036,4.2598,4.3469,4.4565,4.4874,4.5324,4.6476,4.6645,4.6926,4.774,4.8218,4.8949,5.0185,5.0494,5.0831,5.145,5.1674,5.1871,5.204,5.3051,5.3754,5.3922,5.4934,5.5496,5.5496,5.5496,5.5496,5.5496,5.4433,5.3833,5.3833,5.2588,5.2094,5.2342,5.1846,5.1596,5.1596,5.1596,5.1596,5.1596,5.1596,5.1596,5.1596,5.1596,5.1596,5.1596,5.1596,5.1596,5.1596,0.0,0.0,0.0,0.0,0.0,0.0,0.0,0.0,0.0,0.0,0.0,0.0,0.0,0.0,0.0,0.0,0.0,0.0,0.0,0.0,2.6549,2.615,2.6312,2.6312,2.615,2.6747,2.723,2.7593,2.8071,2.8015,2.7397,2.7256,2.72,2.7172,2.6807,2.6638,2.6638,2.6357,2.6273,2.6273,2.6273,2.6273,0.0,0.0,0.0,0.0,0.0,0.0,0.0,0.0,0.0,0.0,0.0,0.0,0.0,2.7686,2.9261,3.1246,3.445,3.6332,3.7962,4.0435,4.1446,4.2064,4.3076,4.2739,4.2345,4.2851,4.3329,4.3947,4.4818,4.5464,4.6251,4.7375,4.7572,4.7965,4.9061,4.9539,5.0129,5.1112,5.1253,5.1393,5.1759,5.1787,5.1787,5.1787,5.2967,5.3669,5.3669,5.4821,5.5496,5.5496,5.5496,5.5496,5.5496,5.4405,5.4047,5.4314,5.2711,5.2342,5.2983,5.197,5.1596,5.1596,5.1596,5.1596,5.1596,5.1596,5.1596,5.1596,5.1596,5.1596,5.1596,5.1596,5.1596,5.1596,0.0,0.0,0.0,0.0,0.0,0.0,0.0,0.0,0.0,0.0,0.0,0.0,0.0,0.0,0.0,0.0,0.0,0.0,0.0,0.0,2.6967,2.6549,2.6916,2.6916,2.6496,2.7018,2.6883,2.5907,2.7088,2.7369,2.675,2.7397,2.7678,2.7678,2.7678,2.7678,2.765,2.7003,2.6722,2.6722,2.6722,2.6722,0.0,0.0,0.0,0.0,0.0,0.0,0.0,0.0,0.0,0.0,0.0,2.5938,2.6798,2.8546,3.1048,3.3775,3.6164,3.8636,4.0716,4.1418,4.2598,4.375,4.434,4.3188,4.2289,4.3441,4.4509,4.5127,4.4734,4.6504,4.8078,4.819,4.8246,4.8893,5.0635,5.0916,5.1169,5.1731,5.1787,5.1787,5.1787,5.1787,5.1787,5.1787,5.2967,5.3669,5.3669,5.4821,5.5496,5.5496,5.5496,5.5496,5.5496,5.488,5.4762,5.5379,5.3443,5.2956,5.347,5.2218,5.1596,5.1596,5.1596,5.1596,5.1596,5.1596,5.1596,5.1596,5.1596,5.1596,5.1596,5.1596,5.1596,5.1596,0.0,0.0,0.0,0.0,0.0,0.0,0.0,0.0,0.0,0.0,0.0,0.0,0.0,0.0,0.0,0.0,0.0,0.0,0.0,0.0,2.7458,2.6967,2.7071,2.6916,2.6496,2.664,2.6426,2.5907,2.6638,2.6694,2.6104,2.6722,2.7031,2.7031,2.7031,2.7031,2.6975,2.6357,2.6076,2.6076,2.6076,2.6076,2.6048,0.0,0.0,0.0,0.0,0.0,0.0,0.0,0.0,0.0,2.5798,2.6218,2.6889,2.7844,3.0199,3.3045,3.5012,3.7372,3.9648,4.1221,4.2907,4.4369,4.4987,4.4818,4.4593,4.4874,4.4762,4.5015,4.6364,4.7038,4.7712,4.8696,4.9258,4.9876,5.0747,5.1281,5.1646,5.1759,5.1787,5.1787,5.1787,5.1787,5.1787,5.1787,5.2967,5.3669,5.3669,5.4821,5.5496,5.5496,5.5496,5.5496,5.5496,5.488,5.4616,5.4734,5.3322,5.2711,5.2834,5.197,5.1596,5.1596,5.1596,5.1596,5.1596,5.1596,5.1596,5.1596,5.1596,5.1596,5.1596,5.1596,5.1596,5.1596,0.0,0.0,0.0,0.0,0.0,0.0,0.0,0.0,0.0,0.0,0.0,0.0,0.0,0.0,0.0,0.0,0.0,0.0,0.0,0.0,0.0,2.771,2.756,2.7225,2.6811,2.6811,2.6496,2.5907,2.6217,2.6217,0.0,0.0,0.0,2.6807,0.0,2.7284,2.7256,2.6919,2.6975,2.7228,2.7228,2.7059,2.675,2.6441,0.0,0.0,0.0,0.0,0.0,0.0,0.0,0.0,0.0,0.0,2.7248,2.8535,3.0527,3.3073,3.6107,3.7653,3.9002,4.1474,4.302,4.42,4.5127,4.5577,4.5942,4.6532,4.6167,4.6055,4.7038,4.7937,4.8724,4.937,4.9988,5.0607,5.1225,5.159,5.1787,5.1787,5.1787,5.1787,5.1787,5.1787,5.1787,5.1787,5.2967,5.3669,5.3669,5.4821,5.5496,5.5496,5.5496,5.5496,5.5496,5.5116,5.4998,5.4998,5.4019,5.3322,5.3105,5.2094,5.1596,5.1596,5.1596,5.1596,5.1596,5.1596,5.1596,5.1596,5.1596,5.1596,5.1596,5.1596,5.1596,5.1596,0.0,0.0,0.0,0.0,0.0,0.0,0.0,0.0,0.0,0.0,0.0,0.0,0.0,0.0,0.0,0.0,0.0,0.0,0.0,0.0,0.0,0.0,2.8088,2.769,2.7225,2.7122,2.6759,2.5988,2.5934,0.0,0.0,0.0,0.0,2.6835,0.0,0.0,0.0,2.765,2.7959,2.8521,2.8521,2.824,2.779,2.779,2.7144,2.6217,2.6217,0.0,0.0,0.0,0.0,0.0,0.0,0.0,2.7686,2.9275,3.1048,3.3382,3.7203,3.8299,3.9086,4.2008,4.3132,4.3835,4.5183,4.5914,4.6673,4.8021,4.7712,4.7319,4.7628,4.8836,4.9876,5.0073,5.055,5.1084,5.1702,5.1787,5.1787,5.1787,5.1787,5.1787,5.1787,5.1787,5.1787,5.1787,5.2967,5.3669,5.3669,5.4821,5.5496,5.5496,5.5496,5.5496,5.5496,5.5496,5.5496,5.5496,5.488,5.4166,5.3592,5.2465,5.1846,5.1721,5.1846,5.1846,5.1721,5.1846,5.1846,5.1721,5.1721,5.1721,5.1596,5.1596,5.1596,5.1596,0.0,0.0,0.0,0.0,0.0,0.0,0.0,0.0,0.0,0.0,0.0,0.0,0.0,0.0,0.0,0.0,0.0,0.0,0.0,0.0,0.0,0.0,2.8363,2.8137,2.774,2.7306,2.6864,2.639,2.6042,0.0,0.0,0.0,0.0,2.6807,0.0,0.0,0.0,0.0,2.7312,2.7902,2.7902,2.7846,2.779,2.779,2.7678,2.7537,2.7537,2.7537,2.7453,2.6891,2.6638,0.0,0.0,0.0,2.7759,2.8012,3.0544,3.355,3.5208,3.7934,4.0828,4.2879,4.3441,4.3975,4.5774,4.6223,4.6785,4.8555,4.7993,4.7684,4.9286,4.937,4.9511,5.0578,5.0831,5.1084,5.1702,5.1787,5.1787,5.1787,5.1787,5.1787,5.1787,5.1787,5.1787,5.1787,5.2967,5.3669,5.3669,5.4821,5.5496,5.5496,5.5496,5.5496,5.5496,5.5496,5.5496,5.5496,5.488,5.4166,5.3592,5.347,5.2983,5.2465,5.3105,5.2983,5.2465,5.3105,5.2983,5.2465,5.2465,5.2094,5.1596,5.1596,5.1596,5.1721,0.0,0.0,0.0,0.0,0.0,0.0,0.0,0.0,0.0,0.0,0.0,0.0,0.0,0.0,0.0,0.0,0.0,0.0,0.0,0.0,0.0,0.0,2.8498,2.834,2.7443,2.7549,2.7378,2.6811,0.0,0.0,0.0,2.742,2.751,0.0,0.0,0.0,0.0,0.0,2.7902,2.8802,2.8802,2.9223,2.9757,2.8689,2.8942,2.9729,2.8661,2.8296,2.824,2.7959,2.7621,2.7312,2.7031,0.0,0.0,0.0,3.0207,3.2398,3.5377,3.8131,4.08,4.3357,4.4003,4.4509,4.6392,4.6813,4.7235,4.8724,4.8612,4.8583,4.9735,5.0297,5.0635,5.0831,5.1169,5.1478,5.1759,5.1787,5.1787,5.1787,5.1787,5.1787,5.1787,5.1787,5.1787,5.1787,5.2967,5.3669,5.3669,5.4821,5.5496,5.5496,5.5496,5.5496,5.5496,5.5496,5.5496,5.5496,5.488,5.4524,5.4671,5.4286,5.3806,5.3254,5.3822,5.3958,5.3739,5.4337,5.4256,5.3616,5.3592,5.3263,5.2596,5.2596,5.2932,5.317,0.0,0.0,0.0,0.0,0.0,0.0,0.0,0.0,0.0,0.0,0.0,0.0,0.0,0.0,0.0,0.0,0.0,0.0,0.0,0.0,0.0,0.0,0.0,2.8326,2.7271,2.7636,2.7648,0.0,0.0,0.0,2.7897,2.8253,2.8446,0.0,2.7569,2.7596,0.0,0.0,2.8549,0.0,3.0066,3.0881,3.1612,3.0684,3.1218,3.2202,3.0488,2.9869,2.9757,2.9139,2.8633,2.8183,2.7874,2.8183,0.0,0.0,0.0,3.1864,3.5883,3.8131,4.0041,4.316,4.4059,4.4621,4.6335,4.6869,4.7319,4.8555,4.8808,4.9089,5.0016,5.0944,5.145,5.1169,5.1506,5.1787,5.1787,5.1787,5.1787,5.1787,5.1787,5.1787,5.1787,5.1787,5.1787,5.1787,5.2798,5.3501,5.3669,5.4681,5.5327,5.5496,5.5496,5.5496,5.5496,5.5496,5.5496,5.5496,5.4998,5.4998,5.5496,5.4998,5.4607,5.432,5.4786,5.4937,5.4978,5.5689,5.5607,5.5005,5.4943,5.4485,5.3985,5.3985,5.4252,5.47,0.0,0.0,0.0,0.0,0.0,0.0,0.0,0.0,0.0,0.0,0.0,0.0,2.9515,2.9243,2.9091,2.9091,0.0,0.0,0.0,0.0,0.0,0.0,0.0,0.0,0.0,2.7349,0.0,0.0,0.0,0.0,2.9307,2.9148,2.9433,3.0122,2.8944,2.7854,2.6975,2.8155,2.8689,2.8942,3.1302,3.2286,3.2539,3.4197,3.4899,3.4843,3.355,3.3073,3.2707,3.0347,2.9532,2.9307,2.8155,2.8183,2.8689,0.0,0.0,0.0,3.6136,3.7484,3.8749,4.1896,4.3104,4.3863,4.5127,4.5914,4.6701,4.7909,4.8162,4.8724,5.0494,5.0859,5.1084,5.1646,5.1759,5.1787,5.1787,5.1787,5.1787,5.1787,5.1787,5.1787,5.1787,5.1787,5.1787,5.1787,5.2377,5.3023,5.3641,5.4288,5.4906,5.5468,5.5496,5.5496,5.5496,5.5496,5.5496,5.5496,5.5496,5.5496,5.5496,5.5496,5.5687,5.6248,5.6276,5.6252,5.6292,5.6987,5.6865,5.6292,5.6347,5.5826,5.5328,5.5328,5.5355,5.548,0.0,0.0,0.0,0.0,0.0,0.0,0.0,0.0,0.0,0.0,0.0,0.0,0.0,2.9547,2.9289,2.9137,2.8811,0.0,0.0,0.0,0.0,0.0,0.0,0.0,0.0,0.0,0.0,0.0,0.0,2.8514,2.9191,2.9012,2.895,2.903,2.8684,2.854,2.8605,2.8661,2.9139,3.0101,3.2889,3.4404,3.5135,3.6461,3.7537,3.8173,3.6656,3.5656,3.4815,3.3366,3.2196,3.1246,3.0431,3.0038,2.9954,3.0375,3.1387,3.3073,3.6164,3.7147,3.8159,4.1699,4.3048,4.3919,4.5577,4.642,4.7122,4.7965,4.8443,4.8921,4.9567,5.0354,5.1084,5.1674,5.1787,5.1787,5.1787,5.1787,5.1787,5.1787,5.1787,5.1787,5.1787,5.1787,5.1787,5.1787,5.2349,5.2995,5.3641,5.4259,5.4878,5.5468,5.5496,5.5496,5.5496,5.5496,5.5496,5.5496,5.5496,5.5496,5.5524,5.5917,5.6451,5.7069,5.7463,5.7622,5.7601,5.8267,5.8183,5.7629,5.7522,5.7161,5.6581,5.6581,5.6828,5.7229,0.0,0.0,0.0,0.0,0.0,0.0,0.0,0.0,0.0,2.9902,0.0,0.0,0.0,0.0,2.956,2.9412,2.9091,2.9137,2.9605,2.9502,0.0,0.0,0.0,0.0,0.0,0.0,0.0,0.0,0.0,0.0,0.0,2.9012,2.8906,2.882,2.8595,2.8683,2.8998,2.8998,2.9364,3.0242,3.4514,3.5996,3.5975,3.8501,3.9857,4.0124,3.8615,3.794,3.7479,3.6193,3.5074,3.4028,3.2792,3.1696,3.0965,3.1612,3.2089,3.2988,3.5658,3.6529,3.7428,4.0547,4.2261,4.3582,4.5015,4.6307,4.7319,4.774,4.8302,4.8808,4.9005,4.9707,5.0522,5.1337,5.1646,5.1787,5.1787,5.1787,5.1787,5.1787,5.1787,5.1787,5.1787,5.1787,5.1787,5.1787,5.2152,5.2686,5.3304,5.395,5.4653,5.5468,5.5496,5.5496,5.5496,5.5496,5.5496,5.5496,5.5496,5.5496,5.5524,5.6142,5.676,5.7407,5.8025,5.8418,5.8643,5.9036,5.898,5.8643,5.8537,5.8328,5.7994,5.7994,5.8244,5.8522,0.0,0.0,0.0,0.0,0.0,0.0,0.0,0.0,2.9902,2.9902,0.0,0.0,0.0,0.0,0.0,2.9902,2.9858,2.9858,2.9902,2.9902,0.0,0.0,0.0,0.0,0.0,0.0,0.0,0.0,0.0,0.0,0.0,0.0,2.9264,2.9612,2.8791,2.8226,2.7902,2.9139,2.9336,2.9431,3.6061,3.6997,3.4961,4.0479,4.1897,4.0802,3.9645,3.9956,4.0576,3.8718,3.8042,3.7484,3.5012,3.3016,3.1696,3.223,3.2426,3.282,0.0,0.0,0.0,3.8355,4.0688,4.2683,4.3329,4.538,4.7178,4.7207,4.7684,4.8302,4.8921,4.9033,4.9426,5.0635,5.1337,5.1759,5.1759,5.1787,5.1787,5.1787,5.1787,5.1787,5.1759,5.1787,5.1787,5.1759,5.1787,5.204,5.2686,5.3332,5.4231,5.544,5.5468,5.5468,5.5496,5.5496,5.5496,5.5496,5.5496,5.5496,5.5524,5.617,5.6788,5.7407,5.8053,5.8671,5.9205,5.9205,5.9205,5.9205,5.9205,5.9205,5.9205,5.9205,5.9205,5.9205,0.0,0.0,0.0,0.0,0.0,0.0,0.0,0.0,2.9902,0.0,0.0,0.0,2.9902,2.9726,2.9681,2.9858,2.9547,2.9502,2.9858,2.9726,2.9359,2.8822,2.8595,2.8456,0.0,0.0,0.0,0.0,0.0,0.0,0.0,0.0,0.0,0.0,2.7955,2.8225,2.9167,3.0431,3.1387,3.2438,3.7317,3.9161,3.9589,4.4088,4.6048,4.6251,4.6622,4.5873,4.4571,4.2767,4.0931,3.876,3.53,3.3888,3.3326,3.2623,3.2707,3.3269,3.4225,0.0,0.0,0.0,0.0,0.0,4.2598,4.4762,4.6673,4.7122,4.7684,4.8162,4.8359,4.8752,4.9145,4.9483,5.0438,5.114,5.114,5.1506,5.1787,5.1787,5.1787,5.1618,5.1169,5.1534,5.1618,5.1169,5.1534,5.204,5.2686,5.3332,5.4035,5.4821,5.485,5.5046,5.5496,5.5496,5.5496,5.5496,5.5496,5.5496,5.5552,5.662,5.721,5.7435,5.8502,5.9064,5.9205,5.9205,5.9205,5.9205,5.9205,5.9205,5.9205,5.9205,5.9205,5.9205,0.0,0.0,0.0,0.0,0.0,0.0,0.0,3.0117,3.0312,0.0,0.0,0.0,3.0733,3.0932,3.0822,3.0376,3.0206,3.0224,3.0344,3.0055,2.9817,2.9565,2.8984,2.863,2.863,0.0,0.0,0.0,0.0,0.0,0.0,0.0,0.0,0.0,0.0,2.8971,3.1031,3.2139,3.2904,3.3776,3.9268,4.1156,4.1288,4.5708,4.7546,4.7751,4.8039,4.7516,4.6661,4.6381,4.4146,4.1011,3.856,3.6476,3.4815,3.3831,3.3635,3.3775,3.414,3.4506,3.5068,3.6304,0.0,0.0,4.2121,4.3891,4.5521,4.6926,4.7488,4.774,4.774,4.8246,4.8668,4.8668,4.9483,5.0213,5.0466,5.1028,5.1393,5.1393,5.1646,5.1646,5.1281,5.1337,5.1365,5.1253,5.1337,5.1787,5.2658,5.3051,5.3669,5.4569,5.4597,5.4878,5.5496,5.5496,5.5496,5.5496,5.5496,5.5636,5.5917,5.6929,5.7519,5.7828,5.8812,5.9205,5.9205,5.9205,5.9205,5.9205,5.9205,5.9205,5.9205,5.9205,5.9205,5.9205,0.0,0.0,0.0,0.0,0.0,0.0,0.0,3.0635,0.0,0.0,3.1075,3.1445,3.2158,3.274,3.2579,3.1283,3.1533,3.155,3.1043,3.0858,3.0765,3.0637,2.9387,2.865,2.8586,2.7731,0.0,0.0,0.0,0.0,0.0,0.0,0.0,0.0,0.0,0.0,3.2757,3.3873,3.4297,3.4825,4.143,4.2952,4.1751,4.633,4.7918,4.763,4.7169,4.7286,4.7941,4.9425,4.7207,4.3671,4.3105,4.002,3.6416,3.5592,3.4871,3.4393,3.4197,3.4197,3.4506,3.5686,3.6894,0.0,4.1502,4.2739,4.3947,4.6223,4.6869,4.701,4.701,4.7516,4.7937,4.8021,4.8471,4.9089,4.9764,5.0382,5.0775,5.0775,5.1253,5.159,5.159,5.1169,5.1056,5.1534,5.114,5.1393,5.2545,5.2545,5.3079,5.4344,5.4372,5.4709,5.5383,5.5468,5.5496,5.5496,5.5496,5.5833,5.6451,5.7097,5.7716,5.8334,5.8952,5.9205,5.9205,5.9205,5.9205,5.9205,5.9205,5.9205,5.9205,5.9205,5.9205,5.9205,0.0,0.0,0.0,0.0,0.0,0.0,0.0,0.0,3.1801,3.1801,3.2287,3.2935,3.3615,3.3323,3.2967,3.2708,3.2757,3.253,3.1834,3.2304,3.2063,3.09,3.0577,3.0158,2.962,2.9415,2.9327,0.0,0.0,0.0,0.0,0.0,0.0,0.0,0.0,0.0,3.1905,3.4043,3.691,4.0169,4.2672,4.4137,4.5293,4.9434,5.1438,5.2204,5.3198,5.3095,5.2115,5.0558,4.8122,4.5404,4.3877,4.1731,3.9283,3.6669,3.5798,3.5377,3.3916,3.3859,3.4421,3.5152,3.6248,0.0,3.9226,4.0828,4.2261,4.3273,4.4678,4.5689,4.5689,4.6223,4.6813,4.7319,4.7488,4.7965,4.9061,4.9735,5.0129,5.0129,5.0241,5.0326,5.0326,5.0663,5.0719,5.0354,5.0663,5.1197,5.1927,5.1506,5.1787,5.3023,5.3079,5.3613,5.4737,5.5271,5.5496,5.5496,5.5496,5.5833,5.6451,5.7097,5.7716,5.8334,5.8952,5.9205,5.9205,5.9205,5.9205,5.9205,5.9205,5.9205,5.9205,5.9205,5.9205,5.9205,0.0,0.0,0.0,0.0,0.0,0.0,0.0,0.0,3.2935,3.4003,3.5072,3.5882,3.6206,3.5946,3.559,3.5234,3.5421,3.5142,3.423,3.4355,3.3802,3.2386,3.1645,3.0937,3.0229,2.9919,2.9726,0.0,0.0,0.0,0.0,0.0,0.0,0.0,0.0,3.303,3.5525,3.6691,3.9179,4.2421,4.4482,4.6793,4.9128,5.1579,5.3102,5.392,5.4244,5.4406,5.4241,5.2229,4.9983,4.782,4.6691,4.4414,4.1671,3.9479,3.7962,3.6641,3.5124,3.4253,3.4,3.4927,3.5677,0.0,0.0,4.0041,4.0884,4.1502,4.3132,4.4312,4.4003,4.4987,4.5914,4.6223,4.6813,4.7207,4.7178,4.8527,4.9511,4.9511,4.9764,4.9848,4.9539,5.0073,5.041,5.041,5.0972,5.145,5.1759,5.1197,5.1421,5.2658,5.2714,5.3304,5.4569,5.5187,5.5496,5.5496,5.5496,5.6002,5.6901,5.7238,5.7884,5.8783,5.9093,5.9205,5.9205,5.9205,5.9205,5.9205,5.9205,5.9205,5.9205,5.9205,5.9205,5.9205,0.0,0.0,0.0,0.0,0.0,0.0,0.0,0.0,3.4522,3.6821,3.8213,3.912,3.9379,3.9541,3.9379,3.8829,3.9049,3.8792,3.763,3.7247,3.6428,3.4973,3.3476,3.232,3.1518,3.0573,3.0183,3.0279,0.0,0.0,0.0,0.0,0.0,0.0,3.4222,3.5978,3.9204,4.0098,4.1901,4.4364,4.7106,4.9677,5.2167,5.3375,5.4228,5.4729,5.3984,5.447,5.5164,5.3671,5.1959,5.0302,4.9614,4.7182,4.4216,4.2317,4.0379,3.846,3.6887,3.5236,3.4281,3.5405,3.5686,3.6388,0.0,0.0,0.0,4.0266,4.184,4.2935,4.2345,4.3638,4.4706,4.4481,4.5605,4.6055,4.479,4.6645,4.8274,4.864,4.9117,4.9314,4.9061,4.9904,5.0494,5.0522,5.1421,5.1871,5.1618,5.0916,5.114,5.2489,5.2405,5.3023,5.44,5.5018,5.5383,5.5496,5.5496,5.617,5.7378,5.7378,5.8053,5.9205,5.9205,5.9205,5.9205,5.9205,5.9205,5.9205,5.9205,5.9205,5.9205,5.9205,5.9205,5.9205,3.0162,2.9902,0.0,0.0,0.0,0.0,0.0,0.0,3.6918,3.9671,4.0707,4.1678,4.2974,4.3686,4.4043,4.3945,4.401,4.346,4.2067,4.1876,4.0938,3.8958,3.7413,3.6023,3.4748,3.3058,3.2096,3.1769,0.0,0.0,0.0,0.0,0.0,3.2665,3.5615,3.7391,3.847,4.2922,4.6437,4.9171,5.0891,5.2113,5.3128,5.4857,5.5854,5.6154,5.5442,5.528,5.5343,5.4585,5.3495,5.2027,5.036,4.933,4.7846,4.3743,4.2393,4.159,3.8488,3.7147,3.6726,3.7428,3.7597,3.7821,3.8749,0.0,3.9648,3.917,0.0,4.1643,4.1025,0.0,0.0,4.1418,4.2739,4.3469,4.2205,4.3722,4.5549,4.7207,4.7488,4.7909,4.8949,5.1084,5.1506,4.9398,5.1337,5.2124,5.1028,4.9876,5.0045,5.1843,5.1365,5.1955,5.3754,5.4372,5.4962,5.5496,5.5496,5.617,5.7378,5.7378,5.8053,5.9205,5.9205,5.9205,5.9205,5.9205,5.9205,5.9205,5.9205,5.9205,5.9205,5.9205,5.9205,5.9205,3.1218,3.1121,0.0,0.0,0.0,0.0,0.0,0.0,4.0415,4.1614,4.2747,4.3978,4.5403,4.5435,4.5726,4.6601,4.6666,4.6212,4.5176,4.5111,4.3783,4.0836,3.9314,3.7695,3.5882,3.3903,3.2837,3.2643,3.1709,0.0,0.0,0.0,0.0,3.5198,3.8029,4.0302,4.2283,4.5462,4.8573,5.1268,5.2002,5.4001,5.6493,5.6328,5.6344,5.651,5.664,5.6672,5.6621,5.637,5.5516,5.4421,5.307,5.1869,5.0385,4.7203,4.5316,4.384,4.1702,4.0746,4.031,3.9702,4.0205,4.0596,3.9673,3.9873,3.9929,3.858,0.0,0.0,0.0,0.0,0.0,0.0,4.2514,4.3048,4.1783,4.2626,4.4031,4.5886,4.6448,4.7291,4.8893,5.0297,5.0691,4.9651,5.1197,5.1646,5.041,4.9511,4.9567,5.0691,5.0831,5.159,5.3107,5.4091,5.4709,5.499,5.5693,5.6311,5.6845,5.7575,5.839,5.9205,5.9205,5.9205,5.9205,5.9205,5.9205,5.9205,5.9205,5.9205,5.9205,5.9205,5.9205,5.9205,3.3161,0.0,0.0,0.0,0.0,0.0,0.0,4.0998,4.2715,4.3719,4.4917,4.6212,4.7605,4.8134,4.886,4.9935,5.0391,5.0294,4.9544,4.9011,4.741,4.4625,4.2359,4.0383,3.8667,3.5893,3.4406,3.423,3.2944,0.0,0.0,0.0,0.0,0.0,3.9914,4.2695,4.528,4.8169,5.1026,5.3458,5.3814,5.5915,5.8759,5.7506,5.6964,5.6867,5.7385,5.7579,5.7611,5.7431,5.6873,5.5969,5.4882,5.3723,5.2264,4.9814,4.7845,4.6121,4.4434,4.3783,4.3283,4.2044,4.2363,4.2682,4.1169,4.0884,4.0463,3.8777,3.9507,0.0,0.0,0.0,4.0378,3.9704,0.0,4.1418,3.9816,4.0716,4.2374,4.4565,4.5549,4.6701,4.8387,4.9848,5.0354,4.9511,5.1393,5.1731,4.982,4.9286,4.9314,4.9932,5.0382,5.1197,5.2433,5.3697,5.4428,5.4597,5.5833,5.6507,5.6704,5.78,5.8643,5.9205,5.9205,5.9205,5.9205,5.9205,5.9205,5.9205,5.9205,5.9205,5.9205,5.9205,5.9205,5.9205,3.6011,3.3939,3.2449,3.3841,3.4683,3.6594,4.0836,4.1549,4.2844,4.6277,4.7443,4.8447,4.9839,5.3006,5.4985,5.5018,5.6336,5.6863,5.6105,5.4248,5.2754,5.1912,4.7831,4.5273,4.4528,4.0144,3.7608,3.7177,3.5218,3.4541,0.0,0.0,0.0,0.0,4.0704,4.3699,4.5763,5.1229,5.4645,5.6459,5.7451,5.8149,5.8561,5.8583,5.813,5.7547,5.7579,5.7579,5.7506,5.6942,5.6709,5.6341,5.4667,5.4177,5.3516,5.0223,4.931,4.8711,4.5959,4.524,4.5071,4.4453,4.3863,4.3413,4.3385,4.2458,4.1221,3.9985,3.976,3.9255,3.74,3.7597,3.7231,3.4871,3.6501,0.0,0.0,3.7063,4.0126,4.3188,4.4621,4.5858,4.715,5.0522,5.1393,4.8415,5.2096,5.2911,4.9258,4.9061,4.9314,4.9932,4.9988,5.0578,5.1815,5.3079,5.4007,5.4597,5.5833,5.676,5.7378,5.8025,5.8643,5.9205,5.9205,5.9205,5.9205,5.9205,5.9205,5.9205,5.9205,5.9205,5.9205,5.9205,5.9205,5.9205,0.0,3.5525,3.5137,3.6076,3.6821,3.844,4.1776,4.4302,4.6543,4.8617,5.0358,5.1915,5.3268,5.4449,5.5395,5.5821,5.6829,5.7296,5.703,5.5952,5.4853,5.3639,4.9473,4.6698,4.55,4.1682,3.9101,3.8019,3.6662,3.5721,0.0,0.0,0.0,0.0,4.0751,4.4433,4.8095,5.1296,5.4992,5.868,5.8991,5.9734,6.0591,5.9166,5.8777,5.9036,5.9522,6.0008,6.0308,6.0141,5.9873,5.9344,5.8208,5.7277,5.6238,5.3736,5.2121,5.073,4.9034,4.8951,4.8724,4.6715,4.7404,4.8011,4.5814,4.4678,4.3835,4.302,4.1868,4.0688,3.9648,3.9283,3.8608,3.6922,3.7344,3.7456,0.0,3.695,3.8327,4.021,4.1868,4.3863,4.6364,4.8471,4.9089,4.7628,5.0016,5.0607,4.8555,4.8443,4.8724,4.9342,4.9735,5.0354,5.1169,5.2826,5.3782,5.4007,5.5636,5.6535,5.6788,5.7828,5.8643,5.9205,5.9205,5.9205,5.9205,5.9205,5.9205,5.9205,5.9205,5.9205,5.9205,5.9205,5.9205,5.9205,3.7371,3.7242,3.7177,3.763,3.8926,4.0869,4.3719,4.6741,4.9169,5.0542,5.2539,5.415,5.5013,5.6001,5.6785,5.7291,5.8234,5.8968,5.9165,5.7918,5.685,5.6297,5.24,4.971,4.8512,4.4723,4.2067,4.0675,3.8753,3.7374,0.0,0.0,0.0,0.0,4.1295,4.5239,4.9815,5.1965,5.5493,5.9716,5.9716,6.0558,6.1627,6.0008,6.0008,6.0882,6.1077,6.1433,6.1821,6.1821,6.1639,6.1202,6.0483,5.937,5.7966,5.6249,5.4626,5.3136,5.1925,5.1578,5.1078,4.9136,4.9366,4.9495,4.7532,4.6208,4.5391,4.5127,4.3413,4.184,4.1446,4.0322,3.9198,3.8383,3.8046,3.7681,0.0,3.6416,3.6641,3.8327,3.9957,4.2374,4.5942,4.7403,4.7965,4.7572,4.9454,4.9876,4.8218,4.8331,4.864,4.9033,4.9426,4.9932,5.055,5.218,5.322,5.3697,5.5524,5.6535,5.6816,5.8053,5.884,5.9205,5.9205,5.9205,5.9205,5.9205,5.9205,5.9205,5.9205,5.9205,5.9205,5.9205,5.9205,5.9205,3.9444,3.9055,3.8634,3.8796,4.1031,4.3783,4.6504,4.8849,5.0711,5.2131,5.4133,5.5429,5.5425,5.7853,5.9507,5.9507,6.0762,6.1849,6.2628,6.0107,5.8954,5.9739,5.6316,5.4146,5.3434,4.9224,4.6342,4.4885,4.1419,3.9527,0.0,0.0,0.0,0.0,4.2237,4.6051,5.0968,5.3341,5.6478,5.9781,5.9814,6.0656,6.1854,6.1174,6.1789,6.2955,6.2145,6.1886,6.1919,6.1919,6.1886,6.1763,6.1302,6.0248,5.8946,5.7684,5.6777,5.5782,5.4446,5.3278,5.225,5.1571,4.9795,4.8281,4.8524,4.7149,4.5949,4.6405,4.4546,4.2801,4.2683,4.0773,3.9112,3.8917,3.8327,3.7625,3.7035,3.5377,3.5124,3.7512,3.8945,4.1418,4.5745,4.7207,4.7937,4.8021,5.0297,5.0663,4.8246,4.8752,4.9117,4.9033,4.9061,4.937,4.996,5.1169,5.2433,5.3697,5.5496,5.6732,5.7435,5.8615,5.9177,5.9205,5.9205,5.9205,5.9205,5.9205,5.9205,5.9205,5.9205,5.9205,5.9205,5.9205,5.9205,5.9205,4.0998,4.1322,4.2229,4.4334,4.5305,4.6245,4.7508,5.0994,5.3889,5.5001,5.7137,5.89,5.9624,6.035,6.0799,6.0799,6.1693,6.2341,6.2569,6.0998,6.0351,6.1152,5.7315,5.5053,5.4891,5.1199,4.8317,4.6342,4.417,4.2494,4.1372,0.0,0.0,0.0,4.3305,4.6757,5.2268,5.3439,5.6485,6.0558,6.1077,6.2145,6.3376,6.2631,6.357,6.506,6.3246,6.2987,6.3441,6.3441,6.3084,6.2599,6.2506,6.18,6.0967,6.0291,5.8843,5.7246,5.6495,5.5206,5.3766,5.1884,5.1699,5.1495,4.9839,4.8753,4.8268,4.8824,4.6946,4.5011,4.4372,4.3012,4.1425,3.9872,3.8243,3.7007,3.6388,3.5124,3.4815,3.636,3.8046,4.0463,4.3891,4.4509,4.5268,4.6673,4.9033,4.9764,4.8218,4.9567,4.9988,4.9061,4.9483,4.9792,4.996,5.1169,5.2433,5.3697,5.5074,5.6311,5.7407,5.8193,5.8907,5.9606,5.9329,5.9329,5.9606,5.9329,5.9205,5.9205,5.9205,5.9205,5.9205,5.9205,5.9205,5.9205,4.3427,4.4269,4.5694,4.7896,4.9458,5.0462,5.0739,5.3665,5.6244,5.7423,5.9315,6.0887,6.1747,6.2144,6.2427,6.2772,6.3186,6.36,6.3727,6.2353,6.1908,6.2838,5.9842,5.8133,5.8133,5.5005,5.2137,4.9693,4.7475,4.5456,4.3749,0.0,0.0,0.0,4.6237,4.9224,5.4019,5.5983,5.8765,6.1724,6.1789,6.2696,0.0,6.3538,6.4315,6.5513,6.4606,6.4574,6.493,6.493,6.4445,6.3829,6.3829,6.3117,6.2183,6.1999,6.0793,5.9529,5.9251,5.7715,5.6028,5.4786,5.4152,5.3414,5.1549,5.061,5.015,5.0239,4.8681,4.727,4.7275,4.5987,4.4429,4.2547,4.0407,3.8805,3.8187,3.7035,3.6529,3.7203,3.7737,3.9255,4.2374,4.4144,4.5549,4.6616,4.8724,4.9539,4.8583,4.9764,5.0045,4.9061,4.9981,5.0424,4.996,5.1384,5.2543,5.3669,5.4906,5.6288,5.7648,5.8551,5.9267,5.9948,5.9702,5.9702,5.973,5.9482,5.9329,5.9205,5.9205,5.9205,5.9205,5.9205,5.9205,5.9205,4.6504,4.7582,4.8985,5.0538,5.3294,5.5381,5.5447,5.6962,5.8538,5.9944,6.1359,6.2522,6.3273,6.3789,6.4329,6.4957,6.4991,6.5117,6.5508,6.3922,6.3362,6.4458,6.2825,6.191,6.1695,5.9098,5.6369,5.3634,5.101,4.8706,0.0,0.0,0.0,0.0,4.9969,5.2495,5.6057,5.949,6.1692,6.2825,6.2307,6.2923,6.4153,6.4153,6.4639,6.5384,6.6031,6.6193,6.6096,6.6096,6.5675,6.5157,6.5157,6.425,6.3182,6.3182,6.2599,6.1951,6.1951,6.0404,5.8677,5.8395,5.6682,5.4698,5.3114,5.2375,5.1748,5.1091,4.9953,4.9338,5.0161,4.8752,4.6995,4.5633,4.3497,4.1755,4.1137,3.9929,3.9114,3.9114,3.8215,0.0,4.1474,4.4678,4.6729,4.7066,4.9033,4.9848,4.9089,4.9848,4.9932,4.9061,5.0255,5.0812,5.0431,5.1463,5.2678,5.4036,5.5106,5.6378,5.786,5.9135,5.9948,6.0316,6.0194,6.0071,5.9853,5.9825,5.9578,5.9205,5.9205,5.9205,5.9205,5.9205,5.9205,5.9205,5.0131,5.0768,5.1855,5.403,5.6516,5.8973,6.14,6.1981,6.2648,6.3811,6.5221,6.6348,6.7155,6.7039,6.683,6.6598,6.638,6.6229,6.6294,6.5147,6.4563,6.4801,6.4031,6.2933,6.1829,6.0192,5.8216,5.5897,5.4291,5.2948,0.0,0.0,0.0,0.0,5.2657,5.4729,5.8227,6.0623,6.2113,6.2923,6.3441,6.4121,6.4833,6.4833,6.5675,6.6841,6.6938,6.6614,6.6096,6.6096,6.6031,6.5934,6.5934,6.5319,6.4639,6.4639,6.3732,6.2696,6.2696,6.1989,6.0747,5.8741,5.799,5.684,5.3839,5.3025,5.2702,5.1686,5.0702,4.9997,4.9552,4.8011,4.6753,4.6139,4.4874,4.3722,4.3076,4.1474,4.0378,4.0378,4.0631,4.1221,4.2317,4.302,4.4228,4.6307,4.9567,5.0747,4.9117,5.1056,5.1253,4.9117,4.9258,5.0481,5.2646,5.1158,5.2254,5.6023,5.5992,5.6759,5.8246,5.9501,6.0316,6.056,6.0316,6.0316,6.0438,6.0194,5.9948,5.9606,5.9606,5.9482,5.9205,5.9205,5.9205,5.9205,5.403,5.474,5.5606,5.7423,6.0035,6.2266,6.3655,6.5303,6.632,6.616,6.6686,6.7631,6.8968,6.9254,6.9582,7.0231,7.0148,6.9736,6.8992,6.803,6.7359,6.7211,6.5754,6.483,6.4539,6.2799,6.0639,5.8133,5.7456,5.6413,5.4956,5.4988,5.5377,5.6122,5.6867,5.8356,6.0397,6.2178,6.3149,6.3538,6.425,6.4736,6.506,6.5448,6.6258,6.723,6.7586,6.7489,6.7197,6.7197,6.6971,6.6679,6.6679,6.6161,6.5513,6.5125,6.4542,6.3926,6.357,6.2923,6.2118,6.0949,6.0376,5.937,5.6528,5.5873,5.5184,5.2902,5.2387,5.2,5.0904,4.9696,4.8653,4.8141,4.7221,4.622,4.5261,4.4265,4.3469,4.3132,4.3357,4.3526,4.3526,4.4116,4.5268,4.7094,4.9764,5.0663,4.9117,5.1084,5.1253,4.9117,4.9756,5.0763,5.1976,5.1626,5.267,5.5225,5.588,5.708,5.8574,5.9864,6.0681,6.0952,6.0802,6.0681,6.0681,6.0316,6.0071,5.9948,5.973,5.9606,5.9482,5.9482,5.9482,5.9482,5.7808,5.871,5.9621,6.0904,6.334,6.5267,6.5514,6.7971,6.9422,6.8204,6.8334,6.9157,7.0891,7.1673,7.2364,7.3352,7.3263,7.2617,7.1296,7.0622,6.9923,6.9322,6.7919,6.7078,6.7112,6.5295,6.3082,6.0571,6.0131,5.8777,5.651,5.7547,5.8421,5.9134,6.0299,6.1336,6.234,6.3505,6.4088,6.4283,6.4995,6.5254,6.5319,6.6064,6.6776,6.7489,6.8007,6.8201,6.8201,6.8201,6.7845,6.7392,6.7392,6.6906,6.6226,6.5643,6.5384,6.5092,6.4412,6.3797,6.3279,6.2955,6.2469,6.1418,5.9185,5.8715,5.7684,5.4207,5.3435,5.3077,5.2174,5.1184,5.0538,5.0452,4.9291,4.8283,4.7644,4.7038,4.6448,4.5898,4.5717,4.5549,4.5043,4.6139,4.7319,4.8443,4.9848,5.0269,4.9286,5.0854,5.1107,4.9784,5.0614,5.1456,5.2169,5.2352,5.32,5.4825,5.5937,5.7311,5.8927,6.0225,6.0952,6.1193,6.1193,6.1073,6.0802,6.056,6.0316,6.0316,5.9948,5.9853,5.9853,5.9853,5.9853,5.9702,6.074,6.205,6.3379,6.4346,6.6075,6.7796,6.9212,7.0522,7.1408,7.1302,7.2153,7.3283,7.4574,7.5023,7.4876,7.4008,7.327,7.25,7.1628,7.1444,7.0717,6.9381,7.0407,6.9804,6.7229,6.6356,6.5167,6.3606,6.1629,5.9263,5.6543,5.8551,5.9911,6.0591,6.072,6.1919,6.3829,6.3959,6.438,6.4995,6.5708,6.5999,6.6096,6.6809,6.7521,6.8104,6.8169,6.8201,6.8201,6.8201,6.8169,6.8104,6.8104,6.7618,6.7068,6.7003,6.6517,6.5837,6.5125,6.4898,6.4509,6.3214,6.2825,6.2289,6.0519,6.0139,5.8969,5.4964,5.2457,5.1178,5.1689,5.0738,5.0509,5.2137,5.0039,4.8675,5.0178,4.8946,4.7813,4.7461,4.7208,4.701,4.6954,4.8021,4.9033,4.9735,4.9932,4.9988,4.9876,5.0791,5.1569,5.1966,5.1003,5.2402,5.6277,5.3115,5.3309,5.7017,5.6936,5.7686,5.9335,6.0613,6.1193,6.1193,6.1193,6.1193,6.1193,6.1073,6.0952,6.0681,6.056,6.0438,6.0194,6.0194,6.0194,6.0194,6.3823,6.5093,6.6282,6.7165,6.8823,7.0272,7.0876,7.1765,7.2513,7.3012,7.3902,7.4538,7.4784,7.6193,7.676,7.5849,7.5861,7.5324,7.3818,7.3505,7.2914,7.1827,7.1429,7.0648,6.959,6.8557,6.7382,6.5946,6.4638,6.3195,6.1655,6.2068,6.2437,6.2761,6.3149,6.3829,6.4639,6.5092,6.5416,6.5708,6.5999,6.6355,6.6776,6.7068,6.7618,6.8201,6.8201,6.8201,6.8201,6.8201,6.8201,6.8201,6.8201,6.8007,6.7715,6.7294,6.6971,6.6614,6.5869,6.5675,6.5448,6.4412,6.4185,6.3768,6.2231,6.1848,6.0961,5.7837,5.4577,5.217,5.2265,5.1857,5.1626,5.2001,5.123,5.0538,5.0456,4.9592,4.8861,4.8708,4.8816,4.8658,4.7998,4.9277,5.0009,4.9634,5.122,5.1952,5.1434,5.1863,5.2594,5.3656,5.1534,5.2209,5.6049,5.3217,5.3633,5.7107,5.7078,5.8089,5.9858,6.0787,6.1193,6.1193,6.1193,6.1193,6.1193,6.1193,6.1073,6.0952,6.0802,6.056,6.056,6.056,6.056,6.056,6.7165,6.8151,6.9067,6.9848,7.1124,7.2191,7.2655,7.3155,7.3869,7.4903,7.5724,7.5968,7.5418,7.7298,7.8292,7.7476,7.7823,7.744,7.5787,7.5555,7.4865,7.3628,7.2914,7.222,7.1594,7.0496,6.939,6.8417,6.7101,6.5634,6.4134,6.3193,6.3311,6.4315,6.4606,6.4963,6.5384,6.5902,6.6096,6.6129,6.655,6.6906,6.7197,6.7424,6.778,6.8201,6.8201,6.8201,6.8201,6.8201,6.8201,6.8201,6.8201,6.8201,6.8104,6.7618,6.7489,6.7327,6.6614,6.642,6.6258,6.5513,6.5189,6.4768,6.3732,6.3344,6.2579,6.036,5.68,5.4029,5.3435,5.3026,5.253,5.2194,5.1799,5.1436,5.0991,5.0325,4.9859,5.0161,5.0521,5.0416,4.9518,5.0861,5.1152,4.9916,5.2169,5.3103,5.1768,5.2509,5.3295,5.3818,5.2366,5.2766,5.539,5.3884,5.4425,5.6993,5.7393,5.8523,6.0206,6.0874,6.1193,6.1193,6.1193,6.1193,6.1193,6.1193,6.1193,6.1193,6.0952,6.0831,6.0831,6.0831,6.0831,6.0952,7.0912,7.141,7.187,7.262,7.2762,7.3333,7.4903,7.5189,7.5724,7.7259,7.8151,7.8329,7.7544,7.8936,7.9578,7.8757,7.8299,7.7788,7.6894,7.7168,7.6327,7.4124,7.5379,7.5098,7.2851,7.1641,7.1026,7.1026,6.8485,6.5434,6.1943,6.0424,6.166,6.4995,6.4315,6.4801,6.6096,6.6096,6.6096,6.6226,6.7618,6.778,6.7262,6.7942,6.8201,6.8201,6.8201,6.8201,6.8201,6.8201,6.8201,6.8201,6.8201,6.8201,6.8201,6.8201,6.8201,6.8039,6.7359,6.7165,6.7003,6.629,6.5546,6.5027,6.4995,6.4477,6.3482,6.1725,5.8902,5.6383,5.5361,5.3883,5.297,5.3373,5.1523,5.0542,5.2368,5.1506,5.1127,5.2099,5.2492,5.2423,5.1766,5.2852,5.2823,5.0938,5.2566,5.2687,5.0521,5.2487,5.3159,5.2243,5.3366,5.4396,5.5416,5.5089,5.5695,5.7303,5.7971,5.8958,6.0206,6.0874,6.1193,6.1193,6.1193,6.1193,6.1193,6.1193,6.1193,6.1193,6.1193,6.1193,6.1193,6.1193,6.1193,6.1193,7.2228,7.2798,7.3512,7.4297,7.4903,7.5581,7.6616,7.6759,7.6937,7.7437,7.8186,7.8579,7.8329,7.9257,7.9364,7.8008,7.8289,7.8176,7.7393,7.7418,7.7127,7.6417,7.6611,7.6384,7.5642,7.4938,7.4612,7.4612,7.2271,6.9356,6.5902,6.5198,6.5465,6.6485,6.629,6.6679,6.7489,6.7035,6.71,6.7521,6.7521,6.7651,6.791,6.8104,6.8201,6.8201,6.8201,6.8201,6.8201,6.8201,6.8201,6.8201,6.8201,6.8201,6.8201,6.8201,6.8201,6.8136,6.7942,6.7877,6.7715,6.7003,6.6679,6.6258,6.5254,6.4088,6.2869,6.1662,5.9886,5.8308,5.7702,5.5832,5.451,5.4624,5.2661,5.1121,5.1265,5.0414,4.9896,5.0198,5.0198,5.0125,5.0126,5.107,5.21,5.2972,5.4591,5.4709,5.2902,5.3388,5.4242,5.5655,5.4598,5.506,5.7361,5.5974,5.6408,5.8668,5.8406,5.9219,6.0874,6.1106,6.1193,6.1193,6.1193,6.1193,6.1193,6.1193,6.1193,6.1193,6.1193,6.1193,6.1193,6.1193,6.1193,6.1193,7.4582,7.4975,7.5474,7.5974,7.6474,7.708,7.783,7.7937,7.8044,7.8365,7.8829,7.915,7.915,7.9614,7.9507,7.8508,7.8864,7.8936,7.8436,7.8401,7.8258,7.7937,7.7423,7.7127,7.7127,7.6419,7.6102,7.6222,7.4267,7.233,7.0588,6.951,6.8921,6.8666,6.8079,6.7782,6.778,6.7359,6.7424,6.7813,6.7618,6.7813,6.8201,6.8201,6.8201,6.8201,6.8201,6.8201,6.8201,6.8201,6.8201,6.8201,6.8201,6.8201,6.8201,6.8201,6.8201,6.8201,6.8201,6.8201,6.8104,6.7683,6.7392,6.6809,6.5351,6.4153,6.3124,6.2524,6.147,6.0391,5.9496,5.7943,5.6617,5.6222,5.465,5.3218,5.2464,5.1443,5.0767,5.089,5.0313,5.0112,5.0471,5.0889,5.1494,5.2289,5.3798,5.4237,5.3473,5.4581,5.5242,5.5533,5.5083,5.5603,5.7216,5.6723,5.7448,5.9306,5.9364,6.0032,6.1193,6.1193,6.1193,6.1193,6.1193,6.1193,6.1193,6.1193,6.1193,6.1193,6.1193,6.1193,6.1193,6.1193,6.1193,6.1193,7.7508,7.7544,7.758,7.758,7.7615,7.7901,7.865,7.8757,7.9043,7.9792,7.9899,7.9899,7.9899,7.9899,7.9899,7.9899,7.9899,7.9899,7.9899,7.9899,7.9578,7.8793,7.8079,7.7687,7.7687,7.6559,7.6101,7.6373,7.4825,7.4528,7.5204,7.3096,7.1812,7.1237,6.9583,6.8241,6.7327,6.7262,6.7262,6.7327,6.7942,6.8201,6.8201,6.8201,6.8201,6.8201,6.8201,6.8201,6.8201,6.8201,6.8201,6.8201,6.8201,6.8201,6.8201,6.8201,6.8201,6.8201,6.8201,6.8201,6.8201,6.8201,6.7683,6.6841,6.5481,6.4606,6.4088,6.4088,6.3505,6.245,6.0931,6.0012,5.9097,5.8107,5.7325,5.6475,5.5491,5.4239,5.3516,5.3669,5.2661,5.2166,5.2778,5.2209,5.1424,5.0278,5.1294,5.2252,5.292,5.6123,5.6272,5.2949,5.5155,5.6142,5.5533,5.739,5.8668,5.9393,6.0613,6.1193,6.1193,6.1193,6.1193,6.1193,6.1193,6.1193,6.1193,6.1193,6.1193,6.1193,6.1193,6.1193,6.1193,6.1193,6.1193,6.1193,7.7508,7.7972,7.8401,7.8401,7.8936,7.94,7.9578,7.9614,7.9685,7.9899,7.9899,7.9899,7.9899,7.9899,7.9899,7.9899,7.9899,7.9899,7.9899,7.9899,7.9828,7.9614,7.9435,7.9328,7.9328,7.9073,7.8597,7.8093,7.7425,7.6584,7.5589,7.4425,7.324,7.1875,7.0664,6.9615,6.8752,6.8201,6.7942,6.7974,6.8136,6.8201,6.8201,6.8201,6.8201,6.8201,6.8201,6.8201,6.8201,6.8201,6.8201,6.8201,6.8201,6.8201,6.8201,6.8201,6.8201,6.8201,6.8201,6.8201,6.8201,6.8201,6.7683,6.71,6.6744,6.5708,6.4768,6.4768,6.425,6.3606,6.3224,6.1886,6.0613,5.9885,5.8522,5.729,5.6506,5.6168,5.598,5.5993,5.5749,5.5334,5.4649,5.4428,5.4643,5.5467,5.5358,5.5765,5.6897,5.7683,5.7335,5.5562,5.6084,5.6549,5.6839,5.7826,5.8871,6.0003,6.0816,6.1193,6.1193,6.1193,6.1193,6.1193,6.1193,6.1193,6.1193,6.1193,6.1193,6.1193,6.1193,6.1193,6.1193,6.1193,6.1193,6.1193,7.8615,7.8936,7.9257,7.9257,7.9614,7.9899,7.9899,7.9899,7.9899,7.9899,7.9899,7.9899,7.9899,7.9899,7.9899,7.9899,7.9899,7.9899,7.9899,7.9899,7.9899,7.9899,7.9543,7.9507,7.9899,7.9543,7.9328,7.9257,7.8594,7.8105,7.7646,7.6501,7.5426,7.4355,7.3283,7.1804,7.0239,6.9845,6.9223,6.8401,6.8501,6.8401,6.8201,6.8301,6.8301,6.8201,6.8201,6.8201,6.8201,6.8201,6.8201,6.8201,6.8201,6.8201,6.8201,6.8201,6.8201,6.8201,6.8201,6.8201,6.8201,6.8201,6.7683,6.7197,6.7197,6.6323,6.5416,6.5092,6.4736,6.438,6.4088,6.3195,6.2492,6.2076,6.1027,5.9822,5.9061,5.834,5.7743,5.7263,5.7016,5.6511,5.5956,5.5491,5.5483,5.6279,5.5859,5.5968,5.6926,5.7274,5.7129,5.6432,5.6665,5.7129,5.7768,5.8697,5.9684,6.0671,6.1019,6.1193,6.1193,6.1193,6.1193,6.1193,6.1193,6.1193,6.1193,6.1193,6.1193,6.1193,6.1193,6.1193,6.1193,6.1193,6.1193,6.1193,7.9899,7.9899,7.9899,7.9899,7.9899,7.9899,7.9899,7.9899,7.9899,7.9899,7.9899,7.9899,7.9899,7.9899,7.9899,7.9899,7.9899,7.9899,7.9899,7.9899,7.9899,7.9899,7.9257,7.9186,7.9899,7.9221,7.9221,7.9899,7.915,7.915,7.9899,7.8587,7.7662,7.7083,7.6053,7.4252,7.1867,7.1732,7.0676,6.9026,6.9156,6.8961,6.8567,6.86,6.8501,6.8301,6.8301,6.8301,6.8301,6.8301,6.8201,6.8201,6.8201,6.8201,6.8201,6.8201,6.8201,6.8201,6.8201,6.8201,6.8201,6.8201,6.778,6.7327,6.7327,6.6776,6.6096,6.5481,6.5254,6.4995,6.4283,6.4153,6.4283,6.4606,6.3764,6.2901,6.2523,6.1059,5.9633,5.8868,5.8273,5.7803,5.7611,5.6861,5.6164,5.6093,5.5634,5.5557,5.5975,5.6537,5.6916,5.6694,5.7187,5.7826,5.8581,5.9655,6.0526,6.1193,6.1193,6.1193,6.1193,6.1193,6.1135,6.1048,6.1164,6.1135,6.1048,6.1164,6.1193,6.1193,6.1193,6.1193,6.1193,6.1193,6.1193,6.1193,7.9899,7.9899,7.9899,7.9899,7.9899,7.9899,7.9899,7.9899,7.9899,7.9899,7.9899,7.9899,7.9899,7.9899,7.9899,7.9899,7.9899,7.9899,7.9899,7.9899,7.9899,7.9899,7.9792,7.9792,7.9899,7.9792,7.9792,7.9899,7.9743,7.9743,7.9899,7.9276,7.8565,7.7817,7.6678,7.5185,7.3583,7.2969,7.2165,7.113,7.0473,7.0136,6.9949,6.9252,6.8896,6.8896,6.8896,6.8699,6.8501,6.8501,6.8401,6.8201,6.8201,6.8201,6.8201,6.8201,6.8201,6.8201,6.8201,6.8201,6.8201,6.8201,6.8136,6.8039,6.8039,6.7521,6.7003,6.6873,6.6355,6.5708,6.4995,6.4866,6.5448,6.7262,6.5448,6.4576,6.6837,6.4932,6.3191,6.3097,6.2906,6.2524,6.1558,6.1263,6.0865,5.9952,5.9735,5.9334,5.8465,5.9041,5.8985,5.8,5.8116,5.8726,5.9887,6.009,6.0526,6.1193,6.1193,6.1193,6.1193,6.1193,6.0874,6.038,6.0961,6.0874,6.0409,6.0961,6.1193,6.1193,6.1193,6.1193,6.1193,6.1193,6.1193,6.1193,7.9899,7.9899,7.9899,7.9899,7.9899,7.9899,7.9899,7.9899,7.9899,7.9899,7.9899,7.9899,7.9899,7.9899,7.9899,7.9899,7.9899,7.9899,7.9899,7.9899,7.9899,7.9899,7.9899,7.9899,7.9899,7.9899,7.9899,7.9899,7.9899,7.9899,7.9899,7.9629,7.9356,7.9044,7.8447,7.732,7.5759,7.5497,7.4567,7.3117,7.2478,7.1953,7.1616,7.0363,6.9888,6.9699,6.9156,6.8896,6.8797,6.8797,6.8699,6.86,6.86,6.8501,6.8401,6.8401,6.8301,6.8201,6.8201,6.8201,6.8201,6.8201,6.8201,6.8201,6.8201,6.7942,6.7618,6.7262,6.6938,6.6452,6.574,6.561,6.5805,6.6388,6.5416,6.4898,6.5805,6.4833,6.4024,6.4024,6.4024,6.3802,6.326,6.2646,6.2121,6.1621,6.132,6.0985,6.0457,6.1095,6.0946,5.9753,5.945,5.9597,6.0177,6.0555,6.0874,6.1193,6.1193,6.1193,6.1193,6.0816,6.0496,6.0206,6.0526,6.0496,6.0264,6.0932,6.1193,6.1193,6.1193,6.1193,6.1193,6.1193,6.1193,6.1193,7.9899,7.9899,7.9899,7.9899,7.9899,7.9899,7.9899,7.9899,7.9899,7.9899,7.9899,7.9899,7.9899,7.9899,7.9899,7.9899,7.9899,7.9899,7.9899,7.9899,7.9899,7.9899,7.9899,7.9899,7.9899,7.9899,7.9899,7.9899,7.9899,7.9899,7.9899,7.9899,7.9899,7.9899,7.9899,7.9124,7.7672,7.7672,7.6667,7.4891,7.4218,7.3772,7.3207,7.1736,7.1154,7.0983,6.986,6.9445,6.9349,6.9188,6.9091,6.8994,6.8994,6.8896,6.8699,6.8699,6.8501,6.8301,6.8201,6.8201,6.8201,6.8201,6.8201,6.8201,6.8201,6.8201,6.8039,6.7521,6.7424,6.7197,6.6485,6.6355,6.6355,6.629,6.5708,6.5319,6.5481,6.493,6.4509,6.4509,6.4509,6.4509,6.4509,6.3644,6.3221,6.3221,6.2864,6.2633,6.2321,6.2972,6.2872,6.185,6.0792,6.0264,6.0438,6.0932,6.1193,6.1193,6.1193,6.1193,6.1164,6.0496,6.0119,6.0003,6.0148,6.0119,6.0061,6.0874,6.1193,6.1193,6.1193,6.1193,6.1193,6.1193,6.1193,6.1193,7.9899,7.9899,7.9899,7.9899,7.9899,7.9899,7.9899,7.9899,7.9899,7.9899,7.9899,7.9899,7.9899,7.9899,7.9899,7.9899,7.9899,7.9899,7.9899,7.9899,7.9899,7.9899,7.9899,7.9899,7.9899,7.9899,7.9899,7.9899,7.9899,7.9899,7.9899,7.9899,7.9899,7.9899,7.9899,7.9435,7.8609,7.8609,7.7678,7.6214,7.5266,7.4878,7.4612,7.3026,7.2862,7.3207,7.1592,7.0906,7.054,6.9637,6.9188,6.8994,6.8994,6.8994,6.8994,6.8994,6.8797,6.8501,6.8301,6.8201,6.8201,6.8201,6.8201,6.8201,6.8201,6.8201,6.8201,6.8136,6.8136,6.791,6.723,6.71,6.7748,6.9691,6.778,6.6938,6.9561,6.7651,6.5967,6.5967,6.5967,6.5967,6.5967,6.5837,6.5837,6.5837,6.5772,6.5379,6.4342,6.4902,6.5008,6.4439,6.1697,6.0496,6.1106,6.1164,6.1193,6.1193,6.1193,6.1193,6.1164,6.0496,5.9887,5.9393,5.9945,5.9887,5.9451,6.07,6.1193,6.1193,6.1193,6.1193,6.1193,6.1193,6.1193,6.1193,8.0054,8.0171,8.0286,7.9977,7.9899,7.9899,7.9899,7.9899,7.9899,7.9899,7.9899,7.9899,7.9899,7.9899,7.9899,7.9899,7.9899,7.9899,7.9899,7.9899,7.9899,7.9899,7.9899,7.9899,7.9899,7.9899,7.9899,7.9899,7.9899,7.9899,7.9899,7.9899,7.9899,7.9899,7.9899,7.9721,7.9435,7.9435,7.9114,7.8543,7.7666,7.6979,7.637,7.4657,7.3915,7.3624,7.2432,7.1586,7.0996,7.0666,7.0016,6.9511,6.9511,6.9382,6.9188,6.9091,6.8896,6.8797,6.8699,6.8501,6.8201,6.8201,6.8201,6.8201,6.8201,6.8201,6.8201,6.8201,6.8201,6.8136,6.7877,6.7813,6.7942,6.8331,6.7489,6.7003,6.7651,6.6809,6.6096,6.6096,6.6096,6.6096,6.6096,6.6096,6.6096,6.6096,6.6517,6.6579,6.6249,6.6147,6.5996,6.5822,6.4015,6.2804,6.2262,6.1523,6.1193,6.1193,6.1193,6.1193,6.1164,6.0119,5.951,5.9306,5.9539,5.951,5.9393,6.0671,6.1193,6.1193,6.1193,6.1193,6.1193,6.1193,6.1193,6.1193,8.0584,8.0548,8.0548,8.0247,8.0054,7.9899,7.9899,7.9899,7.9899,7.9899,7.9899,7.9899,7.9899,7.9899,7.9899,7.9899,7.9899,7.9899,7.9899,7.9899,7.9899,7.9899,7.9899,7.9899,7.9899,7.9899,7.9899,7.9899,7.9899,7.9899,7.9899,7.9899,7.9899,7.9899,7.9899,7.9899,7.9899,7.9899,7.9757,7.9471,7.89,7.8222,7.7326,7.5974,7.507,7.4498,7.3311,7.2498,7.1935,7.1355,7.0757,7.0143,6.986,6.9703,6.9478,6.9188,6.9091,6.9091,6.8994,6.8699,6.8401,6.8301,6.8301,6.8201,6.8201,6.8201,6.8201,6.8201,6.8201,6.8201,6.8201,6.8201,6.8039,6.7586,6.7489,6.7327,6.6841,6.6776,6.6776,6.6776,6.6776,6.6776,6.6776,6.6776,6.6776,6.6776,6.723,6.7489,6.7489,6.7202,6.7014,6.7014,6.5929,6.483,6.3812,6.2377,6.1644,6.1439,6.1112,6.0787,6.0555,5.948,5.8987,5.9016,5.9219,5.9306,5.9393,6.0671,6.1193,6.1193,6.1193,6.1193,6.1193,6.1193,6.1193,6.1193,8.1506,8.1089,8.0695,8.0695,8.0247,7.9899,7.9899,7.9899,7.9899,7.9899,7.9899,7.9899,7.9899,7.9899,7.9899,7.9899,7.9899,7.9899,7.9899,7.9899,7.9899,7.9899,7.9899,7.9899,7.9899,7.9899,7.9899,7.9899,7.9899,7.9899,7.9899,7.9899,7.9899,7.9899,7.9899,7.9899,7.9899,7.9899,7.9435,7.8686,7.8686,7.8222,7.7401,7.6688,7.6402,7.6185,7.4428,7.3799,7.3562,7.1761,7.121,7.103,7.0049,6.9798,6.9798,6.9478,6.9382,6.9382,6.9091,6.8994,6.8896,6.8699,6.8401,6.8201,6.8201,6.8201,6.8201,6.8201,6.8201,6.8201,6.8201,6.8201,6.8201,6.8201,6.8201,6.8201,6.8201,6.8201,6.8201,6.8201,6.8201,6.8201,6.8201,6.8201,6.8201,6.8201,6.8201,6.8201,6.8201,6.8201,6.8201,6.8201,6.7118,6.6248,6.5829,6.3892,6.26,6.1972,6.0735,5.9887,5.9277,5.861,5.829,5.8348,5.9016,5.9306,5.9393,6.0671,6.1193,6.1193,6.1193,6.1193,6.1193,6.1193,6.1193,6.1193,8.2003,8.1537,8.116,8.0768,8.0247,7.9899,7.9899,7.9899,7.9899,7.9899,7.9899,7.9899,7.9899,7.9899,7.9899,7.9899,7.9899,7.9899,7.9899,7.9899,7.9899,7.9899,7.9899,7.9899,7.9899,7.9899,7.9899,7.9899,7.9899,7.9899,7.9899,7.9899,7.9899,7.9899,7.9899,7.9899,7.9899,7.9899,7.9757,7.9543,7.9543,7.8722,7.7473,7.7259,7.6509,7.551,7.4929,7.4335,7.3641,7.2498,7.1674,7.103,7.0049,6.9798,6.9798,6.9703,6.9703,6.9703,6.9607,6.9382,6.9188,6.8994,6.8699,6.8501,6.8699,6.8501,6.8301,6.8699,6.86,6.8501,6.8501,6.8501,6.8401,6.8201,6.8201,6.8201,6.8201,6.8201,6.8201,6.8201,6.8201,6.8201,6.8201,6.8201,6.8301,6.8501,6.8699,6.8797,6.8797,6.8797,6.8797,6.8797,6.798,6.7393,6.7264,6.4702,6.3189,6.2595,6.1336,6.06,6.0422,5.8895,5.829,5.8348,5.9016,5.9306,5.9393,6.0671,6.1193,6.1193,6.1193,6.1193,6.1193,6.1193,6.1193,6.1193,8.2935,8.226,8.1709,8.1368,8.0658,8.013,8.013,8.0054,7.9977,7.9977,7.9977,7.9899,7.9899,7.9899,7.9899,7.9899,7.9899,7.9899,7.9899,7.9899,7.9899,7.9899,7.9899,7.9899,7.9899,7.9899,7.9899,7.9899,7.9899,7.9899,7.9899,7.9899,7.9899,7.9899,7.9899,7.9899,7.9899,7.9899,7.9899,7.9899,7.9899,7.8936,7.7508,7.7508,7.6545,7.5225,7.5225,7.4858,7.4258,7.3322,7.2159,7.112,7.0482,7.0049,6.9798,6.9798,6.9798,6.9798,6.9798,6.9703,6.9478,6.9382,6.8994,6.8699,6.8896,6.8699,6.8501,6.8896,6.8896,6.8797,6.8797,6.8797,6.8699,6.8501,6.8501,6.8501,6.8501,6.8501,6.8501,6.8501,6.8501,6.8501,6.8501,6.8501,6.86,6.8797,6.8896,6.8994,6.8994,6.8994,6.8994,6.8994,6.8273,6.7781,6.7582,6.5532,6.4003,6.3286,6.1921,6.1152,6.0802,5.9678,5.8977,5.8591,5.953,5.9712,5.9393,6.0671,6.1193,6.1193,6.1193,6.1193,6.1193,6.1193,6.1193,6.1193,8.405,8.3148,8.2386,8.2386,8.1437,8.062,8.0546,8.0397,8.0283,8.0207,8.0054,7.9899,7.9899,7.9899,7.9899,7.9899,7.9899,7.9899,7.9899,7.9899,7.9899,7.9899,7.9899,7.9899,7.9899,7.9899,7.9899,7.9899,7.9899,7.9899,7.9899,7.9899,7.9899,7.9899,7.9899,7.9899,7.9899,7.9899,7.9899,7.9899,7.9899,7.8936,7.7508,7.7508,7.6545,7.5225,7.5225,7.5225,7.5042,7.4146,7.2666,7.1266,7.1266,7.0757,7.0049,7.0049,6.9955,6.9893,6.9893,6.9893,6.9798,6.9798,6.9188,6.8699,6.8994,6.8896,6.8699,6.8994,6.9091,6.8994,6.8994,6.8994,6.8994,6.8994,6.8994,6.8994,6.8994,6.8994,6.8994,6.8994,6.8994,6.8994,6.8994,6.8994,6.8994,6.8994,6.9091,6.9091,6.9091,6.9091,6.9058,6.8993,6.8304,6.7677,6.7142,6.6232,6.5183,6.3864,6.27,6.1671,6.0877,6.0774,6.015,5.9285,6.0406,6.0393,5.9626,6.0702,6.1255,6.1193,6.1193,6.1193,6.1193,6.1193,6.1193,6.1193,8.4306,8.3618,8.3016,8.3016,8.2437,8.1798,8.1332,8.1193,8.0947,8.0247,8.013,8.0054,7.9899,7.9899,7.9899,7.9899,7.9899,7.9899,7.9899,7.9899,7.9899,7.9899,7.9899,7.9899,7.9899,7.9899,7.9899,7.9899,7.9899,7.9899,7.9899,7.9899,7.9899,7.9899,7.9899,7.9899,7.9899,7.9899,7.9899,7.9899,7.9899,7.8936,7.7508,7.7508,7.6545,7.5225,7.5225,7.5225,7.5042,7.4146,7.3078,7.2244,7.2244,7.2073,7.1901,7.1901,7.141,7.094,7.094,7.033,6.9798,6.9798,6.9478,6.9285,6.9607,6.9285,6.9091,6.9511,6.9478,6.9285,6.9285,6.9285,6.9188,6.8994,6.8994,6.8994,6.8994,6.8994,6.8994,6.8994,6.8994,6.8994,6.8994,6.9188,6.9285,6.9285,6.9511,6.9607,6.9607,6.9607,6.9343,6.8748,6.8021,6.7328,6.6659,6.5841,6.5297,6.4839,6.3517,6.2808,6.2551,6.1426,6.0815,6.064,6.1216,6.1274,6.0962,6.1541,6.1615,6.1494,6.1313,6.1193,6.1193,6.1193,6.1193,6.1193,8.4637,8.4027,8.3563,8.3563,8.3074,8.2597,8.2223,8.2059,8.1769,8.1018,8.0804,8.0622,8.0207,8.013,7.9977,7.9899,7.9899,7.9899,7.9899,7.9899,7.9899,7.9899,7.9899,7.9899,7.9899,7.9899,7.9899,7.9899,7.9899,7.9899,7.9899,7.9899,7.9899,7.9899,7.9899,7.9899,7.9899,7.9899,7.9899,7.9864,7.9471,7.8579,7.7508,7.7508,7.6545,7.526,7.5617,7.5546,7.5116,7.4598,7.3913,7.3125,7.3125,7.2797,7.2464,7.2464,7.2434,7.2327,7.1951,7.1413,7.0917,7.0582,7.0049,6.9607,6.9798,6.9478,6.9285,6.9703,6.9703,6.9607,6.9607,6.9607,6.9574,6.9382,6.9382,6.9382,6.9382,6.9382,6.9382,6.9382,6.9382,6.9382,6.9382,6.9511,6.9607,6.9607,6.9703,6.9798,6.9798,6.9798,6.9434,6.8705,6.8009,6.7281,6.6519,6.579,6.5336,6.5246,6.4485,6.3988,6.3862,6.3132,6.2551,6.2058,6.2581,6.2654,6.238,6.2314,6.2445,6.2612,6.1732,6.1404,6.1404,6.1193,6.1193,6.1193,8.4901,8.4454,8.4078,8.4078,8.3655,8.3321,8.3169,8.3016,8.2658,8.1966,8.1769,8.1364,8.0731,8.0397,8.0207,7.9977,7.9977,7.9977,7.9977,7.9977,7.9977,7.9977,7.9899,7.9899,7.9899,7.9899,7.9899,7.9899,7.9899,7.9899,7.9899,7.9899,7.9899,7.9899,7.9899,7.9899,7.9899,7.9899,7.9899,7.9828,7.9007,7.8294,7.7687,7.7544,7.6616,7.551,7.6295,7.6081,7.5403,7.526,7.4673,7.4068,7.4068,7.3667,7.3205,7.3205,7.3677,7.396,7.3303,7.2828,7.2361,7.1604,7.0675,6.9955,6.9893,6.9607,6.9478,6.9798,6.9798,6.9798,6.9798,6.9798,6.9798,6.9798,6.9798,6.9798,6.9798,6.9798,6.9798,6.9798,6.9798,6.9798,6.9798,6.9798,6.9798,6.9798,6.9798,6.9798,6.9798,6.9798,6.9401,6.8539,6.7943,6.7214,6.6353,6.5724,6.5425,6.5425,6.5279,6.4976,6.4793,6.4793,6.4268,6.3516,6.387,6.3952,6.3797,6.3333,6.3526,6.4036,6.2582,6.1939,6.1821,6.1404,6.1193,6.1193,8.4901,8.4854,8.477,8.477,8.4675,8.4443,8.387,8.3726,8.3452,8.2658,8.2536,8.2186,8.1364,8.0804,8.0433,8.0433,8.0433,8.0433,8.0433,8.0283,8.013,8.013,7.9977,7.9899,7.9899,7.9899,7.9899,7.9899,7.9899,7.9899,7.9899,7.9899,7.9899,7.9899,7.9899,7.9899,7.9899,7.9899,7.9899,7.9828,7.9007,7.8615,7.8436,7.7758,7.6973,7.6331,7.708,7.6866,7.6117,7.5439,7.5116,7.5042,7.5042,7.5431,7.5889,7.5889,7.5846,7.5814,7.5708,7.4594,7.3292,7.2395,7.1559,7.0757,6.9988,6.9798,6.9798,6.9798,6.9798,6.9798,6.9798,6.9798,6.9798,6.9798,6.9798,6.9798,6.9798,6.9798,6.9798,6.9798,6.9798,6.9798,6.9798,6.9798,6.9798,6.9798,6.9798,6.9798,6.9798,6.9798,6.9169,6.7811,6.7678,6.6949,6.5591,6.5459,6.5425,6.5425,6.5336,6.5336,6.5336,6.5099,6.5008,6.4793,6.4676,6.4864,6.5279,6.4944,6.5123,6.5544,6.4036,6.3357,6.2869,6.1613,6.1193,6.1106,8.4901,8.4901,8.4901,8.4901,8.4901,8.4808,8.4492,8.4454,8.4218,8.3508,8.3359,8.3074,8.2412,8.1966,8.1537,8.1018,8.1018,8.084,8.0508,8.0433,8.0358,8.0358,8.0283,8.0207,8.0207,8.0207,8.0207,8.0054,7.9977,7.9899,7.9899,7.9899,7.9899,7.9899,7.9899,7.9899,7.9899,7.9899,7.9899,7.9828,7.9007,7.8686,7.8579,7.7794,7.7045,7.6367,7.6259,7.6545,7.683,7.5617,7.576,7.6402,7.601,7.6402,7.7009,7.7009,7.7317,7.7469,7.7043,7.6383,7.5506,7.4183,7.2756,7.1593,7.0767,7.0143,6.9798,6.9798,6.9798,6.9798,6.9798,6.9798,6.9798,6.9798,6.9798,6.9798,6.9798,6.9798,6.9798,6.9798,6.9798,6.9798,6.9798,6.9798,6.9798,6.9798,6.9798,6.9798,6.9798,6.9401,6.8705,6.7645,6.7214,6.6485,6.5425,6.5425,6.5425,6.5425,6.5425,6.5425,6.5425,6.5336,6.5246,6.5246,6.5156,6.5673,6.6609,6.5869,6.6181,6.7022,6.5544,6.4126,6.2672,6.1961,6.0999,6.009]},{"header":{"parameterUnit":"m.s-1","parameterCategory":1,"la1":30.6,"la2":28.766,"lo1":-90.7593,"lo2":-88.6598,"dx":0.0162,"dy":0.0183,"nx":116,"ny":114,"refTime":"2023-01-14T06:00:00:Z","depth":0,"parameterNumber":3,"parameterNumberName":"V-component_of_WINDS"},"data":[0.0,0.0,0.0,0.0,0.0,0.0,0.0,0.0,0.0,0.0,0.0,0.0,0.0,0.0,0.0,0.0,0.0,0.0,0.0,0.0,0.0,0.0,0.0,0.0,0.0,0.0,0.0,0.0,0.0,0.0,0.0,0.0,0.0,0.0,0.0,0.0,0.0,0.0,0.0,0.0,0.0,0.0,0.0,0.0,0.0,0.0,0.0,0.0,0.0,0.0,0.0,0.0,0.0,0.0,0.0,0.0,0.0,0.0,0.0,0.0,0.0,0.0,0.0,0.0,0.0,0.0,0.0,0.0,0.0,0.0,0.0,0.0,0.0,0.0,0.0,0.0,0.0,0.0,0.0,0.0,0.0,0.0,0.0,0.0,0.0,0.0,0.0,0.0,0.0,0.0,0.0,0.0,0.0,0.0,0.0,0.0,0.0,0.0,0.0,0.0,0.0,0.0,0.0,0.0,0.0,0.0,0.0,0.0,0.0,0.0,0.0,0.0,0.0,0.0,0.0,0.0,0.0,0.0,0.0,0.0,0.0,0.0,0.0,0.0,0.0,0.0,0.0,0.0,0.0,0.0,0.0,0.0,0.0,0.0,0.0,0.0,0.0,0.0,0.0,0.0,0.0,0.0,0.0,0.0,0.0,0.0,0.0,0.0,0.0,0.0,0.0,0.0,0.0,0.0,0.0,0.0,0.0,0.0,0.0,0.0,0.0,0.0,0.0,0.0,0.0,0.0,0.0,0.0,0.0,0.0,0.0,0.0,0.0,0.0,0.0,0.0,0.0,0.0,0.0,0.0,0.0,0.0,0.0,0.0,0.0,0.0,0.0,0.0,0.0,0.0,0.0,0.0,0.0,0.0,0.0,0.0,0.0,0.0,0.0,0.0,0.0,0.0,0.0,0.0,0.0,0.0,0.0,0.0,0.0,0.0,0.0,0.0,0.0,0.0,0.0,0.0,0.0,0.0,0.0,0.0,0.0,0.0,0.0,0.0,0.0,0.0,0.0,0.0,0.0,0.0,0.0,0.0,0.0,0.0,0.0,0.0,0.0,0.0,0.0,0.0,0.0,0.0,0.0,0.0,0.0,0.0,0.0,0.0,0.0,0.0,0.0,0.0,0.0,0.0,0.0,0.0,0.0,0.0,0.0,0.0,0.0,0.0,0.0,0.0,0.0,0.0,0.0,0.0,0.0,0.0,0.0,0.0,0.0,0.0,0.0,0.0,0.0,0.0,0.0,0.0,0.0,0.0,0.0,0.0,0.0,0.0,0.0,0.0,0.0,0.0,0.0,0.0,0.0,0.0,0.0,0.0,0.0,0.0,0.0,0.0,0.0,0.0,0.0,0.0,0.0,0.0,0.0,0.0,0.0,0.0,0.0,0.0,0.0,0.0,0.0,0.0,0.0,0.0,0.0,0.0,0.0,0.0,0.0,0.0,0.0,0.0,0.0,0.0,0.0,0.0,0.0,0.0,0.0,0.0,0.0,0.0,0.0,0.0,0.0,0.0,0.0,0.0,0.0,0.0,0.0,0.0,0.0,0.0,0.0,0.0,0.0,0.0,0.0,0.0,0.0,0.0,0.0,0.0,0.0,0.0,0.0,0.0,0.0,0.0,0.0,0.0,0.0,0.0,0.0,0.0,0.0,0.0,0.0,0.0,0.0,0.0,0.0,0.0,0.0,0.0,0.0,0.0,0.0,0.0,0.0,0.0,0.0,0.0,0.0,0.0,0.0,0.0,0.0,0.0,0.0,0.0,0.0,0.0,0.0,0.0,0.0,0.0,0.0,0.0,0.0,0.0,0.0,0.0,0.0,0.0,0.0,0.0,0.0,0.0,0.0,0.0,0.0,0.0,0.0,0.0,0.0,0.0,0.0,0.0,0.0,0.0,0.0,0.0,0.0,0.0,0.0,0.0,0.0,0.0,0.0,0.0,0.0,0.0,0.0,0.0,0.0,0.0,0.0,0.0,0.0,0.0,0.0,0.0,0.0,0.0,0.0,0.0,0.0,0.0,0.0,0.0,0.0,0.0,0.0,0.0,0.0,0.0,0.0,0.0,0.0,0.0,0.0,0.0,0.0,0.0,0.0,0.0,0.0,0.0,0.0,0.0,0.0,0.0,0.0,0.0,0.0,0.0,0.0,0.0,0.0,0.0,0.0,0.0,0.0,0.0,0.0,0.0,0.0,0.0,0.0,0.0,0.0,0.0,0.0,0.0,0.0,0.0,0.0,0.0,0.0,0.0,0.0,0.0,0.0,0.0,0.0,0.0,0.0,0.0,0.0,0.0,0.0,0.0,0.0,0.0,0.0,0.0,0.0,0.0,0.0,0.0,0.0,0.0,0.0,0.0,0.0,0.0,0.0,0.0,0.0,0.0,0.0,0.0,0.0,0.0,0.0,0.0,0.0,0.0,0.0,0.0,0.0,0.0,0.0,0.0,0.0,0.0,0.0,0.0,0.0,0.0,0.0,0.0,0.0,0.0,0.0,0.0,0.0,0.0,0.0,0.0,0.0,0.0,0.0,0.0,0.0,0.0,0.0,0.0,0.0,0.0,0.0,0.0,0.0,0.0,0.0,0.0,0.0,0.0,0.0,0.0,0.0,0.0,0.0,0.0,0.0,0.0,0.0,0.0,0.0,0.0,0.0,0.0,0.0,0.0,0.0,0.0,0.0,0.0,0.0,0.0,0.0,0.0,0.0,0.0,0.0,0.0,0.0,0.0,0.0,0.0,0.0,0.0,0.0,0.0,0.0,0.0,0.0,0.0,0.0,0.0,0.0,0.0,0.0,0.0,0.0,0.0,0.0,0.0,0.0,0.0,0.0,0.0,0.0,0.0,0.0,0.0,0.0,0.0,0.0,0.0,0.0,0.0,0.0,0.0,0.0,0.0,0.0,0.0,0.0,0.0,0.0,0.0,0.0,0.0,0.0,0.0,0.0,0.0,0.0,0.0,0.0,0.0,0.0,0.0,0.0,0.0,0.0,0.0,0.0,0.0,0.0,0.0,0.0,0.0,0.0,0.0,0.0,0.0,0.0,0.0,0.0,0.0,0.0,0.0,0.0,0.0,0.0,0.0,0.0,0.0,0.0,0.0,0.0,0.0,0.0,0.0,0.0,0.0,0.0,0.0,0.0,0.0,0.0,0.0,0.0,0.0,0.0,0.0,0.0,0.0,0.0,0.0,0.0,0.0,0.0,0.0,0.0,0.0,0.0,0.0,0.0,0.0,0.0,0.0,0.0,0.0,0.0,0.0,0.0,0.0,0.0,0.0,0.0,0.0,0.0,0.0,0.0,0.0,0.0,0.0,0.0,0.0,0.0,0.0,0.0,0.0,0.0,0.0,0.0,0.0,0.0,0.0,0.0,0.0,0.0,0.0,0.0,0.0,0.0,0.0,0.0,0.0,0.0,0.0,0.0,0.0,0.0,0.0,0.0,0.0,0.0,0.0,0.0,0.0,0.0,0.0,0.0,0.0,0.0,0.0,0.0,0.0,0.0,0.0,0.0,0.0,0.0,0.0,0.0,0.0,0.0,0.0,0.0,0.0,0.0,0.0,0.0,0.0,0.0,0.0,0.0,0.0,0.0,0.0,0.0,0.0,0.0,0.0,0.0,0.0,0.0,0.0,0.0,0.0,0.0,0.0,0.0,0.0,0.0,0.0,0.0,0.0,0.0,0.0,0.0,0.0,0.0,0.0,0.0,0.0,0.0,0.0,0.0,0.0,0.0,0.0,0.0,0.0,0.0,0.0,0.0,0.0,0.0,0.0,0.0,0.0,0.0,0.0,0.0,0.0,0.0,0.0,0.0,0.0,0.0,0.0,0.0,0.0,0.0,0.0,0.0,0.0,0.0,0.0,0.0,0.0,0.0,0.0,0.0,0.0,0.0,0.0,0.0,0.0,0.0,0.0,0.0,0.0,0.0,0.0,0.0,0.0,0.0,0.0,0.0,0.0,0.0,0.0,0.0,0.0,0.0,0.0,0.0,0.0,0.0,0.0,0.0,0.0,0.0,0.0,0.0,0.0,0.0,0.0,0.0,0.0,0.0,0.0,0.0,0.0,0.0,0.0,0.0,0.0,0.0,0.0,0.0,0.0,0.0,0.0,0.0,0.0,0.0,0.0,0.0,0.0,0.0,0.0,0.0,0.0,0.0,0.0,0.0,0.0,0.0,0.0,0.0,0.0,0.0,0.0,0.0,0.0,0.0,0.0,0.0,0.0,0.0,0.0,0.0,0.0,0.0,0.0,0.0,0.0,0.0,0.0,0.0,0.0,0.0,0.0,0.0,0.0,0.0,0.0,0.0,0.0,0.0,0.0,0.0,0.0,0.0,0.0,0.0,0.0,0.0,0.0,0.0,0.0,0.0,0.0,0.0,0.0,0.0,0.0,0.0,0.0,0.0,0.0,0.0,0.0,0.0,0.0,0.0,0.0,0.0,0.0,0.0,0.0,0.0,0.0,0.0,0.0,0.0,0.0,0.0,0.0,0.0,0.0,0.0,0.0,0.0,0.0,0.0,0.0,0.0,0.0,0.0,0.0,0.0,0.0,0.0,0.0,0.0,0.0,0.0,0.0,0.0,0.0,0.0,0.0,0.0,0.0,0.0,0.0,0.0,0.0,0.0,0.0,0.0,0.0,0.0,0.0,0.0,0.0,0.0,0.0,0.0,0.0,0.0,0.0,0.0,0.0,0.0,0.0,0.0,0.0,0.0,0.0,0.0,0.0,0.0,0.0,0.0,0.0,0.0,0.0,0.0,0.0,0.0,0.0,0.0,0.0,0.0,0.0,0.0,0.0,0.0,0.0,0.0,0.0,0.0,0.0,0.0,0.0,0.0,0.0,0.0,0.0,0.0,0.0,0.0,0.0,0.0,0.0,0.0,0.0,0.0,0.0,0.0,0.0,0.0,0.0,0.0,0.0,0.0,0.0,0.0,0.0,0.0,0.0,0.0,0.0,0.0,0.0,0.0,0.0,0.0,0.0,0.0,0.0,0.0,0.0,0.0,0.0,0.0,0.0,0.0,0.0,0.0,0.0,0.0,0.0,0.0,0.0,0.0,0.0,0.0,0.0,0.0,0.0,0.0,0.0,0.0,0.0,0.0,0.0,0.0,0.0,0.0,0.0,0.0,0.0,0.0,0.0,0.0,0.0,0.0,0.0,0.0,0.0,0.0,0.0,0.0,0.0,0.0,0.0,0.0,0.0,0.0,0.0,0.0,0.0,0.0,0.0,0.0,0.0,0.0,0.0,0.0,0.0,0.0,0.0,0.0,0.0,0.0,0.0,0.0,0.0,0.0,0.0,0.0,0.0,0.0,0.0,0.0,0.0,0.0,0.0,0.0,0.0,0.0,0.0,0.0,0.0,0.0,0.0,0.0,0.0,0.0,0.0,0.0,0.0,0.0,0.0,0.0,0.0,0.0,0.0,0.0,0.0,0.0,0.0,0.0,0.0,0.0,0.0,0.0,0.0,0.0,0.0,0.0,0.0,0.0,0.0,0.0,0.0,0.0,0.0,0.0,0.0,0.0,0.0,0.0,0.0,0.0,0.0,0.0,0.0,0.0,0.0,0.0,0.0,0.0,0.0,0.0,0.0,0.0,0.0,0.0,0.0,0.0,0.0,0.0,0.0,0.0,0.0,0.0,0.0,0.0,0.0,0.0,0.0,0.0,0.0,0.0,0.0,0.0,0.0,0.0,0.0,0.0,0.0,0.0,0.0,0.0,0.0,0.0,0.0,0.0,0.0,0.0,0.0,0.0,0.0,0.0,0.0,0.0,0.0,0.0,0.0,0.0,0.0,0.0,0.0,0.0,0.0,0.0,0.0,0.0,0.0,0.0,0.0,0.0,0.0,0.0,0.0,0.0,0.0,0.0,0.0,0.0,0.0,0.0,0.0,0.0,0.0,0.0,0.0,0.0,0.0,0.0,0.0,0.0,0.0,0.0,0.0,0.0,0.0,0.0,0.0,0.0,0.0,0.0,0.0,0.0,0.0,0.0,0.0,0.0,0.0,0.0,0.0,0.0,0.0,0.0,0.0,0.0,0.0,0.0,0.0,0.0,0.0,0.0,0.0,0.0,0.0,0.0,0.0,0.0,0.0,0.0,0.0,0.0,0.0,-3.2716,-3.0279,0.0,0.0,0.0,0.0,0.0,0.0,0.0,0.0,0.0,0.0,0.0,0.0,0.0,0.0,0.0,0.0,0.0,0.0,0.0,0.0,0.0,0.0,0.0,0.0,0.0,0.0,0.0,0.0,0.0,0.0,0.0,0.0,0.0,0.0,0.0,0.0,0.0,0.0,0.0,0.0,0.0,0.0,0.0,0.0,0.0,0.0,0.0,0.0,0.0,0.0,0.0,0.0,0.0,0.0,0.0,0.0,0.0,0.0,0.0,0.0,0.0,0.0,0.0,0.0,0.0,0.0,0.0,0.0,0.0,0.0,0.0,0.0,0.0,0.0,0.0,0.0,0.0,0.0,0.0,0.0,0.0,0.0,0.0,0.0,0.0,0.0,0.0,0.0,0.0,0.0,0.0,0.0,0.0,0.0,0.0,0.0,0.0,0.0,0.0,0.0,0.0,0.0,0.0,0.0,0.0,0.0,0.0,0.0,0.0,0.0,0.0,0.0,0.0,0.0,-3.5386,-3.3711,0.0,0.0,0.0,0.0,0.0,0.0,0.0,0.0,0.0,0.0,0.0,0.0,0.0,0.0,0.0,0.0,0.0,0.0,0.0,0.0,0.0,0.0,0.0,0.0,0.0,0.0,0.0,0.0,0.0,0.0,0.0,0.0,0.0,0.0,0.0,0.0,0.0,0.0,0.0,0.0,0.0,0.0,0.0,0.0,0.0,0.0,0.0,0.0,0.0,0.0,0.0,0.0,0.0,0.0,0.0,0.0,0.0,0.0,0.0,0.0,0.0,0.0,0.0,0.0,0.0,0.0,0.0,0.0,0.0,0.0,0.0,0.0,0.0,0.0,0.0,0.0,0.0,0.0,0.0,0.0,0.0,0.0,0.0,0.0,0.0,0.0,0.0,0.0,0.0,0.0,0.0,0.0,0.0,0.0,0.0,0.0,0.0,0.0,0.0,0.0,0.0,0.0,0.0,0.0,0.0,0.0,0.0,0.0,-3.8086,-3.8463,-3.9015,-3.8638,-3.8667,-3.8986,-3.8057,-3.7346,-3.672,-3.5849,0.0,0.0,0.0,0.0,0.0,0.0,0.0,0.0,0.0,0.0,0.0,0.0,0.0,0.0,0.0,0.0,0.0,0.0,0.0,0.0,0.0,0.0,0.0,0.0,0.0,0.0,0.0,0.0,0.0,0.0,0.0,0.0,0.0,0.0,0.0,0.0,0.0,0.0,-2.1565,-2.207,-2.201,-2.155,0.0,0.0,0.0,0.0,0.0,0.0,0.0,0.0,0.0,0.0,0.0,0.0,0.0,0.0,0.0,0.0,0.0,0.0,0.0,0.0,0.0,0.0,0.0,0.0,0.0,0.0,0.0,0.0,0.0,0.0,0.0,0.0,0.0,0.0,0.0,0.0,0.0,0.0,0.0,0.0,0.0,0.0,0.0,0.0,-2.6081,-2.6943,0.0,0.0,0.0,0.0,0.0,0.0,0.0,0.0,0.0,0.0,0.0,0.0,0.0,-3.6838,-3.8434,-3.8202,-3.8928,-4.0612,-4.1192,-4.1773,-4.2382,-4.2876,-4.2847,-4.2382,-4.2789,0.0,-3.8015,-3.7989,0.0,0.0,0.0,0.0,0.0,0.0,0.0,0.0,0.0,0.0,0.0,0.0,0.0,0.0,0.0,0.0,0.0,0.0,0.0,0.0,0.0,0.0,0.0,0.0,0.0,0.0,0.0,0.0,0.0,0.0,0.0,0.0,0.0,0.0,0.0,0.0,-2.1649,-2.2162,-2.2233,-2.216,-2.2225,-2.2447,-2.1556,-2.0874,-2.0428,-2.0784,0.0,0.0,0.0,0.0,0.0,0.0,0.0,0.0,0.0,0.0,0.0,0.0,0.0,0.0,0.0,0.0,0.0,0.0,0.0,0.0,0.0,0.0,0.0,0.0,0.0,0.0,0.0,0.0,0.0,0.0,0.0,0.0,0.0,0.0,0.0,0.0,0.0,0.0,0.0,-2.744,-2.8497,-2.8337,-2.9757,-3.074,0.0,0.0,0.0,0.0,0.0,0.0,0.0,0.0,0.0,-3.8957,-3.9015,-3.9596,-4.0815,-4.0873,-4.1337,-4.2179,-4.2847,-4.3311,-4.3573,-4.3863,-4.4008,-4.4066,-4.4356,-4.3747,-4.2411,-4.112,-4.0578,-4.0334,0.0,0.0,0.0,0.0,-3.9158,-3.9379,0.0,0.0,0.0,0.0,0.0,0.0,0.0,0.0,0.0,0.0,0.0,0.0,0.0,0.0,0.0,-1.7804,0.0,0.0,0.0,0.0,0.0,0.0,0.0,0.0,0.0,0.0,0.0,0.0,-2.2123,-2.2503,-2.2592,-2.2205,-2.2354,-2.3017,-2.241,-2.1986,-2.1535,-2.1837,-2.1667,0.0,0.0,0.0,0.0,0.0,0.0,0.0,0.0,0.0,0.0,0.0,0.0,0.0,0.0,0.0,0.0,0.0,0.0,0.0,0.0,0.0,0.0,0.0,0.0,0.0,0.0,0.0,0.0,0.0,0.0,0.0,0.0,0.0,0.0,0.0,0.0,0.0,0.0,-2.9317,-3.0359,-2.9811,-3.1724,-3.3111,0.0,0.0,0.0,0.0,0.0,0.0,-3.916,-3.9683,-4.0583,-4.2034,-4.1918,-4.2237,-4.305,-4.334,-4.3485,-4.3485,-4.4153,-4.4385,-4.424,-4.456,-4.4879,-4.5169,-4.5488,-4.5808,-4.5982,-4.4064,-4.3478,-4.3679,-4.2327,-4.2187,-4.2613,-4.2258,-4.2297,-4.2712,0.0,0.0,0.0,0.0,0.0,0.0,0.0,0.0,0.0,0.0,0.0,0.0,0.0,0.0,-1.893,-2.0497,-2.0487,-2.0822,0.0,0.0,0.0,0.0,0.0,0.0,0.0,0.0,0.0,-2.1777,-2.1987,-2.2184,-2.2318,-2.2756,-2.3072,-2.3336,-2.3486,-2.3258,-2.2584,-2.233,-2.2271,-2.2512,0.0,0.0,0.0,0.0,0.0,0.0,0.0,0.0,0.0,0.0,0.0,0.0,0.0,0.0,0.0,0.0,0.0,0.0,0.0,0.0,0.0,0.0,0.0,0.0,0.0,0.0,0.0,0.0,0.0,0.0,0.0,0.0,0.0,0.0,0.0,0.0,0.0,0.0,0.0,-3.1402,-3.3382,0.0,0.0,0.0,0.0,-3.8115,-3.9247,-4.0525,-4.1831,-4.1947,-4.2789,-4.4647,-4.4124,-4.4443,-4.5692,-4.5082,-4.4792,-4.4792,-4.5459,-4.5459,-4.4879,-4.6127,-4.6359,-4.5895,-4.7114,-4.7317,-4.6737,-4.5982,-4.5521,-4.5055,-4.4967,-4.476,-4.449,-4.5049,-4.5427,-4.5802,0.0,0.0,0.0,0.0,0.0,0.0,0.0,0.0,0.0,0.0,0.0,0.0,0.0,-1.9992,-2.0358,-2.2157,-2.2039,-2.2128,-2.2767,0.0,0.0,0.0,0.0,0.0,0.0,0.0,-2.2772,-2.2385,-2.2518,-2.2815,-2.3296,-2.3037,-2.3278,-2.3906,-2.337,-2.3392,-2.373,-2.3448,-2.3355,-2.3309,-2.3756,-2.3667,0.0,0.0,0.0,0.0,0.0,0.0,0.0,0.0,0.0,0.0,0.0,0.0,0.0,0.0,0.0,0.0,0.0,0.0,0.0,0.0,0.0,0.0,0.0,0.0,0.0,0.0,0.0,0.0,0.0,0.0,0.0,0.0,0.0,0.0,0.0,0.0,0.0,-3.3043,-3.5384,0.0,-3.7357,-3.9225,-4.067,-4.125,-4.2469,-4.3573,-4.4472,-4.4908,-4.5634,-4.6708,-4.6156,-4.604,-4.6475,-4.6243,-4.6127,-4.6156,-4.6795,-4.6969,-4.6766,-4.723,-4.755,-4.7753,-4.8188,-4.8508,-4.8653,-4.842,-4.7788,-4.6858,-4.6858,-4.6985,-4.7169,-4.7376,-4.7733,-4.8148,0.0,0.0,0.0,0.0,0.0,0.0,0.0,0.0,0.0,0.0,0.0,-1.9179,-2.1711,-2.1541,-2.1913,-2.3604,-2.3606,-2.356,-2.3621,0.0,0.0,0.0,0.0,0.0,0.0,-2.3533,-2.328,-2.3183,-2.3148,-2.3537,-2.4312,-2.3814,-2.3932,-2.4537,-2.4005,-2.4133,-2.4714,-2.489,-2.4572,-2.4013,-2.4395,-2.4386,-2.4139,0.0,0.0,0.0,0.0,0.0,0.0,0.0,0.0,0.0,0.0,0.0,0.0,0.0,0.0,0.0,0.0,0.0,0.0,0.0,0.0,0.0,0.0,0.0,0.0,0.0,0.0,0.0,0.0,0.0,0.0,0.0,0.0,0.0,0.0,-3.38,-3.4845,-3.4281,-3.6721,-3.8802,-3.9664,-4.1146,-4.2498,-4.3544,-4.4821,-4.5721,-4.6185,-4.6795,-4.7433,-4.8072,-4.7491,-4.7259,-4.7462,-4.7462,-4.7375,-4.7172,-4.7782,-4.8101,-4.8101,-4.8333,-4.8769,-4.9407,-4.9611,-4.993,-5.0336,-5.0336,-4.9843,-4.903,-4.8595,-4.8705,-4.9081,-4.9081,-4.936,-4.9821,0.0,0.0,0.0,0.0,0.0,0.0,0.0,0.0,0.0,0.0,-1.8881,-1.9901,-2.1479,-2.2592,-2.3697,-2.4731,-2.5111,-2.5083,-2.4578,-2.5035,0.0,0.0,0.0,0.0,-2.4296,-2.36,-2.3504,-2.4102,-2.3783,-2.4175,-2.5352,-2.4995,-2.4996,-2.5362,-2.5362,-2.5451,-2.5566,-2.6606,-2.5972,-2.4526,-2.4974,-2.4923,-2.4682,0.0,0.0,0.0,0.0,0.0,0.0,0.0,0.0,0.0,0.0,0.0,0.0,0.0,0.0,0.0,0.0,0.0,0.0,0.0,0.0,0.0,0.0,0.0,0.0,0.0,0.0,0.0,0.0,0.0,0.0,0.0,0.0,0.0,-3.2773,-3.4135,-3.5416,-3.5233,-3.7498,-3.9779,-4.1868,-4.3197,-4.4269,-4.4879,-4.6098,-4.6732,-4.6732,-4.7462,-4.8101,-4.8711,-4.8159,-4.813,-4.8769,-4.8769,-4.8478,-4.7898,-4.8508,-4.8827,-4.8827,-4.9465,-5.0104,-5.0743,-5.1352,-5.1614,-5.1614,-5.1614,-5.1614,-5.1497,-5.022,-4.9951,-5.0145,-5.0116,-5.0375,-5.0852,0.0,0.0,0.0,0.0,0.0,0.0,0.0,0.0,0.0,0.0,-1.9901,-2.0703,-2.3109,-2.3933,-2.4613,-2.5111,-2.5253,-2.5252,-2.5107,0.0,0.0,0.0,0.0,0.0,-2.4769,-2.53,-2.5382,-2.4948,-2.5481,-2.5597,-2.534,-2.5245,-2.5374,-2.5693,-2.5693,-2.5928,-2.6308,-2.6613,-2.6326,-2.5976,-2.6844,-2.7173,-2.7082,0.0,0.0,0.0,0.0,0.0,0.0,0.0,0.0,0.0,0.0,0.0,0.0,0.0,0.0,0.0,0.0,0.0,0.0,0.0,0.0,0.0,0.0,0.0,0.0,0.0,0.0,0.0,0.0,0.0,0.0,0.0,-3.6788,-3.7337,-3.5809,-3.6924,-3.8053,-3.8391,-3.973,-4.1001,-4.1807,-4.2918,-4.3834,-4.4457,-4.5624,-4.6239,-4.6239,-4.768,-4.8537,-4.8711,-4.9001,-4.9465,-5.0133,-5.0133,-5.0278,-5.0569,-5.0743,-5.083,-5.083,-5.1004,-5.1178,-5.1381,-5.1556,-5.1614,-5.1614,-5.1614,-5.1614,-5.1585,-5.1207,-5.1291,-5.1432,-5.0964,-5.1052,-5.1535,0.0,0.0,0.0,0.0,0.0,0.0,0.0,0.0,0.0,0.0,-2.07,-2.1469,-2.372,-2.4472,-2.4849,-2.504,-2.5111,-2.5135,-2.5349,0.0,0.0,0.0,0.0,-2.5622,-2.6069,-2.6235,-2.6232,-2.631,-2.6506,-2.6418,-2.6124,-2.6101,-2.6088,-2.6088,-2.63,-2.6492,-2.6998,-2.7129,-2.734,-2.7623,-2.8798,-2.8567,-2.7457,-2.7827,-2.7848,-2.7608,-2.7324,-2.7015,-2.6603,-2.5578,0.0,0.0,0.0,0.0,0.0,0.0,0.0,0.0,0.0,0.0,0.0,0.0,0.0,0.0,0.0,0.0,0.0,0.0,0.0,0.0,0.0,0.0,0.0,0.0,-3.8274,-3.8922,-3.8188,-3.8836,-3.9311,-3.9388,-4.0574,-4.1646,-4.2433,-4.3245,-4.3906,-4.4369,-4.543,-4.6052,-4.6052,-4.7798,-4.8953,-4.9146,-5.0017,-5.0685,-5.1062,-5.1062,-5.1265,-5.1614,-5.1614,-5.1759,-5.202,-5.202,-5.2165,-5.2426,-5.2426,-5.2426,-5.2426,-5.2426,-5.2426,-5.2368,0.0,0.0,0.0,0.0,-5.1925,-5.2248,0.0,0.0,0.0,0.0,0.0,0.0,0.0,0.0,0.0,0.0,0.0,-2.1963,-2.3837,-2.4425,-2.4729,-2.4801,-2.4801,-2.5013,0.0,0.0,0.0,-2.6451,-2.6519,-2.6922,-2.7547,-2.6527,-2.6643,-2.7764,-2.7006,-2.6797,-2.7094,-2.7106,-2.6918,-2.6755,-2.6918,-2.7243,-2.7549,-2.7978,-2.8411,-2.9085,-3.043,-2.9382,-2.7133,-2.7981,-2.8004,-2.7499,-2.6924,-2.6911,-2.7128,-2.6191,0.0,0.0,0.0,0.0,0.0,0.0,0.0,0.0,0.0,0.0,0.0,0.0,0.0,0.0,0.0,0.0,0.0,0.0,0.0,0.0,0.0,0.0,0.0,0.0,-3.9005,-3.9923,-3.9988,-4.0041,-3.9857,-3.9473,-4.0769,-4.2111,-4.3258,-4.3737,-4.4083,-4.4181,-4.5185,-4.5844,-4.5844,-4.7624,0.0,0.0,0.0,-5.1396,-5.173,-5.173,-5.1759,-5.1817,-5.1817,-5.2136,-5.2688,-5.2688,-5.2978,-5.35,-5.35,-5.35,-5.353,-5.3588,-5.3675,-5.3617,-5.2339,-5.1889,-5.2105,-5.2605,-5.2803,-5.2902,0.0,0.0,0.0,0.0,0.0,0.0,0.0,0.0,0.0,-2.0634,-2.054,-2.1269,-2.3883,-2.4276,-2.4418,-2.4801,-2.4801,-2.5013,0.0,0.0,-2.5232,-2.6044,-2.5462,-2.5809,-2.7195,-2.6981,-2.7242,-2.7683,-2.8021,-2.7721,-2.7094,-2.7515,-2.7592,-2.7382,-2.7138,-2.7503,-2.8243,-2.8028,-2.7976,-2.8157,-3.007,-3.0496,-3.0075,-3.1196,-3.1001,-3.0204,-3.0062,-2.9749,-2.9316,-2.8258,-2.7758,-2.7251,-2.5829,0.0,0.0,0.0,0.0,0.0,0.0,0.0,0.0,0.0,0.0,0.0,0.0,0.0,0.0,0.0,0.0,0.0,0.0,0.0,0.0,-3.9985,-4.0396,-4.0886,-4.1333,-4.1004,-4.0965,-4.1835,-4.2316,-4.2582,-4.2917,-4.3095,-4.3122,-4.3163,-4.3725,-4.4065,-4.4065,-4.5352,-4.6696,-4.8333,-4.9079,-5.04,-5.2368,-5.2397,-5.263,-5.3152,-5.3152,0.0,-5.3326,-5.3326,-5.3384,-5.35,-5.35,-5.35,-5.3559,-5.411,-5.4604,-5.4923,-5.3646,-5.2833,-5.2471,-5.2807,-5.3112,-5.3284,0.0,0.0,0.0,0.0,0.0,0.0,0.0,0.0,0.0,0.0,-2.0393,-2.1172,-2.3421,-2.37,-2.4003,-2.4754,-2.5359,0.0,0.0,-2.5518,-2.5693,-2.6123,-2.6115,-2.6536,-2.7442,-2.7241,-2.7262,-2.7408,-2.7629,-2.7419,-2.6905,-2.7635,-2.8161,-2.835,-2.8363,-2.8906,-2.9755,-2.9505,-2.9495,-2.9786,-3.1174,-3.166,-3.1685,-3.2602,-3.2394,-3.1649,-3.136,-3.0927,-3.0326,-2.9268,-2.8739,-2.833,-2.7248,-2.7061,-2.7336,0.0,0.0,0.0,0.0,0.0,0.0,0.0,0.0,0.0,0.0,0.0,0.0,0.0,0.0,-3.7119,-3.8318,0.0,-3.9532,-4.0653,-4.0756,-4.0995,-4.1808,-4.1555,-4.1533,-4.2222,-4.2249,-4.2258,-4.2262,-4.3145,-4.3432,-4.2843,-4.3873,-4.4387,-4.4084,-4.5427,-4.6938,-4.8395,-4.9666,-5.1208,-5.3036,-5.3036,-5.321,-5.35,-5.3849,-5.4023,-5.4023,-5.4313,-5.4458,-5.4458,-5.4458,-5.4458,-5.4487,-5.4836,-5.4952,-5.4894,-5.4255,-5.3994,-5.3994,-5.4311,-5.4316,-5.4318,0.0,0.0,0.0,0.0,0.0,0.0,0.0,0.0,0.0,0.0,-2.006,-2.0962,-2.2959,-2.3132,-2.3557,0.0,0.0,0.0,0.0,-2.5934,-2.6199,-2.6235,-2.6734,-2.7221,-2.7623,-2.7122,-2.6981,-2.7176,-2.6967,-2.6766,-2.6569,-2.7604,-2.8389,-2.8991,-2.925,-2.9939,-3.0933,-3.0768,-3.1051,-3.1644,-3.237,-3.2604,-3.2655,-3.3339,-3.314,-3.2442,-3.1985,-3.148,-3.0879,-2.9941,-2.9605,-2.9484,-2.8859,-2.845,-2.8227,-2.8711,-2.8723,0.0,0.0,0.0,0.0,0.0,0.0,0.0,0.0,-3.4224,-3.5747,-3.6179,-3.7225,-3.8416,-3.952,-3.9422,-3.9619,-4.1079,-4.1012,-4.1059,-4.18,-4.1701,-4.1512,-4.1619,-4.1807,-4.1702,-4.1498,-4.3202,-4.3778,-4.2669,-4.4211,-4.5101,-4.4716,-4.6123,-4.7544,-4.8922,-5.0239,-5.1667,-5.3184,-5.3174,-5.3174,-5.3319,-5.3946,-5.4313,-5.4342,-5.4807,-5.5039,-5.5039,-5.5039,-5.5126,-5.5242,-5.5242,-5.501,-5.4691,-5.4691,-5.4981,-5.5387,-5.5342,-5.5041,-5.4797,0.0,0.0,0.0,0.0,0.0,0.0,0.0,0.0,0.0,0.0,0.0,0.0,0.0,0.0,0.0,0.0,0.0,0.0,0.0,-2.4447,-2.4456,-2.6124,-2.5425,-2.572,-2.72,-2.6467,-2.6387,-2.7082,-2.6812,-2.6596,-2.6531,-2.7477,-2.7823,-2.7974,-2.8366,-2.9251,-3.0409,-3.039,-3.0845,-3.1666,-3.2733,-3.3109,-3.3208,-3.4267,-3.3765,-3.2491,-3.2442,-3.2058,-3.148,-3.0903,-3.0711,-3.0518,-2.9532,-2.9484,-2.9682,-2.8599,0.0,-2.9607,-2.9435,-3.01,-3.1116,-3.2372,-3.3436,-3.4272,0.0,-3.6387,-3.8137,-3.7758,-3.8697,-3.9812,-4.0463,-4.0594,-4.1107,-4.2343,-4.2125,-4.18,-4.1709,-4.1019,-4.0591,-4.0539,-4.1664,-4.1948,-4.0668,-4.2315,-4.3171,-4.2695,-4.3936,-4.501,-4.5472,-4.5711,-4.6764,-4.9047,-4.8792,-4.9643,-5.1976,-5.2003,-5.2243,-5.2787,-5.3377,-5.3617,-5.3617,-5.3704,-5.3733,-5.3733,-5.3733,-5.4052,-5.4604,-5.4604,-5.4894,-5.53,-5.53,-5.5358,-5.5271,-5.4139,-5.3885,-5.4036,0.0,0.0,0.0,0.0,0.0,0.0,0.0,0.0,0.0,0.0,0.0,0.0,0.0,0.0,0.0,0.0,0.0,0.0,-2.5082,-2.4159,-2.4226,-2.5472,-2.5365,-2.5469,-2.5748,-2.5599,-2.5714,-2.613,-2.5994,-2.5993,-2.6237,-2.6836,-2.7525,-2.8293,-2.8454,-2.9748,-3.1721,-3.1736,-3.2339,-3.3499,-3.3918,-3.4115,-3.419,-3.4294,-3.3789,-3.2971,-3.2971,-3.2394,0.0,0.0,-3.1336,-3.1216,-3.0446,-3.0385,-3.0491,-2.991,-2.9792,0.0,-3.0956,-3.1775,-3.2786,-3.4446,-3.4738,-3.4917,-3.587,-3.7236,-3.8389,-3.8974,-3.9495,-4.0277,-4.1174,-4.1176,-4.1278,-4.2152,-4.1989,-4.1826,-4.167,-4.123,-4.0773,-4.0465,-4.1828,-4.2241,-4.1004,-4.3227,-4.4327,-4.3647,-4.4958,-4.5858,-4.6102,-4.6059,-4.6998,-4.9028,-4.8819,-4.9525,-5.1253,-5.1875,-5.2023,-5.1566,-5.3242,-5.3907,-5.353,-5.4284,-5.4633,-5.4633,-5.4633,-5.4778,-5.5039,-5.5039,-5.4981,-5.4894,-5.4894,-5.4662,-5.4342,-5.4546,-5.4507,-5.4351,0.0,0.0,0.0,0.0,0.0,0.0,0.0,0.0,0.0,0.0,0.0,0.0,0.0,0.0,0.0,0.0,0.0,0.0,0.0,-2.3882,-2.3967,-2.4816,-2.4993,0.0,-2.5008,-2.5017,-2.5107,-2.5321,-2.5245,-2.5362,-2.5637,-2.6169,-2.7064,-2.8096,-2.8314,-2.9574,-3.1754,-3.2009,-3.2901,-3.4219,-3.451,-3.4607,-3.4559,-3.4174,-3.3549,-3.2827,-3.301,-3.2779,0.0,0.0,-3.2377,-3.2488,-3.1772,-3.1539,-3.1512,-3.1235,-3.1063,-3.128,-3.3218,-3.3829,-3.4281,-3.5733,-3.5708,-3.5656,-3.6935,-3.7977,-3.8893,-3.9778,-4.0244,-4.068,-4.1471,-4.1524,-4.1571,-4.2141,-4.1923,-4.1696,-4.1696,-4.1308,-4.0927,-4.067,-4.211,-4.2809,-4.2242,-4.4148,-4.5152,-4.4573,-4.5765,-4.6699,-4.7188,-4.6933,-4.7553,-4.9336,-4.8969,-4.9264,-5.0429,-5.1051,-5.1165,-5.0559,-5.2684,-5.3627,-5.3297,-5.44,-5.4894,-5.4865,-5.4691,-5.472,-5.4865,-5.4691,-5.4458,-5.4226,-5.4226,-5.3936,-5.3617,-5.4546,-5.4604,-5.4313,0.0,0.0,0.0,0.0,0.0,0.0,0.0,0.0,0.0,0.0,0.0,0.0,0.0,0.0,0.0,0.0,0.0,0.0,0.0,-2.3271,-2.3347,-2.4355,-2.3809,-2.4127,-2.5625,-2.4733,-2.4548,-2.5333,-2.4995,-2.4812,-2.4831,-2.5619,-2.6206,-2.6719,-2.7441,-2.8262,-2.9137,-3.0184,-3.1472,-3.2781,-3.3672,-3.4054,-3.4054,-3.4054,-3.3068,-3.1809,-3.2376,0.0,0.0,0.0,-3.4012,-3.4709,-3.3639,-3.3144,0.0,-3.2353,-3.2751,0.0,-3.6155,-3.5931,-3.5031,-3.5535,-3.6396,-3.7111,-3.7138,-3.8944,-4.046,-4.0083,-4.0935,-4.1581,-4.1202,-4.1598,-4.2168,-4.2765,-4.219,-4.1696,-4.1696,-4.0971,-4.0645,-4.1209,-4.2527,-4.3623,-4.4124,-4.4758,-4.5127,-4.5208,-4.6007,-4.7215,-4.8952,-4.849,-4.8707,-4.9928,-4.8816,-4.8517,-4.9114,-4.8621,-4.8819,-4.9904,-5.1242,-5.211,-5.263,-5.3268,-5.3559,-5.353,-5.292,-5.3007,-5.353,-5.292,-5.3007,-5.3559,-5.3559,-5.353,-5.35,-5.3559,-5.3559,-5.3559,0.0,0.0,0.0,0.0,0.0,0.0,0.0,0.0,0.0,0.0,0.0,0.0,0.0,0.0,0.0,0.0,0.0,0.0,0.0,-2.2831,-2.3062,-2.4367,-2.3811,-2.377,-2.4516,-2.401,-2.3975,-2.4529,-2.4675,-2.4922,-2.5179,-2.5454,-2.5637,-2.589,-2.6589,-2.7954,-2.9782,-3.0286,-3.1695,-3.3529,-3.3481,-3.3549,-3.3428,-3.2346,-3.2083,-3.2265,0.0,0.0,0.0,0.0,0.0,0.0,-3.3384,0.0,0.0,-3.4584,0.0,-3.5362,-3.6079,-3.6184,-3.6253,-3.7125,-3.7563,-3.7977,-3.8726,-3.9559,-4.0304,-4.1018,-4.1571,-4.2004,-4.2222,-4.2466,-4.2656,-4.2846,-4.2679,-4.2289,-4.1796,-4.1712,-4.1925,-4.2108,-4.3282,-4.4255,-4.5119,-4.5684,-4.6195,-4.6571,-4.6946,-4.7676,-4.906,-4.8572,-4.8789,-4.9983,-4.887,-4.8355,-4.8545,-4.9063,-4.9181,-4.8696,-5.0698,-5.196,-5.2601,-5.321,-5.35,-5.35,-5.3297,-5.3326,-5.35,-5.3297,-5.3326,-5.35,-5.35,-5.35,-5.35,-5.35,-5.35,-5.35,0.0,0.0,0.0,0.0,0.0,0.0,0.0,0.0,0.0,0.0,0.0,0.0,0.0,0.0,0.0,0.0,0.0,0.0,0.0,0.0,-2.3026,-2.3896,-2.3846,-2.3967,-2.4162,-2.4043,-2.4102,-2.4371,-2.46,-2.482,-2.5083,-2.4997,-2.5014,-2.5245,-2.5793,-2.7122,-2.9069,-2.9698,-3.1354,-3.3458,-3.2759,-3.2659,-3.2803,-3.1258,-3.0842,0.0,0.0,0.0,0.0,0.0,0.0,0.0,0.0,0.0,0.0,-3.6713,-3.692,-3.6732,-3.7023,-3.7151,-3.7317,-3.8087,-3.8251,-3.8528,-3.9612,-4.0129,-4.0576,-4.1562,-4.2085,-4.2439,-4.2819,-4.29,-4.29,-4.29,-4.2679,-4.2467,-4.2484,-4.2531,-4.2827,-4.3557,-4.425,-4.4992,-4.5885,-4.6455,-4.7025,-4.7622,-4.7676,-4.8192,-4.9386,-4.887,-4.9006,-4.9983,-4.906,-4.8545,-4.8545,-4.9064,-4.919,-4.8724,-5.0497,-5.1613,-5.2252,-5.3123,-5.3384,-5.3181,-5.3181,-5.3297,-5.35,-5.3268,-5.3326,-5.35,-5.35,-5.35,-5.35,-5.35,-5.35,-5.35,0.0,0.0,0.0,0.0,0.0,0.0,0.0,0.0,0.0,0.0,0.0,0.0,0.0,0.0,0.0,0.0,0.0,0.0,0.0,0.0,0.0,-2.2996,-2.3941,-2.439,-2.4334,-2.4634,-2.4767,-2.4598,-2.4516,-2.4447,-2.4487,-2.4428,-2.4535,-2.4868,-2.5233,-2.5995,-2.7094,-2.8466,-3.0323,-3.2387,-3.1223,-3.1384,-3.2195,-3.0523,0.0,0.0,0.0,0.0,0.0,0.0,0.0,0.0,0.0,-3.4464,-3.526,-3.8479,-3.8682,-3.7945,-3.8726,-3.8475,-3.8143,-3.832,-3.8423,-3.8776,-3.997,-4.073,-4.1327,-4.1924,-4.2493,-4.29,-4.2928,-4.29,-4.29,-4.2982,-4.2369,-4.2233,-4.3643,-4.3199,-4.3451,-4.5348,-4.5587,-4.5831,-4.6455,-4.7052,-4.7649,-4.8246,-4.83,-4.8789,-4.9956,-4.9494,-4.944,-4.9983,-4.944,-4.9114,-4.9114,-4.8517,-4.8733,-4.9904,-5.0559,-5.1075,-5.157,-5.2949,-5.3181,-5.263,-5.263,-5.2949,-5.3471,-5.2862,-5.2978,-5.35,-5.35,-5.35,-5.35,-5.35,-5.35,-5.35,0.0,0.0,0.0,0.0,0.0,0.0,0.0,0.0,0.0,0.0,0.0,0.0,0.0,0.0,0.0,0.0,0.0,0.0,0.0,0.0,0.0,0.0,0.0,0.0,0.0,0.0,0.0,0.0,0.0,-2.5303,-2.5653,-2.6349,-2.6303,-2.5776,-2.6501,-2.6943,-2.7283,-2.7895,-2.9145,-3.0628,0.0,-2.9508,-2.9952,0.0,0.0,0.0,0.0,0.0,0.0,0.0,-3.3705,-3.4381,-3.5737,-3.6258,-3.6654,-3.8464,-3.8557,-3.7896,-3.7234,-3.7373,-3.764,-3.7718,-3.8423,-3.94,-4.0621,-4.1354,-4.1951,-4.2548,-4.2792,-4.3036,-4.347,-4.3172,-4.3172,-4.4094,-4.3652,-4.3571,-4.4393,-4.4273,-4.4543,-4.5505,-4.5587,-4.5994,-4.7025,-4.7676,-4.8273,-4.887,-4.8897,-4.9223,-4.9983,-4.9874,-4.9847,-5.001,-4.944,-4.9114,-4.9114,-4.8516,-4.8535,-4.9297,-5.0351,-5.0869,-5.103,-5.2712,-5.3442,-5.3268,-5.3268,-5.3355,-5.35,-5.3326,-5.3355,-5.35,-5.35,-5.35,-5.35,-5.35,-5.35,-5.35,0.0,0.0,0.0,0.0,0.0,0.0,0.0,0.0,0.0,0.0,0.0,0.0,0.0,0.0,0.0,0.0,0.0,0.0,0.0,0.0,0.0,0.0,0.0,0.0,0.0,0.0,0.0,0.0,0.0,0.0,0.0,-2.5654,-2.5455,-2.5162,-2.6044,-2.6373,-2.64,0.0,0.0,0.0,0.0,0.0,0.0,0.0,0.0,0.0,0.0,0.0,0.0,0.0,-3.1847,-3.309,-3.5763,-3.6307,-3.6305,-3.8366,-3.8394,-3.7646,-3.6688,-3.6988,-3.7582,-3.7853,-3.8613,-3.9617,-4.0838,-4.154,-4.2043,-4.2481,-4.2685,-4.2972,-4.3378,-4.3308,-4.3416,-4.3823,-4.4067,-4.4312,-4.4664,-4.4936,-4.5316,-4.5912,-4.5967,-4.6347,-4.7269,-4.7893,-4.849,-4.9087,-4.9386,-4.9657,-4.9983,-5.001,-5.001,-5.001,-4.9684,-4.9521,-4.9521,-4.8927,-4.8921,-4.9431,-5.0424,-5.0777,-5.0832,-5.27,-5.3355,-5.3123,-5.3384,-5.35,-5.35,-5.35,-5.35,-5.35,-5.35,-5.35,-5.35,-5.35,-5.35,-5.3559,0.0,0.0,0.0,0.0,0.0,0.0,0.0,0.0,0.0,0.0,0.0,0.0,0.0,0.0,0.0,0.0,0.0,0.0,0.0,0.0,0.0,0.0,0.0,0.0,0.0,0.0,0.0,0.0,0.0,0.0,0.0,0.0,0.0,0.0,0.0,0.0,0.0,0.0,0.0,0.0,0.0,0.0,0.0,0.0,0.0,0.0,0.0,0.0,0.0,0.0,-3.0436,-3.215,-3.5059,-3.5402,-3.5292,-3.7863,-3.8054,-3.7392,-3.6687,-3.6985,-3.7663,-3.8179,-3.8749,-3.9481,-4.0713,-4.1343,-4.1865,-4.2043,-4.2477,-4.2818,-4.2876,-4.3296,-4.3416,-4.3063,-4.3904,-4.4664,-4.4908,-4.5397,-4.5885,-4.6428,-4.6482,-4.6727,-4.7405,-4.7948,-4.8517,-4.9196,-4.9711,-5.001,-5.001,-5.001,-5.001,-5.001,-5.001,-5.001,-5.001,-4.9413,-4.9255,-4.9643,-5.0472,-5.0796,-5.0659,-5.2584,-5.321,-5.2717,-5.3268,-5.35,-5.35,-5.35,-5.35,-5.35,-5.35,-5.35,-5.353,-5.3617,-5.3646,-5.3733,0.0,0.0,0.0,0.0,0.0,0.0,0.0,0.0,0.0,0.0,0.0,0.0,0.0,0.0,0.0,0.0,0.0,0.0,0.0,0.0,0.0,0.0,0.0,0.0,0.0,0.0,0.0,0.0,0.0,0.0,0.0,0.0,0.0,0.0,0.0,0.0,0.0,0.0,0.0,0.0,0.0,0.0,0.0,0.0,0.0,0.0,0.0,0.0,0.0,0.0,-2.9593,-3.1549,-3.354,-3.4789,-3.5557,-3.6143,-3.6822,-3.7284,-3.6171,-3.6687,-3.7555,-3.7663,-3.8125,-3.8836,-3.9898,-4.1011,-4.1937,-4.2321,-4.2944,-4.3338,-4.283,-4.2507,-4.2602,-4.347,-4.3796,-4.4447,-4.5967,-4.6265,-4.6347,-4.6455,-4.6482,-4.6889,-4.7975,-4.8192,-4.8707,-4.9766,-4.9956,-5.001,-5.001,-5.001,-5.001,-5.001,-5.001,-5.001,-5.001,-4.9413,-4.8953,-4.8464,-5.015,-5.06,-5.0162,-5.2473,-5.3442,-5.3355,-5.3471,-5.35,-5.35,-5.35,-5.35,-5.35,-5.35,-5.35,-5.3588,-5.4139,-5.4342,-5.4429,0.0,0.0,0.0,0.0,0.0,0.0,0.0,0.0,0.0,0.0,0.0,0.0,0.0,0.0,0.0,0.0,0.0,0.0,0.0,0.0,0.0,0.0,0.0,0.0,0.0,0.0,-2.2128,-2.2991,0.0,-2.3087,-2.4121,-2.4097,-2.3953,-2.3737,-2.4001,0.0,0.0,0.0,0.0,0.0,0.0,0.0,0.0,0.0,0.0,0.0,0.0,0.0,0.0,0.0,-2.9113,-3.0457,-3.2584,-3.411,-3.5182,-3.5508,-3.6329,-3.6849,-3.5954,-3.6361,-3.7039,-3.7039,-3.7501,-3.8102,-3.8803,-3.967,-4.043,-4.0938,-4.1471,-4.1887,-4.1708,-4.1517,-4.1633,-4.2249,-4.29,-4.3715,-4.4908,-4.5343,-4.5777,-4.6401,-4.6211,-4.6591,-4.811,-4.8246,-4.8735,-4.9928,-5.001,-5.001,-5.001,-5.001,-5.001,-5.001,-5.001,-5.001,-5.001,-4.9739,-4.9388,-4.9118,-5.027,-5.0892,-5.0966,-5.2329,-5.3184,-5.35,-5.35,-5.3704,-5.4023,-5.4023,-5.4226,-5.4487,-5.4487,-5.4487,-5.4546,-5.4865,-5.4981,-5.5068,0.0,0.0,0.0,0.0,0.0,0.0,0.0,0.0,0.0,0.0,0.0,0.0,0.0,0.0,0.0,0.0,0.0,0.0,0.0,0.0,0.0,0.0,0.0,0.0,0.0,0.0,0.0,-2.2819,-2.1753,0.0,0.0,0.0,0.0,0.0,-2.3256,-2.2967,-2.2283,0.0,0.0,0.0,0.0,-2.3989,0.0,0.0,0.0,0.0,0.0,0.0,0.0,0.0,-2.8615,-2.9704,-3.1644,-3.3191,-3.4358,-3.5205,-3.5894,-3.6307,-3.5845,-3.6144,-3.6605,-3.6605,-3.6985,-3.7368,-3.7814,-3.8391,-3.8889,-3.9278,-3.9779,-4.0094,-4.0148,-4.0134,-4.0343,-4.0613,-4.1746,-4.2846,-4.3823,-4.4501,-4.5288,-4.6347,-4.6048,-4.6374,-4.7893,-4.8165,-4.868,-4.9739,-4.9956,-5.001,-5.001,-5.001,-5.001,-5.001,-5.001,-5.001,-5.001,-5.001,-4.9936,-4.9748,-5.0492,-5.1123,-5.1498,-5.2231,-5.2972,-5.35,-5.35,-5.3907,-5.4517,-5.4517,-5.4865,-5.5416,-5.5416,-5.5416,-5.5416,-5.5562,-5.562,-5.5707,0.0,0.0,0.0,0.0,0.0,0.0,0.0,0.0,0.0,0.0,0.0,0.0,0.0,0.0,0.0,0.0,0.0,0.0,0.0,0.0,0.0,0.0,0.0,0.0,0.0,0.0,0.0,-2.2213,-2.118,0.0,0.0,0.0,0.0,0.0,0.0,-2.2294,-2.2259,-2.3236,0.0,0.0,0.0,0.0,0.0,0.0,0.0,0.0,0.0,-2.5368,-2.5959,0.0,-2.8026,-2.991,-3.0382,-3.1656,-3.3256,-3.45,-3.5304,-3.5791,-3.5737,-3.6144,-3.6605,-3.6605,-3.6632,-3.6716,-3.6972,-3.7938,-3.8658,-3.839,-3.8925,-3.9173,-3.8069,-3.8165,-3.8558,-3.9078,-4.0404,-4.2059,-4.4312,-4.5126,-4.575,-4.6401,-4.6428,-4.6672,-4.7378,-4.792,-4.8517,-4.9169,-4.9711,-5.001,-5.001,-5.001,-5.001,-5.001,-5.001,-5.001,-5.001,-5.001,-4.9711,-4.9252,-5.0381,-5.0905,-5.0995,-5.2124,-5.2972,-5.35,-5.35,-5.3907,-5.4517,-5.4517,-5.4865,-5.5416,-5.5416,-5.5416,-5.5474,-5.6084,-5.6316,-5.6403,0.0,0.0,0.0,0.0,0.0,0.0,0.0,0.0,0.0,0.0,0.0,0.0,0.0,0.0,0.0,0.0,0.0,0.0,0.0,0.0,0.0,0.0,0.0,0.0,0.0,0.0,-2.1911,-2.1908,-2.1312,0.0,0.0,0.0,0.0,0.0,0.0,-2.2383,-2.2665,-2.3305,0.0,0.0,0.0,0.0,0.0,0.0,0.0,0.0,0.0,0.0,-2.5507,-2.6489,-2.7741,-2.9215,-3.1346,-3.2226,-3.2741,-3.4149,-3.5602,-3.6659,-3.5927,-3.6144,-3.6605,-3.6605,-3.6334,-3.6251,-3.68,-3.6704,-3.6674,-3.7011,-3.7329,-3.7422,-3.7082,-3.7147,-3.7433,-3.7841,-3.9294,-4.1005,-4.2792,-4.3904,-4.499,-4.6319,-4.6157,-4.6319,-4.7269,-4.7893,-4.8626,-4.9576,-4.9874,-5.001,-5.001,-5.001,-5.001,-5.001,-5.001,-5.001,-5.001,-5.001,-5.0064,-5.02,-5.0644,-5.132,-5.1983,-5.2428,-5.3223,-5.411,-5.411,-5.4458,-5.5068,-5.5474,-5.5794,-5.6055,-5.6403,-5.6549,-5.6578,-5.6839,-5.6955,-5.6984,0.0,0.0,0.0,0.0,0.0,0.0,0.0,0.0,0.0,0.0,0.0,0.0,0.0,0.0,0.0,0.0,0.0,0.0,0.0,0.0,0.0,0.0,0.0,0.0,0.0,0.0,-2.1826,-2.2021,-2.1513,-2.1568,0.0,0.0,-2.2089,-2.2604,0.0,0.0,0.0,0.0,0.0,0.0,0.0,0.0,0.0,0.0,0.0,0.0,0.0,0.0,0.0,0.0,0.0,-2.8702,0.0,0.0,0.0,0.0,-3.571,-3.6716,-3.5683,-3.6008,-3.6605,-3.6605,-3.6117,-3.5812,-3.6716,-3.5883,-3.5208,-3.5883,-3.588,-3.5739,-3.5913,-3.6213,-3.6514,0.0,0.0,-4.0398,-4.1677,-4.316,-4.4664,-4.6292,-4.6265,-4.6455,-4.7269,-4.7893,-4.8735,-4.9928,-5.001,-5.001,-5.001,-5.001,-5.001,-5.001,-5.001,-5.0091,-5.0254,-5.0281,-5.058,-5.1177,-5.1177,-5.1642,-5.2491,-5.2603,-5.3153,-5.4013,-5.4322,-5.4749,-5.5184,-5.5852,-5.6229,-5.6461,-5.6868,-5.7158,-5.7303,-5.7303,-5.7303,-5.7303,0.0,0.0,0.0,0.0,0.0,0.0,0.0,0.0,0.0,0.0,0.0,0.0,0.0,0.0,0.0,0.0,0.0,0.0,0.0,0.0,0.0,0.0,0.0,0.0,0.0,0.0,-2.1983,-2.2564,-2.1614,-2.1684,-2.2788,-2.2788,-2.3097,-2.3577,0.0,0.0,0.0,0.0,0.0,0.0,0.0,0.0,0.0,0.0,0.0,0.0,0.0,0.0,0.0,0.0,0.0,0.0,0.0,0.0,0.0,0.0,-3.5466,-3.5311,-3.492,-3.571,-3.6605,-3.6605,-3.5951,-3.5604,-3.6682,-3.5798,-3.4825,-3.5317,-3.4864,-3.4428,-3.4428,-3.5094,-3.5939,-3.6522,-3.8447,-4.0349,-4.1562,-4.3464,-4.5126,-4.6347,-4.6998,-4.7351,-4.7351,-4.7893,-4.8735,-4.9928,-5.001,-5.001,-5.001,-5.001,-5.001,-5.001,-5.001,-5.0308,-5.0878,-5.0878,-5.1204,-5.1828,-5.1828,-5.185,-5.179,-5.2463,-5.2678,-5.268,-5.3984,-5.4517,-5.4575,-5.5184,-5.5823,-5.6403,-5.6432,-5.6781,-5.7303,-5.7303,-5.7303,-5.7303,0.0,0.0,0.0,0.0,0.0,0.0,0.0,0.0,0.0,0.0,0.0,0.0,0.0,0.0,0.0,0.0,0.0,0.0,0.0,0.0,0.0,0.0,0.0,0.0,0.0,0.0,0.0,-2.3017,-2.2829,-2.29,-2.3184,-2.2902,-2.3097,-2.3577,-2.3577,-2.3754,0.0,0.0,0.0,0.0,0.0,0.0,0.0,0.0,0.0,0.0,0.0,0.0,0.0,0.0,0.0,0.0,0.0,0.0,0.0,0.0,0.0,0.0,-3.5204,-3.5411,-3.5971,-3.6623,-3.5642,-3.4845,-3.6363,-3.5024,-3.3693,-3.4564,-3.4545,-3.4399,-3.4399,-3.5305,-3.6086,-3.5996,-3.8464,-4.0535,-4.0983,-4.319,-4.499,-4.5777,-4.6401,-4.7079,-4.7893,-4.8138,-4.8735,-4.9928,-5.001,-5.001,-5.001,-5.001,-5.001,-5.001,-5.0417,-5.0715,-5.0905,-5.1312,-5.1828,-5.2452,-5.2452,-5.2479,-5.2453,-5.2994,-5.3555,-5.4047,-5.4822,-5.5387,-5.5852,-5.6461,-5.6578,-5.6461,-5.6868,-5.7129,-5.7303,-5.7303,-5.7303,-5.7303,0.0,0.0,0.0,0.0,0.0,0.0,0.0,0.0,0.0,0.0,0.0,0.0,0.0,0.0,0.0,0.0,0.0,0.0,0.0,0.0,0.0,0.0,0.0,0.0,0.0,0.0,-2.3662,-2.3527,-2.3876,-2.4032,-2.4003,-2.3962,-2.4032,-2.4105,-2.4105,-2.4279,0.0,0.0,0.0,0.0,0.0,0.0,0.0,0.0,0.0,0.0,0.0,0.0,0.0,0.0,0.0,0.0,0.0,0.0,0.0,0.0,0.0,0.0,0.0,-3.5013,-3.5781,-3.6375,-3.5405,-3.4808,-3.6532,-3.5153,-3.3869,-3.5201,-3.5125,-3.4777,-3.4777,-3.5822,-3.6678,-3.6691,-3.9074,-4.1075,-4.1424,-4.3122,-4.4746,-4.5804,-4.6645,-4.7513,-4.849,-4.8572,-4.8979,-4.9956,-5.001,-5.001,-5.001,-5.001,-5.0118,-5.0335,-5.0688,-5.1014,-5.1258,-5.1855,-5.2452,-5.3049,-5.3049,-5.2852,-5.241,-5.3187,-5.3726,-5.3973,-5.4973,-5.5649,0.0,-5.6723,-5.6752,-5.6432,-5.681,-5.71,-5.7303,-5.7303,-5.7303,-5.7303,0.0,0.0,0.0,0.0,0.0,0.0,0.0,0.0,0.0,0.0,0.0,0.0,0.0,0.0,0.0,0.0,0.0,0.0,0.0,0.0,0.0,0.0,0.0,0.0,0.0,-2.331,-2.3581,-2.4177,-2.4829,-2.5127,-2.5154,-2.5751,-2.5697,-2.5127,-2.51,-2.5046,0.0,0.0,0.0,0.0,0.0,0.0,0.0,0.0,0.0,0.0,0.0,0.0,0.0,0.0,0.0,0.0,0.0,0.0,0.0,0.0,0.0,0.0,0.0,0.0,-3.5826,-3.5855,-3.5249,-3.5139,-3.7053,0.0,0.0,0.0,0.0,-3.5369,-3.5427,-3.6431,-3.7506,-3.8173,-4.0117,-4.1751,-4.2514,-4.3409,-4.4501,-4.6157,-4.7432,-4.8409,-4.8952,-4.9087,-4.9386,-4.9956,-5.001,-5.001,-5.001,-5.001,-5.0281,-5.0878,-5.0932,-5.1258,-5.1882,-5.2479,-5.3049,-5.3592,-5.3592,-5.2968,-5.1828,-5.3101,-5.336,-5.2909,-5.4639,-5.5503,-5.5591,-5.6229,-5.6461,-5.6461,-5.6461,-5.681,-5.7303,-5.7303,-5.7303,-5.7303,0.0,0.0,0.0,0.0,0.0,0.0,0.0,0.0,0.0,0.0,0.0,0.0,0.0,0.0,0.0,0.0,0.0,0.0,0.0,0.0,0.0,0.0,0.0,0.0,0.0,-2.4584,-2.4666,-2.4801,-2.5887,-2.6402,-2.6402,-2.6999,-2.6972,-2.6375,-2.5887,0.0,0.0,0.0,0.0,0.0,0.0,0.0,0.0,0.0,0.0,0.0,0.0,0.0,0.0,0.0,0.0,0.0,0.0,0.0,0.0,0.0,-2.9894,0.0,0.0,0.0,-3.3842,-3.4606,-3.4283,0.0,0.0,0.0,0.0,0.0,0.0,0.0,-3.5339,-3.6431,-3.768,-3.8783,-4.0402,-4.192,-4.3013,-4.4331,-4.5153,-4.5126,-4.6564,-4.7622,-4.7758,-4.8599,-4.9386,-4.9956,-5.001,-5.001,-5.001,-5.001,-5.0281,-5.0878,-5.1367,-5.1909,-5.2506,-5.3103,-5.3456,-5.3592,-5.3592,-5.2968,-5.1855,-5.3546,-5.3978,-5.3557,-5.5329,-5.6432,-5.6868,-5.7013,-5.71,-5.71,-5.71,-5.7187,-5.7303,-5.7303,-5.7303,-5.7303,0.0,0.0,0.0,0.0,0.0,0.0,0.0,0.0,0.0,0.0,0.0,0.0,0.0,0.0,0.0,0.0,0.0,0.0,0.0,0.0,0.0,0.0,0.0,0.0,0.0,-2.5263,-2.5398,-2.5398,-2.6619,-2.7081,-2.6837,-2.7135,-2.6972,-2.6375,-2.5751,0.0,0.0,0.0,0.0,0.0,0.0,0.0,0.0,0.0,0.0,0.0,0.0,0.0,0.0,-2.5018,-2.5018,-2.5075,0.0,0.0,0.0,0.0,-2.8828,0.0,0.0,0.0,-3.2918,-3.3752,0.0,0.0,0.0,0.0,0.0,0.0,0.0,0.0,-3.5899,-3.7238,-3.8515,-3.9333,-4.0689,-4.2036,-4.2979,-4.4065,-4.4746,-4.4719,-4.6265,-4.7351,-4.7351,-4.8436,-4.9386,-4.9956,-4.9766,-4.9739,-5.001,-5.001,-5.0417,-5.1285,-5.1665,-5.2126,-5.2696,-5.3293,-5.3592,-5.3592,-5.3592,-5.3103,-5.2235,-5.3824,-5.4344,-5.4177,-5.5674,-5.6752,-5.7303,-5.7303,-5.7303,-5.7303,-5.7303,-5.7303,-5.7303,-5.7303,-5.7303,-5.7303,0.0,0.0,0.0,0.0,0.0,0.0,0.0,0.0,0.0,0.0,0.0,0.0,0.0,0.0,0.0,0.0,0.0,0.0,0.0,0.0,0.0,0.0,0.0,0.0,-2.5154,-2.5643,-2.5941,-2.6022,-2.7352,-2.7705,-2.7216,-2.7325,-2.6891,-2.5995,-2.5317,0.0,0.0,0.0,0.0,0.0,0.0,0.0,0.0,0.0,0.0,0.0,0.0,0.0,0.0,-2.5018,-2.5018,-2.5075,-2.53,0.0,0.0,0.0,0.0,0.0,0.0,-3.1257,-3.2413,-3.3202,0.0,0.0,0.0,0.0,0.0,0.0,0.0,0.0,-3.69,-3.8261,-3.9524,-4.0013,-4.1285,-4.2323,-4.2725,-4.3416,-4.404,-4.4393,-4.6157,-4.7296,-4.7106,-4.8327,-4.9331,-4.9847,-4.9413,-4.9386,-4.9983,-5.001,-5.058,-5.1801,-5.1828,-5.2154,-5.2832,-5.3347,-5.3592,-5.3592,-5.3592,-5.3293,-5.2815,-5.4074,-5.4625,-5.477,-5.6044,-5.6839,-5.7303,-5.7303,-5.7303,-5.7303,-5.7303,-5.7303,-5.7303,-5.7303,-5.7303,-5.7303,0.0,0.0,0.0,0.0,0.0,0.0,0.0,0.0,0.0,0.0,0.0,0.0,0.0,0.0,0.0,0.0,0.0,0.0,0.0,0.0,0.0,0.0,0.0,-2.5236,-2.5751,-2.5833,-2.6158,-2.6674,-2.8383,-2.917,-2.9089,-2.9604,-2.8736,-2.6619,-2.5507,-2.5018,0.0,0.0,0.0,0.0,-2.491,0.0,0.0,0.0,0.0,0.0,0.0,0.0,0.0,-2.5018,-2.5018,-2.5018,-2.5075,0.0,0.0,0.0,0.0,0.0,-2.8873,-3.0074,-3.1425,-3.2691,-3.2978,0.0,0.0,0.0,0.0,0.0,0.0,-3.6693,-3.7939,-3.8859,-3.995,-4.1755,-4.3204,-4.3643,-4.2345,-4.3552,-4.4203,-4.328,-4.5641,-4.6971,-4.5967,-4.7839,-4.9169,-4.925,-4.9169,-4.9386,-4.9983,-5.001,-5.058,-5.1801,-5.1828,-5.2343,-5.3456,-5.3537,-5.3592,-5.3592,-5.3592,-5.3506,-5.3496,-5.4753,-5.5421,-5.5395,-5.6589,-5.7216,-5.7303,-5.7303,-5.7303,-5.7303,-5.7303,-5.7303,-5.7303,-5.7303,-5.7303,-5.7303,0.0,0.0,0.0,0.0,0.0,0.0,0.0,0.0,0.0,0.0,0.0,0.0,0.0,0.0,0.0,0.0,0.0,0.0,0.0,0.0,0.0,0.0,-2.5018,-2.529,-2.5887,-2.6212,-2.6999,-2.8248,-2.9414,-3.0147,-3.0446,-2.9414,-2.8003,-2.6294,-2.5398,-2.5018,-2.5018,0.0,0.0,0.0,0.0,0.0,0.0,0.0,0.0,0.0,0.0,0.0,0.0,0.0,-2.5018,-2.5018,-2.5018,0.0,0.0,0.0,0.0,0.0,-2.9157,-3.0063,-3.116,-3.3083,-3.3564,0.0,0.0,0.0,0.0,0.0,-3.6514,-3.6968,-3.8022,-3.9285,-4.0566,-4.2012,-4.2751,-4.3026,-4.2521,-4.3199,-4.3769,-4.385,-4.537,-4.6319,-4.6102,-4.7351,-4.8436,-4.9087,-4.8843,-4.906,-4.9956,-5.001,-5.058,-5.1801,-5.1828,-5.2398,-5.3592,-5.3592,-5.3592,-5.3592,-5.3926,-5.4121,-5.4082,-5.5444,-5.6022,-5.5994,-5.6962,-5.7303,-5.7303,-5.7303,-5.7303,-5.7303,-5.7303,-5.7303,-5.7303,-5.7303,-5.7303,-5.7303,0.0,0.0,0.0,0.0,0.0,0.0,0.0,0.0,0.0,0.0,0.0,0.0,0.0,0.0,0.0,0.0,0.0,0.0,0.0,0.0,-2.5018,-2.5018,-2.5018,-2.5344,-2.6104,-2.6728,-2.7922,-2.9686,-3.0174,-3.0554,-3.0825,-2.8709,-2.7135,-2.6077,-2.5344,-2.5018,-2.5018,-2.5018,0.0,0.0,0.0,0.0,0.0,0.0,0.0,0.0,0.0,0.0,0.0,0.0,0.0,0.0,0.0,0.0,0.0,0.0,-2.6734,-2.7631,-2.9313,-3.0326,-3.1433,-3.3545,0.0,0.0,-3.4974,-3.5635,-3.6241,-3.6856,-3.727,-3.7777,-3.8587,-4.0123,-4.1452,-4.1964,-4.2114,-4.2331,-4.2629,-4.2792,-4.328,-4.4366,-4.5261,-4.5967,-4.6428,-4.7269,-4.8219,-4.925,-4.8924,-4.9169,-5.0363,-5.0444,-5.0932,-5.2018,-5.2045,-5.2533,-5.3592,-5.3592,-5.3713,-5.3833,-5.4286,-5.4616,-5.497,-5.5933,-5.6509,-5.6623,-5.7078,-5.7303,-5.7303,-5.7303,-5.7303,-5.7303,-5.7303,-5.7303,-5.7303,-5.7303,-5.7303,-5.7303,0.0,0.0,0.0,0.0,0.0,0.0,0.0,0.0,0.0,0.0,0.0,0.0,0.0,0.0,0.0,0.0,0.0,0.0,0.0,0.0,-2.5018,-2.5018,-2.5018,-2.5561,-2.6728,-2.7352,-2.8519,-3.0337,-3.0391,-3.0147,-2.9577,-2.8302,-2.7352,-2.6701,-2.5534,-2.5018,-2.5018,-2.5018,-2.5018,0.0,0.0,0.0,0.0,0.0,0.0,0.0,0.0,0.0,0.0,0.0,0.0,0.0,0.0,0.0,0.0,-2.5782,-2.6589,-2.7538,-2.8438,-3.0422,-3.2472,-3.3684,-3.3375,0.0,-3.5244,-3.6029,-3.6567,-3.7123,-3.8449,-3.9704,-4.0493,-4.1742,-4.2548,-4.2086,-4.2466,-4.2629,-4.2141,-4.2548,-4.3118,-4.3769,-4.537,-4.6428,-4.6482,-4.8002,-4.925,-4.9901,-4.9901,-5.0417,-5.1638,-5.1692,-5.1991,-5.2615,-5.2642,-5.2968,-5.3592,-5.3592,-5.3833,-5.4378,-5.4497,-5.5088,-5.6279,-5.6394,-5.6737,-5.7191,-5.7303,-5.7303,-5.7303,-5.7303,-5.7303,-5.7303,-5.7303,-5.7303,-5.7303,-5.7303,-5.7303,-5.7303,0.0,0.0,0.0,0.0,0.0,0.0,0.0,0.0,0.0,0.0,0.0,0.0,0.0,0.0,0.0,0.0,0.0,0.0,0.0,0.0,-2.5018,-2.5018,-2.5018,-2.5398,-2.6212,-2.7216,-2.86,-3.0418,-3.0771,-3.0663,-3.0038,-2.8438,-2.7406,-2.6782,-2.5561,-2.5018,-2.5018,-2.5018,-2.5018,-2.5018,0.0,0.0,0.0,0.0,0.0,0.0,0.0,0.0,0.0,0.0,0.0,0.0,0.0,0.0,0.0,0.0,-2.6859,-2.751,-2.9898,-3.1117,-3.2324,-3.521,-3.5213,0.0,-3.6931,-3.7476,-3.7836,-3.8437,-3.8714,-3.9459,-4.1223,-4.1665,-4.2059,-4.2955,-4.2683,-4.2521,-4.3036,-4.3308,-4.3932,-4.5288,-4.6048,-4.6754,-4.7513,-4.8192,-4.8816,-4.9413,-4.9793,-5.0363,-5.1204,-5.1611,-5.2099,-5.2696,-5.2723,-5.2995,-5.3592,-5.3926,-5.4524,-5.5116,-5.5116,-5.5584,-5.6394,-5.6737,-5.7078,-5.7303,-5.7303,-5.7303,-5.7303,-5.7303,-5.7303,-5.7303,-5.7303,-5.7303,-5.7303,-5.7303,-5.7303,-5.7303,0.0,0.0,0.0,0.0,0.0,0.0,0.0,0.0,0.0,0.0,0.0,0.0,0.0,0.0,0.0,0.0,0.0,0.0,0.0,0.0,-2.5018,-2.5018,-2.5018,-2.529,-2.5887,-2.6891,-2.8302,-3.012,-3.0717,-3.05,-2.9523,-2.8085,-2.7216,-2.6782,-2.5561,-2.5127,-2.5263,-2.5073,-2.5018,-2.5018,-2.5018,0.0,0.0,0.0,0.0,0.0,0.0,0.0,0.0,0.0,0.0,0.0,0.0,0.0,0.0,0.0,-2.7176,-2.8012,-3.0856,-3.2116,-3.3356,-3.6469,0.0,-3.7452,-3.8912,-3.8966,-3.8803,-3.921,-3.959,-4.0268,-4.1734,-4.2141,-4.2575,-4.3606,-4.309,-4.2982,-4.4176,-4.4339,-4.4936,-4.6564,-4.6916,-4.7432,-4.8436,-4.8707,-4.906,-4.963,-5.0254,-5.0851,-5.1448,-5.2045,-5.2588,-5.2968,-5.2995,-5.3185,-5.3592,-5.4166,-5.4734,-5.5261,-5.5613,-5.6049,-5.6737,-5.7078,-5.7303,-5.7303,-5.7303,-5.7303,-5.7303,-5.7303,-5.7303,-5.7303,-5.7303,-5.7303,-5.7303,-5.7303,-5.7303,-5.7303,0.0,0.0,0.0,0.0,0.0,0.0,0.0,0.0,0.0,0.0,0.0,0.0,0.0,0.0,0.0,0.0,0.0,0.0,0.0,-2.5018,-2.5018,-2.5018,-2.5018,-2.529,-2.586,-2.6484,-2.7678,-2.9469,-3.0093,-2.9469,-2.7678,-2.7081,-2.6809,-2.6755,-2.5561,-2.5317,-2.5833,-2.5263,-2.5018,-2.5018,-2.5018,-2.5018,0.0,0.0,0.0,0.0,0.0,0.0,0.0,0.0,0.0,0.0,0.0,0.0,0.0,0.0,-2.7651,-2.898,-3.0825,-3.332,-3.5723,-3.7177,-3.8683,-4.0151,-4.093,-4.0187,-3.9319,-3.9319,-4.1218,-4.2711,-4.2114,-4.347,-4.4501,-4.3877,-4.3796,-4.4203,-4.5424,-4.5587,-4.6048,-4.7242,-4.7893,-4.849,-4.9087,-4.9657,-5.0254,-5.0851,-5.1475,-5.2072,-5.2669,-5.3266,-5.3592,-5.3592,-5.3592,-5.3592,-5.3592,-5.4166,-5.4497,-5.4497,-5.5817,-5.6737,-5.7303,-5.7303,-5.7303,-5.7303,-5.7303,-5.7303,-5.7303,-5.7303,-5.7303,-5.7303,-5.7303,-5.7303,-5.7303,-5.7303,-5.7303,-5.7303,0.0,0.0,0.0,0.0,0.0,0.0,0.0,0.0,0.0,0.0,0.0,0.0,0.0,0.0,0.0,0.0,0.0,0.0,0.0,-2.4536,-2.465,-2.5018,-2.5018,-2.5073,-2.5263,-2.586,-2.6837,-2.822,-2.841,-2.803,-2.7081,-2.6457,-2.6158,-2.6131,-2.5344,-2.51,-2.5263,-2.5073,-2.5018,-2.5018,-2.5018,-2.5018,0.0,0.0,0.0,0.0,0.0,0.0,0.0,0.0,0.0,0.0,0.0,0.0,0.0,-2.6667,-2.7475,-2.8627,-3.1694,-3.3424,-3.5029,-3.8016,-3.9135,-3.9796,-4.0838,-4.0838,-4.0594,-4.0594,-4.1137,-4.1978,-4.3036,-4.3335,-4.3769,-4.4881,-4.5044,-4.5316,-4.6102,-4.6564,-4.7269,-4.8463,-4.8762,-4.9087,-4.9684,-4.9901,-5.0091,-5.0254,-5.1231,-5.1909,-5.2072,-5.3049,-5.3592,-5.3592,-5.3592,-5.3592,-5.3592,-5.4671,-5.5261,-5.5261,-5.6394,-5.6851,-5.6623,-5.7078,-5.7303,-5.7303,-5.7303,-5.7303,-5.7303,-5.7303,-5.7303,-5.7303,-5.7303,-5.7303,-5.7303,-5.7303,-5.7303,-5.7303,0.0,0.0,0.0,0.0,0.0,0.0,0.0,0.0,0.0,0.0,0.0,0.0,0.0,0.0,0.0,0.0,0.0,0.0,0.0,0.0,-2.4221,-2.4708,-2.4536,-2.4536,-2.4708,-2.5271,-2.5953,-2.6647,-2.7108,-2.7054,-2.6457,-2.6321,-2.6267,-2.624,-2.5887,-2.5724,-2.5724,-2.5453,-2.5371,-2.5371,-2.5371,-2.5371,0.0,0.0,0.0,0.0,0.0,0.0,0.0,0.0,0.0,0.0,0.0,0.0,0.0,-2.7446,-2.863,-3.0174,-3.3268,-3.5086,-3.6659,-3.9047,-4.0024,-4.0621,-4.1598,-4.1272,-4.0892,-4.1381,-4.1842,-4.2439,-4.328,-4.3904,-4.4664,-4.575,-4.594,-4.6319,-4.7378,-4.7839,-4.8409,-4.9359,-4.9494,-4.963,-4.9983,-5.001,-5.001,-5.001,-5.115,-5.1828,-5.1828,-5.294,-5.3592,-5.3592,-5.3592,-5.3592,-5.3592,-5.4643,-5.4998,-5.479,-5.6279,-5.6623,-5.6077,-5.6964,-5.7303,-5.7303,-5.7303,-5.7303,-5.7303,-5.7303,-5.7303,-5.7303,-5.7303,-5.7303,-5.7303,-5.7303,-5.7303,-5.7303,0.0,0.0,0.0,0.0,0.0,0.0,0.0,0.0,0.0,0.0,0.0,0.0,0.0,0.0,0.0,0.0,0.0,0.0,0.0,0.0,-2.3754,-2.4221,-2.3813,-2.3813,-2.4279,-2.4866,-2.5069,-2.5018,-2.6158,-2.643,-2.5833,-2.6457,-2.6728,-2.6728,-2.6728,-2.6728,-2.6701,-2.6077,-2.5805,-2.5805,-2.5805,-2.5805,0.0,0.0,0.0,0.0,0.0,0.0,0.0,0.0,0.0,0.0,0.0,-2.5825,-2.6565,-2.8298,-3.0378,-3.2616,-3.4923,-3.7311,-3.9319,-3.9997,-4.1137,-4.2249,-4.2819,-4.1707,-4.0838,-4.1951,-4.2982,-4.3579,-4.3199,-4.4908,-4.6428,-4.6537,-4.6591,-4.7215,-4.8897,-4.9169,-4.9413,-4.9956,-5.001,-5.001,-5.001,-5.001,-5.001,-5.001,-5.115,-5.1828,-5.1828,-5.294,-5.3592,-5.3592,-5.3592,-5.3592,-5.3592,-5.4166,-5.4286,-5.3713,-5.5584,-5.6049,-5.5613,-5.6737,-5.7303,-5.7303,-5.7303,-5.7303,-5.7303,-5.7303,-5.7303,-5.7303,-5.7303,-5.7303,-5.7303,-5.7303,-5.7303,-5.7303,0.0,0.0,0.0,0.0,0.0,0.0,0.0,0.0,0.0,0.0,0.0,0.0,0.0,0.0,0.0,0.0,0.0,0.0,0.0,0.0,-2.3245,-2.3754,-2.3636,-2.3813,-2.4279,-2.4411,-2.4642,-2.5018,-2.5724,-2.5778,-2.5208,-2.5805,-2.6104,-2.6104,-2.6104,-2.6104,-2.605,-2.5453,-2.5181,-2.5181,-2.5181,-2.5181,-2.5154,0.0,0.0,0.0,0.0,0.0,0.0,0.0,0.0,0.0,-2.5131,-2.554,-2.6194,-2.7006,-2.929,-3.1911,-3.381,-3.609,-3.8288,-3.9807,-4.1435,-4.2846,-4.3443,-4.328,-4.3063,-4.3335,-4.3226,-4.347,-4.4773,-4.5424,-4.6075,-4.7025,-4.7568,-4.8165,-4.9006,-4.9521,-4.9874,-4.9983,-5.001,-5.001,-5.001,-5.001,-5.001,-5.001,-5.115,-5.1828,-5.1828,-5.294,-5.3592,-5.3592,-5.3592,-5.3592,-5.3592,-5.4166,-5.4378,-5.4259,-5.5701,-5.6279,-5.6164,-5.6964,-5.7303,-5.7303,-5.7303,-5.7303,-5.7303,-5.7303,-5.7303,-5.7303,-5.7303,-5.7303,-5.7303,-5.7303,-5.7303,-5.7303,0.0,0.0,0.0,0.0,0.0,0.0,0.0,0.0,0.0,0.0,0.0,0.0,0.0,0.0,0.0,0.0,0.0,0.0,0.0,0.0,0.0,-2.2944,-2.3125,-2.3458,-2.393,-2.393,-2.4279,-2.5018,-2.5317,-2.5317,0.0,0.0,0.0,-2.5887,0.0,-2.6348,-2.6321,-2.5995,-2.605,-2.6294,-2.6294,-2.6131,-2.5833,-2.5534,0.0,0.0,0.0,0.0,0.0,0.0,0.0,0.0,0.0,0.0,-2.6777,-2.7919,-2.9738,-3.1938,-3.4869,-3.6361,-3.7663,-4.0051,-4.1544,-4.2683,-4.3579,-4.4013,-4.4366,-4.4936,-4.4583,-4.4474,-4.5424,-4.6292,-4.7052,-4.7676,-4.8273,-4.887,-4.9467,-4.982,-5.001,-5.001,-5.001,-5.001,-5.001,-5.001,-5.001,-5.001,-5.115,-5.1828,-5.1828,-5.294,-5.3592,-5.3592,-5.3592,-5.3592,-5.3592,-5.3926,-5.4047,-5.4047,-5.497,-5.5701,-5.5961,-5.6851,-5.7303,-5.7303,-5.7303,-5.7303,-5.7303,-5.7303,-5.7303,-5.7303,-5.7303,-5.7303,-5.7303,-5.7303,-5.7303,-5.7303,0.0,0.0,0.0,0.0,0.0,0.0,0.0,0.0,0.0,0.0,0.0,0.0,0.0,0.0,0.0,0.0,0.0,0.0,0.0,0.0,0.0,0.0,-2.2543,-2.303,-2.3458,-2.3577,-2.3989,-2.4878,-2.4935,0.0,0.0,0.0,0.0,-2.5914,0.0,0.0,0.0,-2.6701,-2.6999,-2.7542,-2.7542,-2.7271,-2.6837,-2.6837,-2.6212,-2.5317,-2.5317,0.0,0.0,0.0,0.0,0.0,0.0,0.0,-2.7446,-2.8894,-3.0378,-3.2236,-3.5927,-3.6985,-3.7745,-4.0567,-4.1652,-4.2331,-4.3633,-4.4339,-4.5071,-4.6374,-4.6075,-4.5695,-4.5994,-4.7161,-4.8165,-4.8355,-4.8816,-4.9331,-4.9928,-5.001,-5.001,-5.001,-5.001,-5.001,-5.001,-5.001,-5.001,-5.001,-5.115,-5.1828,-5.1828,-5.294,-5.3592,-5.3592,-5.3592,-5.3592,-5.3592,-5.3592,-5.3592,-5.3592,-5.4166,-5.488,-5.5496,-5.6509,-5.7078,-5.7191,-5.7078,-5.7078,-5.7191,-5.7078,-5.7078,-5.7191,-5.7191,-5.7191,-5.7303,-5.7303,-5.7303,-5.7303,0.0,0.0,0.0,0.0,0.0,0.0,0.0,0.0,0.0,0.0,0.0,0.0,0.0,0.0,0.0,0.0,0.0,0.0,0.0,0.0,0.0,0.0,-2.2259,-2.2482,-2.2969,-2.3424,-2.3872,-2.4394,-2.4821,0.0,0.0,0.0,0.0,-2.5887,0.0,0.0,0.0,0.0,-2.6375,-2.6945,-2.6945,-2.6891,-2.6837,-2.6837,-2.6728,-2.6592,-2.6592,-2.6592,-2.6511,-2.5968,-2.5836,0.0,0.0,0.0,-2.6924,-2.7169,-2.9496,-3.2399,-3.4,-3.6632,-3.9427,-4.1408,-4.1951,-4.2466,-4.4203,-4.4637,-4.518,-4.6889,-4.6347,-4.6048,-4.7595,-4.7676,-4.7812,-4.8843,-4.9087,-4.9331,-4.9928,-5.001,-5.001,-5.001,-5.001,-5.001,-5.001,-5.001,-5.001,-5.001,-5.115,-5.1828,-5.1828,-5.294,-5.3592,-5.3592,-5.3592,-5.3592,-5.3592,-5.3592,-5.3592,-5.3592,-5.4166,-5.488,-5.5496,-5.5613,-5.6077,-5.6509,-5.5961,-5.6077,-5.6509,-5.5961,-5.6077,-5.6509,-5.6509,-5.6851,-5.7303,-5.7303,-5.7303,-5.7191,0.0,0.0,0.0,0.0,0.0,0.0,0.0,0.0,0.0,0.0,0.0,0.0,0.0,0.0,0.0,0.0,0.0,0.0,0.0,0.0,0.0,0.0,-2.1572,-2.1844,-2.2223,-2.271,-2.328,-2.393,0.0,0.0,0.0,-2.5236,-2.5542,0.0,0.0,0.0,0.0,0.0,-2.6945,-2.7813,-2.7813,-2.822,-2.8736,-2.7705,-2.7949,-2.8709,-2.7678,-2.7325,-2.7271,-2.6999,-2.6674,-2.6375,-2.6104,0.0,0.0,0.0,-2.917,-3.1287,-3.4163,-3.6822,-3.94,-4.1869,-4.2493,-4.2982,-4.48,-4.5207,-4.5614,-4.7052,-4.6944,-4.6916,-4.8029,-4.8572,-4.8897,-4.9087,-4.9413,-4.9711,-4.9983,-5.001,-5.001,-5.001,-5.001,-5.001,-5.001,-5.001,-5.001,-5.001,-5.115,-5.1828,-5.1828,-5.294,-5.3592,-5.3592,-5.3592,-5.3592,-5.3592,-5.3592,-5.3592,-5.3592,-5.4166,-5.4524,-5.4433,-5.4762,-5.5233,-5.5874,-5.5979,-5.6119,-5.6383,-5.6514,-5.6429,-5.65,-5.722,-5.7367,-5.7398,-5.7398,-5.7513,-5.7772,0.0,0.0,0.0,0.0,0.0,0.0,0.0,0.0,0.0,0.0,0.0,0.0,0.0,0.0,0.0,0.0,0.0,0.0,0.0,0.0,0.0,0.0,0.0,-2.1152,-2.1499,-2.1982,-2.259,0.0,0.0,0.0,-2.5118,-2.4777,-2.5501,0.0,-2.6277,-2.6418,0.0,0.0,-2.7569,0.0,-2.9034,-2.9821,-3.0527,-2.9631,-3.0147,-3.1097,-2.9442,-2.8845,-2.8736,-2.8139,-2.7651,-2.7216,-2.6918,-2.7216,0.0,0.0,0.0,-3.0771,-3.4651,-3.6822,-3.8667,-4.1679,-4.2548,-4.309,-4.4746,-4.5261,-4.5695,-4.6889,-4.7134,-4.7405,-4.83,-4.9196,-4.9684,-4.9413,-4.9739,-5.001,-5.001,-5.001,-5.001,-5.001,-5.001,-5.001,-5.001,-5.001,-5.001,-5.001,-5.0987,-5.1665,-5.1828,-5.2805,-5.3429,-5.3592,-5.3592,-5.3592,-5.3592,-5.3592,-5.3592,-5.3592,-5.4047,-5.4047,-5.3592,-5.4047,-5.4607,-5.5277,-5.575,-5.6149,-5.6437,-5.667,-5.6586,-5.6465,-5.7394,-5.7667,-5.7388,-5.7388,-5.7672,-5.7894,0.0,0.0,0.0,0.0,0.0,0.0,0.0,0.0,0.0,0.0,0.0,0.0,-2.0571,-2.0955,-2.1233,-2.1233,0.0,0.0,0.0,0.0,0.0,0.0,0.0,0.0,0.0,-2.1464,0.0,0.0,0.0,0.0,-2.481,-2.5116,-2.6155,-2.7723,-2.6522,-2.5974,-2.605,-2.7189,-2.7705,-2.7949,-3.0228,-3.1178,-3.1422,-3.3023,-3.3702,-3.3647,-3.2399,-3.1938,-3.1585,-2.9306,-2.8519,-2.8302,-2.7189,-2.7216,-2.7705,0.0,0.0,0.0,-3.4896,-3.6198,-3.7419,-4.0458,-4.1625,-4.2358,-4.3579,-4.4339,-4.5098,-4.6265,-4.6509,-4.7052,-4.8762,-4.9114,-4.9331,-4.9874,-4.9983,-5.001,-5.001,-5.001,-5.001,-5.001,-5.001,-5.001,-5.001,-5.001,-5.001,-5.001,-5.058,-5.1204,-5.1801,-5.2425,-5.3022,-5.3565,-5.3592,-5.3592,-5.3592,-5.3592,-5.3592,-5.3592,-5.3592,-5.3592,-5.3592,-5.3592,-5.4012,-5.4556,-5.4583,-5.5279,-5.6292,-5.5757,-5.5881,-5.6292,-5.6347,-5.6809,-5.7294,-5.7294,-5.7322,-5.7201,0.0,0.0,0.0,0.0,0.0,0.0,0.0,0.0,0.0,0.0,0.0,0.0,0.0,-2.0593,-2.0892,-2.1169,-2.1612,0.0,0.0,0.0,0.0,0.0,0.0,0.0,0.0,0.0,0.0,0.0,0.0,-2.2885,-2.385,-2.4129,-2.5166,-2.6717,-2.6169,-2.6614,-2.7623,-2.7678,-2.8139,-2.8942,-3.0138,-3.1664,-3.3342,-3.3119,-3.4548,-3.6383,-3.4634,-3.3985,-3.362,-3.1802,-3.0821,-3.0174,-2.9387,-2.9007,-2.8926,-2.9333,-3.031,-3.1938,-3.4923,-3.5873,-3.6849,-4.0268,-4.1571,-4.2412,-4.4013,-4.4827,-4.5505,-4.6319,-4.6781,-4.7242,-4.7866,-4.8626,-4.9331,-4.9901,-5.001,-5.001,-5.001,-5.001,-5.001,-5.001,-5.001,-5.001,-5.001,-5.001,-5.001,-5.001,-5.0553,-5.1177,-5.1801,-5.2398,-5.2995,-5.3565,-5.3592,-5.3592,-5.3592,-5.3592,-5.3592,-5.3592,-5.3592,-5.3592,-5.3619,-5.3999,-5.4514,-5.5111,-5.5491,-5.5888,-5.6358,-5.6514,-5.6432,-5.6385,-5.7272,-5.7411,-5.7327,-5.7327,-5.7577,-5.773,0.0,0.0,0.0,0.0,0.0,0.0,0.0,0.0,0.0,-2.0074,0.0,0.0,0.0,0.0,-2.0506,-2.0786,-2.1233,-2.1169,-2.0442,-2.0658,0.0,0.0,0.0,0.0,0.0,0.0,0.0,0.0,0.0,0.0,0.0,-2.3389,-2.4255,-2.561,-2.5861,-2.6747,-2.8003,-2.8003,-2.8356,-2.9077,-3.067,-3.2411,-3.399,-3.4063,-3.5887,-3.8243,-3.6485,-3.6004,-3.6035,-3.4497,-3.3576,-3.2861,-3.1667,-3.0608,-2.9903,-3.0527,-3.0988,-3.1857,-3.4434,-3.5276,-3.6144,-3.9156,-4.0811,-4.2086,-4.347,-4.4719,-4.5695,-4.6102,-4.6645,-4.7134,-4.7323,-4.8002,-4.8789,-4.9576,-4.9874,-5.001,-5.001,-5.001,-5.001,-5.001,-5.001,-5.001,-5.001,-5.001,-5.001,-5.001,-5.0363,-5.0878,-5.1475,-5.2099,-5.2778,-5.3565,-5.3592,-5.3592,-5.3592,-5.3592,-5.3592,-5.3592,-5.3592,-5.3592,-5.3619,-5.4216,-5.4813,-5.5437,-5.6034,-5.6414,-5.6631,-5.7011,-5.6956,-5.6631,-5.7524,-5.7569,-5.724,-5.724,-5.7487,-5.7761,0.0,0.0,0.0,0.0,0.0,0.0,0.0,0.0,-2.0074,-2.0074,0.0,0.0,0.0,0.0,0.0,-2.0074,-2.014,-2.014,-2.0074,-2.0074,0.0,0.0,0.0,0.0,0.0,0.0,0.0,0.0,0.0,0.0,0.0,0.0,-2.3698,-2.4628,-2.5584,-2.6321,-2.6945,-2.8139,-2.8329,-2.8174,-3.2045,-3.3459,-3.3468,-3.6129,-3.8057,-3.906,-3.7952,-3.8249,-3.9013,-3.7226,-3.6577,-3.6198,-3.381,-3.1884,-3.0608,-3.1124,-3.1314,-3.1694,0.0,0.0,0.0,-3.7039,-3.9292,-4.1218,-4.1842,-4.3823,-4.556,-4.5587,-4.6048,-4.6645,-4.7242,-4.7351,-4.7731,-4.8897,-4.9576,-4.9983,-4.9983,-5.001,-5.001,-5.001,-5.001,-5.001,-4.9983,-5.001,-5.001,-4.9983,-5.001,-5.0254,-5.0878,-5.1502,-5.2371,-5.3537,-5.3565,-5.3565,-5.3592,-5.3592,-5.3592,-5.3592,-5.3592,-5.3592,-5.3619,-5.4243,-5.484,-5.5437,-5.6061,-5.6658,-5.7174,-5.7174,-5.7174,-5.7174,-5.7174,-5.7174,-5.7174,-5.7174,-5.7174,-5.7174,0.0,0.0,0.0,0.0,0.0,0.0,0.0,0.0,-2.0074,0.0,0.0,0.0,-2.0074,-2.0335,-2.0399,-2.014,-2.0593,-2.0658,-2.014,-2.0335,-2.0178,-1.9441,-1.9288,-1.9284,0.0,0.0,0.0,0.0,0.0,0.0,0.0,0.0,0.0,0.0,-2.5171,-2.6436,-2.8166,-2.9387,-3.031,-3.1189,-3.3454,-3.4495,-3.4719,-3.6668,-3.7791,-3.8466,-3.8262,-3.8492,-3.8574,-3.7671,-3.6854,-3.5987,-3.3792,-3.2725,-3.2182,-3.1504,-3.1585,-3.2128,-3.305,0.0,0.0,0.0,0.0,0.0,-4.1137,-4.3226,-4.5071,-4.5505,-4.6048,-4.6509,-4.6699,-4.7079,-4.7459,-4.7785,-4.8707,-4.9386,-4.9386,-4.9739,-5.001,-5.001,-5.001,-4.9847,-4.9413,-4.9766,-4.9847,-4.9413,-4.9766,-5.0254,-5.0878,-5.1502,-5.2181,-5.294,-5.2968,-5.3158,-5.3592,-5.3592,-5.3592,-5.3592,-5.3592,-5.3592,-5.3646,-5.4677,-5.5247,-5.5464,-5.6495,-5.7038,-5.7174,-5.7174,-5.7174,-5.7174,-5.7174,-5.7174,-5.7174,-5.7174,-5.7174,-5.7174,0.0,0.0,0.0,0.0,0.0,0.0,0.0,-2.0314,-2.0445,0.0,0.0,0.0,-2.0729,-2.1061,-2.1084,-2.0489,-2.1151,-2.1261,-2.0467,-2.0753,-2.0685,-2.0224,-1.9827,-1.9585,-1.9585,0.0,0.0,0.0,0.0,0.0,0.0,0.0,0.0,0.0,0.0,-2.6781,-2.8811,-3.0767,-3.1775,-3.2334,-3.4135,-3.4996,-3.5263,-3.6033,-3.698,-3.7983,-3.7871,-3.865,-3.9677,-3.8919,-3.7871,-3.6765,-3.5801,-3.4766,-3.362,-3.2671,-3.2481,-3.2616,-3.2969,-3.3322,-3.3865,-3.5058,0.0,0.0,-4.0675,-4.2385,-4.3959,-4.5316,-4.5858,-4.6102,-4.6102,-4.6591,-4.6998,-4.6998,-4.7785,-4.849,-4.8735,-4.9277,-4.963,-4.963,-4.9874,-4.9874,-4.9521,-4.9576,-4.9603,-4.9494,-4.9576,-5.001,-5.0851,-5.1231,-5.1828,-5.2696,-5.2723,-5.2995,-5.3592,-5.3592,-5.3592,-5.3592,-5.3592,-5.3727,-5.3999,-5.4976,-5.5545,-5.5844,-5.6794,-5.7174,-5.7174,-5.7174,-5.7174,-5.7174,-5.7174,-5.7174,-5.7174,-5.7174,-5.7174,-5.7174,0.0,0.0,0.0,0.0,0.0,0.0,0.0,-2.0664,0.0,0.0,-2.1059,-2.121,-2.1691,-2.2084,-2.1974,-2.1101,-2.1774,-2.1887,-2.1037,-2.1308,-2.1442,-2.1353,-2.0482,-1.9968,-1.9923,-1.978,0.0,0.0,0.0,0.0,0.0,0.0,0.0,0.0,0.0,0.0,-2.9236,-3.2005,-3.2976,-3.276,-3.461,-3.5407,-3.5502,-3.523,-3.6109,-3.738,-3.7019,-3.8807,-4.1126,-4.0202,-3.9088,-3.8299,-3.8642,-3.7156,-3.5167,-3.4221,-3.3675,-3.3213,-3.3023,-3.3023,-3.3322,-3.4461,-3.5628,0.0,-4.0078,-4.1272,-4.2439,-4.4637,-4.5261,-4.5397,-4.5397,-4.5885,-4.6292,-4.6374,-4.6808,-4.7405,-4.8056,-4.8653,-4.9033,-4.9033,-4.9494,-4.982,-4.982,-4.9413,-4.9304,-4.9766,-4.9386,-4.963,-5.0743,-5.0743,-5.1258,-5.2479,-5.2506,-5.2832,-5.3483,-5.3565,-5.3592,-5.3592,-5.3592,-5.3917,-5.4514,-5.5138,-5.5735,-5.6332,-5.6929,-5.7174,-5.7174,-5.7174,-5.7174,-5.7174,-5.7174,-5.7174,-5.7174,-5.7174,-5.7174,-5.7174,0.0,0.0,0.0,0.0,0.0,0.0,0.0,0.0,-2.145,-2.145,-2.1778,-2.2215,-2.2673,-2.2477,-2.2237,-2.2062,-2.2199,-2.2046,-2.1472,-2.1892,-2.1831,-2.1039,-2.0819,-2.0534,-2.0073,-2.0028,-2.0156,0.0,0.0,0.0,0.0,0.0,0.0,0.0,0.0,0.0,-3.0277,-3.2732,-3.442,-3.5538,-3.6769,-3.7036,-3.6677,-3.7082,-3.686,-3.6384,-3.7077,-3.7698,-3.8387,-3.8446,-3.9143,-3.9818,-3.8479,-3.8239,-3.7935,-3.5411,-3.457,-3.4163,-3.2752,-3.2698,-3.324,-3.3946,-3.5004,0.0,-3.7881,-3.9427,-4.0811,-4.1788,-4.3145,-4.4122,-4.4122,-4.4637,-4.5207,-4.5695,-4.5858,-4.6319,-4.7378,-4.8029,-4.8409,-4.8409,-4.8517,-4.8599,-4.8599,-4.8924,-4.8979,-4.8626,-4.8924,-4.944,-5.0146,-4.9739,-5.001,-5.1204,-5.1258,-5.1774,-5.2859,-5.3375,-5.3592,-5.3592,-5.3592,-5.3917,-5.4514,-5.5138,-5.5735,-5.6332,-5.6929,-5.7174,-5.7174,-5.7174,-5.7174,-5.7174,-5.7174,-5.7174,-5.7174,-5.7174,-5.7174,-5.7174,0.0,0.0,0.0,0.0,0.0,0.0,0.0,0.0,-2.2215,-2.2936,-2.3656,-2.4203,-2.4421,-2.4246,-2.4006,-2.3766,-2.4117,-2.404,-2.3088,-2.3392,-2.3231,-2.2258,-2.1749,-2.1262,-2.0776,-2.0467,-2.0335,0.0,0.0,0.0,0.0,0.0,0.0,0.0,0.0,-2.821,-3.1707,-3.3621,-3.5588,-3.7531,-3.7657,-3.7555,-3.7358,-3.7132,-3.6667,-3.6369,-3.6588,-3.7044,-3.7629,-3.8824,-3.9758,-4.0304,-3.9702,-3.9991,-4.0241,-3.8125,-3.6659,-3.5384,-3.3919,-3.3078,-3.2833,-3.3729,-3.4302,0.0,0.0,-3.8667,-3.9481,-4.0078,-4.1652,-4.2792,-4.2493,-4.3443,-4.4339,-4.4637,-4.5207,-4.5587,-4.556,-4.6862,-4.7812,-4.7812,-4.8056,-4.8138,-4.7839,-4.8355,-4.868,-4.868,-4.9223,-4.9684,-4.9983,-4.944,-4.9657,-5.0851,-5.0905,-5.1475,-5.2696,-5.3293,-5.3592,-5.3592,-5.3592,-5.408,-5.4948,-5.5274,-5.5898,-5.6766,-5.7065,-5.7174,-5.7174,-5.7174,-5.7174,-5.7174,-5.7174,-5.7174,-5.7174,-5.7174,-5.7174,-5.7174,0.0,0.0,0.0,0.0,0.0,0.0,0.0,0.0,-2.3285,-2.4836,-2.5775,-2.6387,-2.6562,-2.6671,-2.6562,-2.619,-2.6838,-2.6661,-2.5382,-2.5599,-2.5271,-2.4149,-2.3223,-2.2421,-2.1865,-2.1308,-2.0841,-2.0424,0.0,0.0,0.0,0.0,0.0,0.0,-2.6497,-2.8876,-3.2461,-3.455,-3.6585,-3.8395,-3.7976,-3.8119,-3.825,-3.7027,-3.675,-3.6915,-3.6413,-3.6741,-3.7736,-3.9896,-4.0595,-4.0734,-4.1447,-4.2112,-4.2328,-4.0865,-3.8824,-3.6818,-3.5466,-3.4027,-3.3105,-3.419,-3.4461,-3.514,0.0,0.0,0.0,-3.8884,-4.0404,-4.1462,-4.0892,-4.2141,-4.3172,-4.2955,-4.404,-4.4474,-4.3253,-4.5044,-4.6618,-4.6971,-4.7432,-4.7622,-4.7378,-4.8192,-4.8762,-4.8789,-4.9657,-5.0091,-4.9847,-4.9169,-4.9386,-5.0688,-5.0607,-5.1204,-5.2533,-5.313,-5.3483,-5.3592,-5.3592,-5.4243,-5.541,-5.541,-5.6061,-5.7174,-5.7174,-5.7174,-5.7174,-5.7174,-5.7174,-5.7174,-5.7174,-5.7174,-5.7174,-5.7174,-5.7174,-5.7174,-2.0249,-2.0074,0.0,0.0,0.0,0.0,0.0,0.0,-2.4902,-2.6758,-2.7457,-2.8112,-2.8986,-2.9467,-2.9707,-2.9642,-2.9685,-2.9314,-2.8375,-2.8379,-2.7743,-2.6278,-2.5355,-2.4412,-2.3438,-2.2933,-2.2265,-2.1428,0.0,0.0,0.0,0.0,0.0,-2.5636,-2.7951,-2.9609,-3.1013,-3.5382,-3.6937,-3.6717,-3.8524,-3.9628,-4.0035,-3.9129,-3.8387,-3.7876,-3.7396,-3.7287,-3.7681,-3.9841,-4.142,-4.2698,-4.3585,-4.4222,-4.4228,-4.1692,-3.988,-3.8277,-3.6845,-3.5873,-3.5465,-3.6144,-3.6307,-3.6524,-3.7419,0.0,-3.8288,-3.7826,0.0,-4.0214,-3.9617,0.0,0.0,-3.9997,-4.1272,-4.1978,-4.0757,-4.2222,-4.3986,-4.5587,-4.5858,-4.6265,-4.7269,-4.9331,-4.9739,-4.7703,-4.9576,-5.0335,-4.9277,-4.8165,-4.8327,-5.0064,-4.9603,-5.0173,-5.1909,-5.2506,-5.3076,-5.3592,-5.3592,-5.4243,-5.541,-5.541,-5.6061,-5.7174,-5.7174,-5.7174,-5.7174,-5.7174,-5.7174,-5.7174,-5.7174,-5.7174,-5.7174,-5.7174,-5.7174,-5.7174,-2.1057,-2.0992,0.0,0.0,0.0,0.0,0.0,0.0,-2.7261,-2.8069,-2.8833,-2.9663,-3.0624,-3.0646,-3.0843,-3.1433,-3.1476,-3.1171,-3.0472,-3.0428,-2.9532,-2.7545,-2.6518,-2.5426,-2.4203,-2.3084,-2.2358,-2.2018,-2.2409,0.0,0.0,0.0,0.0,-2.6765,-2.8527,-3.0508,-3.2739,-3.584,-3.744,-3.8283,-3.9902,-4.0693,-4.0669,-3.9076,-3.8363,-3.8117,-3.8204,-3.8226,-3.8371,-3.9288,-4.108,-4.271,-4.2214,-4.4105,-4.5967,-4.3254,-4.2073,-4.1421,-4.0096,-3.8666,-3.759,-3.8006,-3.7987,-3.7856,-3.7979,-3.8505,-3.8559,-3.7256,0.0,0.0,0.0,0.0,0.0,0.0,-4.1055,-4.1571,-4.035,-4.1164,-4.2521,-4.4312,-4.4854,-4.5668,-4.7215,-4.8572,-4.8952,-4.7948,-4.944,-4.9874,-4.868,-4.7812,-4.7866,-4.8952,-4.9087,-4.982,-5.1285,-5.2235,-5.2832,-5.3103,-5.3782,-5.4379,-5.4894,-5.56,-5.6387,-5.7174,-5.7174,-5.7174,-5.7174,-5.7174,-5.7174,-5.7174,-5.7174,-5.7174,-5.7174,-5.7174,-5.7174,-5.7174,-2.2368,0.0,0.0,0.0,0.0,0.0,0.0,-2.7654,-2.8811,-2.9489,-3.0297,-3.1171,-3.211,-3.2162,-3.234,-3.3051,-3.3353,-3.3289,-3.2793,-3.2748,-3.1979,-3.01,-2.8571,-2.7239,-2.6081,-2.4325,-2.3317,-2.3088,-2.2961,0.0,0.0,0.0,0.0,0.0,-2.8999,-3.1019,-3.3505,-3.597,-3.7757,-3.9197,-4.0552,-4.0999,-4.0573,-3.9154,-3.8423,-3.8357,-3.8707,-3.8838,-3.8859,-3.9471,-4.0943,-4.256,-4.1923,-4.3894,-4.6036,-4.4266,-4.3651,-4.3386,-4.2722,-4.1367,-4.0186,-4.0248,-4.0026,-3.9628,-3.9411,-3.9481,-3.9074,-3.7446,-3.8152,0.0,0.0,0.0,-3.8993,-3.8342,0.0,-3.9997,-3.845,-3.9319,-4.092,-4.3036,-4.3986,-4.5098,-4.6727,-4.8138,-4.8626,-4.7812,-4.963,-4.9956,-4.811,-4.7595,-4.7622,-4.8219,-4.8653,-4.944,-5.0634,-5.1855,-5.2561,-5.2723,-5.3917,-5.4569,-5.4758,-5.5817,-5.6631,-5.7174,-5.7174,-5.7174,-5.7174,-5.7174,-5.7174,-5.7174,-5.7174,-5.7174,-5.7174,-5.7174,-5.7174,-5.7174,-2.429,-2.2892,-2.1887,-2.2826,-2.3394,-2.4683,-2.7545,-2.8025,-2.8899,-3.1214,-3.2001,-3.2678,-3.3617,-3.4423,-3.5029,-3.505,-3.589,-3.6226,-3.5743,-3.5736,-3.5583,-3.5015,-3.2263,-3.0537,-3.0035,-2.759,-2.5969,-2.5076,-2.4889,-2.5096,0.0,0.0,0.0,0.0,-2.9573,-3.1027,-3.1895,-3.5871,-3.7732,-3.8262,-3.9855,-4.0151,-3.9686,-3.9515,-3.9209,-3.8816,-3.8838,-3.8838,-3.9154,-4.1181,-4.1963,-4.2456,-4.4467,-4.4265,-4.353,-4.4629,-4.4011,-4.3096,-4.3614,-4.3687,-4.3525,-4.2928,-4.2358,-4.1924,-4.1896,-4.1001,-3.9807,-3.8613,-3.8396,-3.7908,-3.6117,-3.6307,-3.5954,-3.3675,-3.5248,0.0,0.0,-3.5791,-3.8749,-4.1707,-4.309,-4.4284,-4.5533,-4.8789,-4.963,-4.6754,-5.0308,-5.1095,-4.7568,-4.7378,-4.7622,-4.8219,-4.8273,-4.8843,-5.0037,-5.1258,-5.2154,-5.2723,-5.3917,-5.4813,-5.541,-5.6034,-5.6631,-5.7174,-5.7174,-5.7174,-5.7174,-5.7174,-5.7174,-5.7174,-5.7174,-5.7174,-5.7174,-5.7174,-5.7174,-5.7174,0.0,-2.3962,-2.37,-2.4334,-2.4836,-2.5928,-2.8178,-2.9882,-3.1099,-3.1572,-3.2547,-3.3233,-3.3285,-3.353,-3.378,-3.4207,-3.4655,-3.494,-3.4777,-3.5474,-3.5452,-3.4668,-3.2901,-3.1498,-3.069,-2.8247,-2.6623,-2.5644,-2.5552,-2.5597,0.0,0.0,0.0,0.0,-3.043,-3.2282,-3.4147,-3.6589,-3.8328,-3.958,-4.0166,-4.0671,-4.0869,-3.9908,-3.9646,-3.9821,-4.0148,-4.0476,-4.087,-4.1528,-4.2118,-4.2525,-4.2097,-4.2966,-4.3938,-4.3321,-4.3929,-4.4882,-4.5129,-4.5449,-4.5635,-4.4915,-4.4985,-4.4967,-4.4049,-4.3145,-4.2331,-4.1544,-4.0431,-3.9292,-3.8288,-3.7935,-3.7284,-3.5655,-3.6062,-3.6171,0.0,-3.5683,-3.7012,-3.883,-4.0431,-4.2358,-4.4773,-4.6808,-4.7405,-4.5994,-4.83,-4.887,-4.6889,-4.6781,-4.7052,-4.7649,-4.8029,-4.8626,-4.9413,-5.1014,-5.1936,-5.2154,-5.3727,-5.4596,-5.484,-5.5844,-5.6631,-5.7174,-5.7174,-5.7174,-5.7174,-5.7174,-5.7174,-5.7174,-5.7174,-5.7174,-5.7174,-5.7174,-5.7174,-5.7174,-2.5207,-2.512,-2.5076,-2.5382,-2.6256,-2.7566,-2.9489,-3.1084,-3.2084,-3.2044,-3.283,-3.3346,-3.3055,-3.3152,-3.3282,-3.3579,-3.4132,-3.4735,-3.555,-3.6016,-3.6392,-3.6385,-3.4848,-3.353,-3.2721,-3.0166,-2.8375,-2.7435,-2.651,-2.6169,0.0,0.0,0.0,0.0,-3.0418,-3.2567,-3.5369,-3.6725,-3.8497,-4.0279,-4.0279,-4.0847,-4.1568,-4.0476,-4.0476,-4.1066,-4.1197,-4.1437,-4.1699,-4.1699,-4.1968,-4.226,-4.1375,-4.2153,-4.3285,-4.2772,-4.3647,-4.4785,-4.494,-4.5633,-4.6193,-4.5421,-4.5633,-4.5954,-4.5304,-4.4428,-4.3643,-4.3579,-4.1924,-4.0404,-4.0024,-3.8939,-3.7853,-3.7066,-3.6741,-3.6388,0.0,-3.5167,-3.5384,-3.7012,-3.8586,-4.092,-4.4366,-4.5777,-4.6319,-4.594,-4.7758,-4.8165,-4.6564,-4.6672,-4.6971,-4.7351,-4.7731,-4.8219,-4.8816,-5.039,-5.1394,-5.1855,-5.3619,-5.4596,-5.4867,-5.6061,-5.6821,-5.7174,-5.7174,-5.7174,-5.7174,-5.7174,-5.7174,-5.7174,-5.7174,-5.7174,-5.7174,-5.7174,-5.7174,-5.7174,-2.6605,-2.6343,-2.6059,-2.6168,-2.7676,-2.9532,-3.1367,-3.1572,-3.1996,-3.2892,-3.2849,-3.2814,-3.2974,-3.3233,-3.3325,-3.3325,-3.4202,-3.5529,-3.7445,-3.7377,-3.8102,-4.0105,-3.7986,-3.6522,-3.6042,-3.3202,-3.1258,-3.0275,-2.7938,-2.7039,0.0,0.0,0.0,0.0,-2.9712,-3.2096,-3.5358,-3.6318,-3.8095,-4.0323,-4.0345,-4.0913,-4.1721,-4.1262,-4.1677,-4.2464,-4.1918,-4.1743,-4.1765,-4.1765,-4.1743,-4.1856,-4.2527,-4.1991,-4.1466,-4.3075,-4.3174,-4.2997,-4.3308,-4.4311,-4.5221,-4.4633,-4.4639,-4.5022,-4.5847,-4.4743,-4.3795,-4.4617,-4.2831,-4.1152,-4.1218,-3.9203,-3.7605,-3.7582,-3.7012,-3.6334,-3.5764,-3.4163,-3.3919,-3.6225,-3.7609,-3.9997,-4.4176,-4.5587,-4.6292,-4.6374,-4.8572,-4.8924,-4.6591,-4.7079,-4.7432,-4.7351,-4.7378,-4.7676,-4.8246,-4.9413,-5.0634,-5.1855,-5.3592,-5.4786,-5.5464,-5.6604,-5.7146,-5.7174,-5.7174,-5.7174,-5.7174,-5.7174,-5.7174,-5.7174,-5.7174,-5.7174,-5.7174,-5.7174,-5.7174,-5.7174,-2.7654,-2.7872,-2.8484,-2.9904,-3.0559,-3.1192,-3.2044,-3.2643,-3.3023,-3.3376,-3.2988,-3.2649,-3.2711,-3.2767,-3.284,-3.284,-3.3322,-3.3848,-3.4327,-3.5751,-3.6983,-3.7842,-3.7399,-3.7134,-3.7025,-3.4534,-3.259,-3.1258,-3.0215,-2.9479,-2.8835,0.0,0.0,0.0,-3.1175,-3.3198,-3.6429,-3.7072,-3.864,-4.0847,-4.1197,-4.1918,-4.2748,-4.2245,-4.2879,-4.3883,-4.266,-4.2485,-4.2791,-4.2791,-4.2551,-4.2223,-4.236,-4.2078,-4.1706,-4.2609,-4.2752,-4.2747,-4.335,-4.411,-4.4519,-4.4509,-4.514,-4.5961,-4.6272,-4.5662,-4.5208,-4.5929,-4.4162,-4.2342,-4.2108,-4.0817,-3.9483,-3.8336,-3.6931,-3.5737,-3.514,-3.3919,-3.362,-3.5113,-3.6741,-3.9074,-4.2385,-4.2982,-4.3715,-4.5071,-4.7351,-4.8056,-4.6564,-4.7866,-4.8273,-4.7378,-4.7785,-4.8083,-4.8246,-4.9413,-5.0634,-5.1855,-5.3185,-5.4379,-5.5437,-5.6197,-5.6638,-5.6812,-5.7044,-5.7044,-5.6812,-5.7044,-5.7174,-5.7174,-5.7174,-5.7174,-5.7174,-5.7174,-5.7174,-5.7174,-2.9292,-2.986,-3.0821,-3.2306,-3.2426,-3.2458,-3.3108,-3.3534,-3.3962,-3.4503,-3.3902,-3.3577,-3.3876,-3.3391,-3.3193,-3.3376,-3.3596,-3.3817,-3.4242,-3.5277,-3.6285,-3.7015,-3.7212,-3.7213,-3.7213,-3.5721,-3.4183,-3.2425,-3.2022,-3.1241,-3.0068,0.0,0.0,0.0,-3.2376,-3.4307,-3.7126,-3.8476,-4.0012,-4.1634,-4.1677,-4.2289,0.0,-4.2857,-4.3381,-4.4189,-4.3578,-4.3556,-4.3796,-4.3796,-4.3468,-4.3053,-4.3053,-4.2573,-4.2141,-4.2412,-4.237,-4.2266,-4.2655,-4.3098,-4.3381,-4.3384,-4.4048,-4.4819,-4.5607,-4.537,-4.5354,-4.6645,-4.5395,-4.4273,-4.4667,-4.3641,-4.2162,-4.0908,-3.902,-3.7473,-3.6877,-3.5764,-3.5276,-3.5927,-3.6442,-3.7908,-4.092,-4.2629,-4.3986,-4.5017,-4.7052,-4.7839,-4.6916,-4.8056,-4.8327,-4.7378,-4.8056,-4.8271,-4.8246,-4.9189,-5.0519,-5.1828,-5.3022,-5.412,-5.5186,-5.605,-5.6488,-5.6394,-5.6655,-5.6655,-5.6682,-5.6942,-5.7044,-5.7174,-5.7174,-5.7174,-5.7174,-5.7174,-5.7174,-5.7174,-3.1367,-3.1793,-3.2576,-3.3768,-3.3464,-3.3276,-3.4145,-3.4057,-3.431,-3.531,-3.4892,-3.4656,-3.5073,-3.4455,-3.4025,-3.4175,-3.4193,-3.4623,-3.5383,-3.5433,-3.6031,-3.7027,-3.7191,-3.7199,-3.7254,-3.6929,-3.5911,-3.4169,-3.3763,-3.2853,0.0,0.0,0.0,0.0,-3.3704,-3.5408,-3.7811,-4.0126,-4.1612,-4.2376,-4.2027,-4.2442,-4.3272,-4.3272,-4.3599,-4.4102,-4.4539,-4.4648,-4.4582,-4.4582,-4.4298,-4.3949,-4.3949,-4.3337,-4.2617,-4.2617,-4.2223,-4.1786,-4.1786,-4.1904,-4.2048,-4.2038,-4.2327,-4.2927,-4.4568,-4.4535,-4.4786,-4.6816,-4.6379,-4.6008,-4.7187,-4.6062,-4.4792,-4.4067,-4.2005,-4.0323,-3.9726,-3.8559,-3.7772,-3.7772,-3.6904,0.0,-4.0051,-4.3145,-4.5126,-4.5451,-4.7351,-4.8138,-4.7405,-4.8138,-4.8219,-4.7378,-4.8109,-4.843,-4.8489,-4.905,-5.0209,-5.1954,-5.2983,-5.397,-5.4907,-5.6117,-5.6394,-5.6,-5.6132,-5.6263,-5.6551,-5.6524,-5.6785,-5.7174,-5.7174,-5.7174,-5.7174,-5.7174,-5.7174,-5.7174,-3.3814,-3.2343,-3.1932,-3.4421,-3.3124,-3.2354,-3.386,-3.2783,-3.2266,-3.3751,-3.3411,-3.3261,-3.3482,-3.3974,-3.3868,-3.3023,-3.3458,-3.3928,-3.4144,-3.5556,-3.6528,-3.6662,-3.7529,-3.8377,-3.8823,-3.7978,-3.7445,-3.7349,-3.6448,-3.5714,0.0,0.0,0.0,0.0,-3.5517,-3.6915,-3.9274,-4.0891,-4.1896,-4.2442,-4.2791,-4.325,-4.3731,-4.3731,-4.4298,-4.5085,-4.515,-4.4932,-4.4582,-4.4582,-4.4539,-4.4473,-4.4473,-4.4058,-4.3599,-4.3599,-4.2988,-4.2289,-4.2289,-4.2009,-4.175,-4.2093,-4.2132,-4.2638,-4.4184,-4.4493,-4.4814,-4.6334,-4.6257,-4.5813,-4.5605,-4.4967,-4.4366,-4.4556,-4.3335,-4.2222,-4.1598,-4.0051,-3.8993,-3.8993,-3.9237,-3.9807,-4.0865,-4.1544,-4.2711,-4.4719,-4.7866,-4.9006,-4.7432,-4.9304,-4.9494,-4.7432,-4.7568,-4.8325,-4.9959,-4.8973,-4.9805,-5.2471,-5.2903,-5.3627,-5.4554,-5.5729,-5.6,-5.5736,-5.6,-5.6,-5.5868,-5.6132,-5.6394,-5.6812,-5.6812,-5.6942,-5.7174,-5.7174,-5.7174,-5.7174,-3.4421,-3.3054,-3.2591,-3.4503,-3.2936,-3.1897,-3.2784,-3.185,-3.1811,-3.3892,-3.3978,-3.4274,-3.5521,-3.5477,-3.5263,-3.5016,-3.5357,-3.4959,-3.3464,-3.5038,-3.5815,-3.5175,-3.6074,-3.7241,-3.8588,-3.8295,-3.8075,-3.7932,-3.8391,-3.8051,-3.7068,-3.709,-3.7352,-3.7855,-3.8357,-3.9362,-4.0738,-4.1939,-4.2595,-4.2857,-4.3337,-4.3665,-4.3883,-4.4146,-4.4692,-4.5347,-4.5587,-4.5522,-4.5325,-4.5325,-4.5172,-4.4976,-4.4976,-4.4626,-4.4189,-4.3927,-4.3534,-4.3119,-4.2879,-4.2442,-4.2097,-4.2282,-4.208,-4.2153,-4.2985,-4.3262,-4.3699,-4.5182,-4.554,-4.5804,-4.6441,-4.614,-4.5768,-4.5684,-4.5007,-4.4246,-4.3328,-4.256,-4.1978,-4.1652,-4.1869,-4.2032,-4.2032,-4.2602,-4.3715,-4.5478,-4.8056,-4.8924,-4.7432,-4.9331,-4.9494,-4.7432,-4.7839,-4.8595,-4.9756,-4.8991,-4.9764,-5.1951,-5.2566,-5.3228,-5.4145,-5.5338,-5.5604,-5.5365,-5.5472,-5.5604,-5.5604,-5.6,-5.6263,-5.6394,-5.6682,-5.6812,-5.6942,-5.6942,-5.6942,-5.6942,-3.4392,-3.3386,-3.2879,-3.4108,-3.2797,-3.1657,-3.1953,-3.1515,-3.182,-3.4005,-3.4443,-3.5237,-3.6904,-3.6322,-3.6079,-3.6372,-3.6727,-3.6008,-3.3626,-3.5019,-3.5628,-3.4563,-3.5168,-3.6421,-3.797,-3.8462,-3.8657,-3.8402,-3.98,-3.9646,-3.8117,-3.8816,-3.9406,-3.9886,-4.0672,-4.1371,-4.2049,-4.2835,-4.3228,-4.3359,-4.384,-4.4014,-4.4058,-4.4561,-4.5041,-4.5522,-4.5871,-4.6002,-4.6002,-4.6002,-4.5762,-4.5456,-4.5456,-4.5129,-4.467,-4.4277,-4.4102,-4.3905,-4.3447,-4.3032,-4.2682,-4.2464,-4.2136,-4.2015,-4.2412,-4.2463,-4.2879,-4.4289,-4.5036,-4.5936,-4.76,-4.7522,-4.7127,-4.7047,-4.6572,-4.5818,-4.5016,-4.5029,-4.4854,-4.413,-4.4149,-4.3986,-4.3497,-4.4556,-4.5695,-4.6781,-4.8138,-4.8545,-4.7595,-4.8895,-4.9139,-4.7866,-4.8241,-4.883,-4.9724,-4.9247,-4.9827,-5.1349,-5.2162,-5.2978,-5.376,-5.4945,-5.5365,-5.5099,-5.5099,-5.5232,-5.5472,-5.5736,-5.6,-5.6,-5.6394,-5.6551,-5.6551,-5.6551,-5.6551,-5.6655,-3.4716,-3.2819,-3.16,-3.3318,-3.2406,-3.1614,-3.2274,-3.2139,-3.198,-3.2119,-3.3454,-3.4173,-3.3985,-3.4785,-3.4915,-3.3532,-3.4752,-3.5361,-3.4742,-3.6599,-3.7403,-3.6503,-3.7239,-3.7704,-3.7843,-3.8892,-3.9739,-4.0327,-4.0791,-3.9973,-3.8139,-3.9493,-4.041,-4.0869,-4.0956,-4.1765,-4.3053,-4.3141,-4.3425,-4.384,-4.432,-4.4517,-4.4582,-4.5063,-4.5544,-4.5937,-4.598,-4.6002,-4.6002,-4.6002,-4.598,-4.5937,-4.5937,-4.5609,-4.5238,-4.5194,-4.4866,-4.4408,-4.3927,-4.3774,-4.3512,-4.2638,-4.2376,-4.261,-4.3367,-4.3493,-4.3834,-4.4907,-4.54,-4.6081,-4.7781,-4.7314,-4.71,-4.8619,-4.7486,-4.6596,-4.6997,-4.6651,-4.5971,-4.5039,-4.5191,-4.5397,-4.5343,-4.6374,-4.7351,-4.8029,-4.8219,-4.8273,-4.8165,-4.8622,-4.8938,-4.9314,-4.84,-4.908,-5.1795,-4.9747,-4.9711,-5.1564,-5.1944,-5.2628,-5.3426,-5.4576,-5.5099,-5.5099,-5.5099,-5.5099,-5.5099,-5.5232,-5.5365,-5.5604,-5.5736,-5.5868,-5.6132,-5.6132,-5.6132,-5.6132,-3.3224,-3.21,-3.1437,-3.2397,-3.2093,-3.184,-3.2114,-3.2139,-3.2285,-3.2507,-3.3291,-3.3969,-3.4278,-3.5327,-3.559,-3.4766,-3.5576,-3.5525,-3.4226,-3.5257,-3.576,-3.5226,-3.6199,-3.7367,-3.8178,-3.8986,-3.9691,-4.0412,-4.1179,-4.1039,-4.0039,-4.1472,-4.2114,-4.2333,-4.2595,-4.3053,-4.3599,-4.3905,-4.4124,-4.432,-4.4517,-4.4757,-4.5041,-4.5238,-4.5609,-4.6002,-4.6002,-4.6002,-4.6002,-4.6002,-4.6002,-4.6002,-4.6002,-4.5871,-4.5675,-4.5391,-4.5172,-4.4932,-4.443,-4.4298,-4.4146,-4.3447,-4.3294,-4.3214,-4.297,-4.2906,-4.3083,-4.3781,-4.4393,-4.5551,-4.7267,-4.731,-4.71,-4.7442,-4.7357,-4.7127,-4.6641,-4.6651,-4.6571,-4.6222,-4.6731,-4.6783,-4.5948,-4.7379,-4.8083,-4.7514,-4.9247,-4.9951,-4.9023,-4.9648,-5.0128,-5.0255,-4.8691,-4.9114,-5.1811,-4.9409,-4.9361,-5.1872,-5.1846,-5.2533,-5.3896,-5.4733,-5.5099,-5.5099,-5.5099,-5.5099,-5.5099,-5.5099,-5.5232,-5.5365,-5.5472,-5.5736,-5.5736,-5.5736,-5.5736,-5.5736,-3.2397,-3.1961,-3.1658,-3.2016,-3.2039,-3.2142,-3.2348,-3.2571,-3.2888,-3.3349,-3.3715,-3.4221,-3.4768,-3.5635,-3.6093,-3.5717,-3.6083,-3.57,-3.4338,-3.5031,-3.5308,-3.4725,-3.576,-3.6798,-3.7667,-3.8476,-3.9259,-3.97,-4.0919,-4.1212,-4.0661,-4.1826,-4.2704,-4.3381,-4.3578,-4.3818,-4.4102,-4.4451,-4.4582,-4.4604,-4.4888,-4.5129,-4.5325,-4.5478,-4.5718,-4.6002,-4.6002,-4.6002,-4.6002,-4.6002,-4.6002,-4.6002,-4.6002,-4.6002,-4.5937,-4.5609,-4.5522,-4.5412,-4.4932,-4.4801,-4.4692,-4.4189,-4.3971,-4.3687,-4.2988,-4.2726,-4.2809,-4.3253,-4.3979,-4.4935,-4.6656,-4.6708,-4.6679,-4.6996,-4.7257,-4.7133,-4.652,-4.6724,-4.7108,-4.7187,-4.7943,-4.8053,-4.6786,-4.8265,-4.8754,-4.7162,-4.9724,-5.0613,-4.9126,-5.0047,-5.0354,-4.9967,-4.8832,-4.9205,-5.1202,-4.9376,-4.9653,-5.1996,-5.1904,-5.2694,-5.421,-5.4811,-5.5099,-5.5099,-5.5099,-5.5099,-5.5099,-5.5099,-5.5099,-5.5099,-5.5365,-5.5498,-5.5498,-5.5498,-5.5498,-5.5365,-3.2879,-3.2356,-3.1999,-3.2332,-3.2396,-3.265,-3.3349,-3.3476,-3.3715,-3.4398,-3.4795,-3.4874,-3.4525,-3.5145,-3.543,-3.5065,-3.589,-3.6067,-3.5856,-3.7014,-3.7227,-3.5953,-3.6765,-3.6628,-3.5532,-3.7493,-3.8564,-3.8564,-3.9739,-3.9902,-3.9083,-3.9994,-4.159,-4.384,-4.3381,-4.3709,-4.4582,-4.4582,-4.4582,-4.467,-4.5609,-4.5718,-4.5369,-4.5828,-4.6002,-4.6002,-4.6002,-4.6002,-4.6002,-4.6002,-4.6002,-4.6002,-4.6002,-4.6002,-4.6002,-4.6002,-4.6002,-4.5893,-4.5434,-4.5303,-4.5194,-4.4713,-4.4211,-4.3862,-4.384,-4.349,-4.3426,-4.4232,-4.4185,-4.4449,-4.5839,-4.5414,-4.5642,-4.7847,-4.7212,-4.672,-4.7153,-4.7404,-4.7469,-4.774,-4.8524,-4.8885,-4.8273,-4.9285,-4.9258,-4.75,-4.9019,-4.9347,-4.7943,-4.916,-4.9356,-4.7872,-4.8901,-4.9627,-4.9897,-5.0259,-5.0812,-5.1596,-5.2197,-5.3086,-5.421,-5.4811,-5.5099,-5.5099,-5.5099,-5.5099,-5.5099,-5.5099,-5.5099,-5.5099,-5.5099,-5.5099,-5.5099,-5.5099,-5.5099,-5.5099,-3.2537,-3.2602,-3.273,-3.3079,-3.3349,-3.3651,-3.4112,-3.4175,-3.4255,-3.4477,-3.4811,-3.4986,-3.4874,-3.5287,-3.5335,-3.4731,-3.5061,-3.5216,-3.4863,-3.5281,-3.5352,-3.5027,-3.5724,-3.6025,-3.5675,-3.6955,-3.7608,-3.7608,-3.8225,-3.924,-4.0781,-4.1536,-4.2921,-4.4845,-4.4713,-4.4976,-4.5522,-4.5216,-4.526,-4.5544,-4.5544,-4.5631,-4.5806,-4.5937,-4.6002,-4.6002,-4.6002,-4.6002,-4.6002,-4.6002,-4.6002,-4.6002,-4.6002,-4.6002,-4.6002,-4.6002,-4.6002,-4.5959,-4.5828,-4.5784,-4.5675,-4.5194,-4.4976,-4.4692,-4.4014,-4.3228,-4.3007,-4.4186,-4.3709,-4.3739,-4.5489,-4.582,-4.5943,-4.6654,-4.659,-4.6435,-4.6159,-4.5994,-4.5922,-4.5998,-4.6402,-4.6538,-4.6134,-4.7415,-4.8372,-4.8753,-5.0684,-5.1017,-4.9116,-4.9568,-5.0141,-5.0332,-4.9811,-5.0232,-5.1648,-5.0621,-5.1014,-5.2825,-5.2589,-5.3321,-5.4811,-5.502,-5.5099,-5.5099,-5.5099,-5.5099,-5.5099,-5.5099,-5.5099,-5.5099,-5.5099,-5.5099,-5.5099,-5.5099,-5.5099,-5.5099,-3.3206,-3.3381,-3.3603,-3.3826,-3.4048,-3.4318,-3.4652,-3.47,-3.4747,-3.489,-3.5097,-3.524,-3.524,-3.5446,-3.5399,-3.4954,-3.5113,-3.5145,-3.4922,-3.4906,-3.4843,-3.47,-3.508,-3.5352,-3.5352,-3.6042,-3.6707,-3.7176,-3.8455,-3.9681,-4.0549,-4.2596,-4.3907,-4.4592,-4.506,-4.5505,-4.5718,-4.5434,-4.5478,-4.574,-4.5609,-4.574,-4.6002,-4.6002,-4.6002,-4.6002,-4.6002,-4.6002,-4.6002,-4.6002,-4.6002,-4.6002,-4.6002,-4.6002,-4.6002,-4.6002,-4.6002,-4.6002,-4.6002,-4.6002,-4.5937,-4.5653,-4.5456,-4.5063,-4.408,-4.3272,-4.298,-4.378,-4.3242,-4.3076,-4.463,-4.4864,-4.5035,-4.5527,-4.5654,-4.5654,-4.5808,-4.5313,-4.5311,-4.6225,-4.6104,-4.5919,-4.6046,-4.6631,-4.7186,-4.7705,-4.9297,-4.9917,-4.8784,-5.0234,-5.0843,-5.0002,-5.0033,-5.0506,-5.1518,-5.1073,-5.1727,-5.34,-5.3452,-5.4053,-5.5099,-5.5099,-5.5099,-5.5099,-5.5099,-5.5099,-5.5099,-5.5099,-5.5099,-5.5099,-5.5099,-5.5099,-5.5099,-5.5099,-5.5099,-5.5099,-3.4509,-3.4525,-3.4541,-3.4541,-3.4557,-3.4684,-3.5017,-3.5065,-3.5192,-3.5526,-3.5573,-3.5573,-3.5573,-3.5573,-3.5573,-3.5573,-3.5573,-3.5573,-3.5573,-3.5573,-3.543,-3.5081,-3.4763,-3.4588,-3.4588,-3.5092,-3.5892,-3.7044,-3.9995,-4.0465,-3.894,-4.2843,-4.4222,-4.3441,-4.4757,-4.5382,-4.5412,-4.5369,-4.5369,-4.5412,-4.5828,-4.6002,-4.6002,-4.6002,-4.6002,-4.6002,-4.6002,-4.6002,-4.6002,-4.6002,-4.6002,-4.6002,-4.6002,-4.6002,-4.6002,-4.6002,-4.6002,-4.6002,-4.6002,-4.6002,-4.6002,-4.6002,-4.5653,-4.5085,-4.4167,-4.3578,-4.3228,-4.3228,-4.2835,-4.272,-4.3462,-4.3202,-4.3332,-4.4587,-4.4386,-4.4521,-4.5743,-4.511,-4.5304,-4.7691,-4.7002,-4.656,-4.7106,-4.6804,-4.61,-4.5271,-4.6186,-4.7048,-4.7649,-5.0979,-5.1338,-4.7675,-4.9662,-5.0551,-5.0002,-5.1675,-5.2825,-5.3478,-5.4576,-5.5099,-5.5099,-5.5099,-5.5099,-5.5099,-5.5099,-5.5099,-5.5099,-5.5099,-5.5099,-5.5099,-5.5099,-5.5099,-5.5099,-5.5099,-5.5099,-5.5099,-3.4509,-3.4716,-3.4906,-3.4906,-3.5145,-3.5351,-3.543,-3.5446,-3.5478,-3.5573,-3.5573,-3.5573,-3.5573,-3.5573,-3.5573,-3.5573,-3.5573,-3.5573,-3.5573,-3.5573,-3.5542,-3.5446,-3.5367,-3.5319,-3.5319,-3.5412,-3.5612,-3.5589,-3.693,-3.7767,-3.81,-4.0409,-4.2285,-4.4045,-4.4586,-4.5425,-4.6374,-4.6002,-4.5828,-4.5849,-4.5959,-4.6002,-4.6002,-4.6002,-4.6002,-4.6002,-4.6002,-4.6002,-4.6002,-4.6002,-4.6002,-4.6002,-4.6002,-4.6002,-4.6002,-4.6002,-4.6002,-4.6002,-4.6002,-4.6002,-4.6002,-4.6002,-4.5653,-4.526,-4.5019,-4.432,-4.3687,-4.3687,-4.3337,-4.3105,-4.325,-4.3737,-4.4038,-4.3909,-4.43,-4.4559,-4.4546,-4.428,-4.4329,-4.4939,-4.4744,-4.5009,-4.6263,-4.6281,-4.7291,-4.9724,-4.9845,-5.0211,-5.123,-5.2166,-5.1852,-5.0028,-5.0498,-5.0917,-5.1178,-5.2067,-5.3008,-5.4027,-5.4759,-5.5099,-5.5099,-5.5099,-5.5099,-5.5099,-5.5099,-5.5099,-5.5099,-5.5099,-5.5099,-5.5099,-5.5099,-5.5099,-5.5099,-5.5099,-5.5099,-5.5099,-3.5002,-3.5145,-3.5287,-3.5287,-3.5446,-3.5573,-3.5573,-3.5573,-3.5573,-3.5573,-3.5573,-3.5573,-3.5573,-3.5573,-3.5573,-3.5573,-3.5573,-3.5573,-3.5573,-3.5573,-3.5573,-3.5573,-3.5415,-3.5399,-3.5573,-3.5415,-3.5319,-3.5287,-3.6649,-3.7045,-3.6828,-3.8979,-4.0528,-4.1428,-4.2523,-4.3786,-4.4963,-4.471,-4.4954,-4.5704,-4.5555,-4.5704,-4.6002,-4.5853,-4.5853,-4.6002,-4.6002,-4.6002,-4.6002,-4.6002,-4.6002,-4.6002,-4.6002,-4.6002,-4.6002,-4.6002,-4.6002,-4.6002,-4.6002,-4.6002,-4.6002,-4.6002,-4.5653,-4.5325,-4.5325,-4.4735,-4.4124,-4.3905,-4.3665,-4.3425,-4.3228,-4.3636,-4.3758,-4.3466,-4.353,-4.3863,-4.4103,-4.3763,-4.3711,-4.4338,-4.4147,-4.435,-4.511,-4.5743,-4.697,-4.8922,-4.9637,-5.0394,-5.1256,-5.157,-5.1439,-5.0812,-5.1021,-5.1439,-5.2014,-5.2851,-5.3739,-5.4628,-5.4942,-5.5099,-5.5099,-5.5099,-5.5099,-5.5099,-5.5099,-5.5099,-5.5099,-5.5099,-5.5099,-5.5099,-5.5099,-5.5099,-5.5099,-5.5099,-5.5099,-5.5099,-3.5573,-3.5573,-3.5573,-3.5573,-3.5573,-3.5573,-3.5573,-3.5573,-3.5573,-3.5573,-3.5573,-3.5573,-3.5573,-3.5573,-3.5573,-3.5573,-3.5573,-3.5573,-3.5573,-3.5573,-3.5573,-3.5573,-3.5287,-3.5256,-3.5573,-3.5272,-3.5272,-3.5573,-3.7119,-3.7119,-3.5573,-3.8118,-3.8933,-3.8432,-4.0014,-4.1371,-4.2544,-4.2465,-4.331,-4.4612,-4.4482,-4.4784,-4.5384,-4.5405,-4.5555,-4.5853,-4.5853,-4.5853,-4.5853,-4.5853,-4.6002,-4.6002,-4.6002,-4.6002,-4.6002,-4.6002,-4.6002,-4.6002,-4.6002,-4.6002,-4.6002,-4.6002,-4.5718,-4.5412,-4.5412,-4.5041,-4.4582,-4.4167,-4.4014,-4.384,-4.3359,-4.3272,-4.3359,-4.3578,-4.301,-4.3029,-4.4392,-4.3553,-4.3326,-4.436,-4.4111,-4.3955,-4.4206,-4.5229,-4.6093,-4.624,-4.7937,-4.9153,-4.9741,-5.0461,-5.0799,-5.1047,-5.1492,-5.2067,-5.2746,-5.3713,-5.4497,-5.5099,-5.5099,-5.5099,-5.5099,-5.5099,-5.5046,-5.4968,-5.5072,-5.5046,-5.4968,-5.5072,-5.5099,-5.5099,-5.5099,-5.5099,-5.5099,-5.5099,-5.5099,-5.5099,-3.5573,-3.5573,-3.5573,-3.5573,-3.5573,-3.5573,-3.5573,-3.5573,-3.5573,-3.5573,-3.5573,-3.5573,-3.5573,-3.5573,-3.5573,-3.5573,-3.5573,-3.5573,-3.5573,-3.5573,-3.5573,-3.5573,-3.5526,-3.5526,-3.5573,-3.5526,-3.5526,-3.5573,-3.5922,-3.5922,-3.5573,-3.6757,-3.7895,-3.8798,-3.9492,-4.0398,-4.1208,-4.0865,-4.0621,-4.086,-4.2136,-4.2769,-4.3075,-4.4331,-4.4955,-4.4955,-4.4955,-4.5256,-4.5555,-4.5555,-4.5704,-4.6002,-4.6002,-4.6002,-4.6002,-4.6002,-4.6002,-4.6002,-4.6002,-4.6002,-4.6002,-4.6002,-4.5959,-4.5893,-4.5893,-4.5544,-4.5194,-4.5107,-4.4757,-4.432,-4.384,-4.3752,-4.4146,-4.5369,-4.4146,-4.3762,-4.5508,-4.4211,-4.3228,-4.3365,-4.3436,-4.378,-4.493,-4.5332,-4.5865,-4.7051,-4.7515,-4.8263,-4.9494,-5.0203,-5.1049,-5.2223,-5.2328,-5.2877,-5.3922,-5.4105,-5.4497,-5.5099,-5.5099,-5.5099,-5.5099,-5.5099,-5.4811,-5.4367,-5.4889,-5.4811,-5.4393,-5.4889,-5.5099,-5.5099,-5.5099,-5.5099,-5.5099,-5.5099,-5.5099,-5.5099,-3.5573,-3.5573,-3.5573,-3.5573,-3.5573,-3.5573,-3.5573,-3.5573,-3.5573,-3.5573,-3.5573,-3.5573,-3.5573,-3.5573,-3.5573,-3.5573,-3.5573,-3.5573,-3.5573,-3.5573,-3.5573,-3.5573,-3.5573,-3.5573,-3.5573,-3.5573,-3.5573,-3.5573,-3.5573,-3.5573,-3.5573,-3.608,-3.6584,-3.7069,-3.7417,-3.813,-3.9228,-3.8883,-3.9232,-4.0114,-4.0382,-4.0917,-4.1348,-4.2697,-4.3248,-4.3553,-4.4482,-4.4955,-4.5106,-4.5106,-4.5256,-4.5405,-4.5405,-4.5555,-4.5704,-4.5704,-4.5853,-4.6002,-4.6002,-4.6002,-4.6002,-4.6002,-4.6002,-4.6002,-4.6002,-4.5828,-4.5609,-4.5369,-4.515,-4.4823,-4.4342,-4.4255,-4.4386,-4.4779,-4.4124,-4.3774,-4.4386,-4.3731,-4.3184,-4.3184,-4.3184,-4.3441,-4.409,-4.4892,-4.5549,-4.6224,-4.7265,-4.8076,-4.8739,-4.9254,-5.024,-5.1714,-5.2829,-5.3661,-5.4184,-5.4524,-5.4811,-5.5099,-5.5099,-5.5099,-5.5099,-5.4759,-5.4471,-5.421,-5.4497,-5.4471,-5.4262,-5.4863,-5.5099,-5.5099,-5.5099,-5.5099,-5.5099,-5.5099,-5.5099,-5.5099,-3.5573,-3.5573,-3.5573,-3.5573,-3.5573,-3.5573,-3.5573,-3.5573,-3.5573,-3.5573,-3.5573,-3.5573,-3.5573,-3.5573,-3.5573,-3.5573,-3.5573,-3.5573,-3.5573,-3.5573,-3.5573,-3.5573,-3.5573,-3.5573,-3.5573,-3.5573,-3.5573,-3.5573,-3.5573,-3.5573,-3.5573,-3.5573,-3.5573,-3.5573,-3.5573,-3.6059,-3.7047,-3.7047,-3.76,-3.8779,-3.8635,-3.8813,-3.9541,-4.0586,-4.1288,-4.1812,-4.3442,-4.4029,-4.418,-4.4504,-4.4654,-4.4805,-4.4805,-4.4955,-4.5256,-4.5256,-4.5555,-4.5853,-4.6002,-4.6002,-4.6002,-4.6002,-4.6002,-4.6002,-4.6002,-4.6002,-4.5893,-4.5544,-4.5478,-4.5325,-4.4845,-4.4757,-4.4757,-4.4713,-4.432,-4.4058,-4.4167,-4.3796,-4.3512,-4.3512,-4.3512,-4.3512,-4.3512,-4.4564,-4.5095,-4.5095,-4.6517,-4.7412,-4.7821,-4.832,-4.9342,-5.0986,-5.3079,-5.4262,-5.4419,-5.4863,-5.5099,-5.5099,-5.5099,-5.5099,-5.5072,-5.4471,-5.4131,-5.4027,-5.4158,-5.4131,-5.4079,-5.4811,-5.5099,-5.5099,-5.5099,-5.5099,-5.5099,-5.5099,-5.5099,-5.5099,-3.5573,-3.5573,-3.5573,-3.5573,-3.5573,-3.5573,-3.5573,-3.5573,-3.5573,-3.5573,-3.5573,-3.5573,-3.5573,-3.5573,-3.5573,-3.5573,-3.5573,-3.5573,-3.5573,-3.5573,-3.5573,-3.5573,-3.5573,-3.5573,-3.5573,-3.5573,-3.5573,-3.5573,-3.5573,-3.5573,-3.5573,-3.5573,-3.5573,-3.5573,-3.5573,-3.5367,-3.5205,-3.5205,-3.4991,-3.4532,-3.6102,-3.6723,-3.6997,-3.8218,-3.8945,-3.9541,-4.0918,-4.1559,-4.2176,-4.3725,-4.4504,-4.4805,-4.4805,-4.4805,-4.4805,-4.4805,-4.5106,-4.5555,-4.5853,-4.6002,-4.6002,-4.6002,-4.6002,-4.6002,-4.6002,-4.6002,-4.6002,-4.5959,-4.5959,-4.5806,-4.5347,-4.526,-4.5696,-4.7007,-4.5718,-4.515,-4.692,-4.5631,-4.4495,-4.4495,-4.4495,-4.4495,-4.4495,-4.4617,-4.4617,-4.4617,-4.4782,-4.5355,-4.6747,-4.7371,-4.8544,-5.0572,-5.2928,-5.4471,-5.502,-5.5072,-5.5099,-5.5099,-5.5099,-5.5099,-5.5072,-5.4471,-5.3922,-5.3478,-5.3975,-5.3922,-5.353,-5.4654,-5.5099,-5.5099,-5.5099,-5.5099,-5.5099,-5.5099,-5.5099,-5.5099,-3.5225,-3.4859,-3.4494,-3.5399,-3.5573,-3.5573,-3.5573,-3.5573,-3.5573,-3.5573,-3.5573,-3.5573,-3.5573,-3.5573,-3.5573,-3.5573,-3.5573,-3.5573,-3.5573,-3.5573,-3.5573,-3.5573,-3.5573,-3.5573,-3.5573,-3.5573,-3.5573,-3.5573,-3.5573,-3.5573,-3.5573,-3.5573,-3.5573,-3.5573,-3.5573,-3.5494,-3.5367,-3.5367,-3.5224,-3.497,-3.5395,-3.5488,-3.5409,-3.6817,-3.7256,-3.7311,-3.8919,-4.0296,-4.1404,-4.2042,-4.3116,-4.4071,-4.4071,-4.4201,-4.4504,-4.4654,-4.4955,-4.5106,-4.5256,-4.5555,-4.6002,-4.6002,-4.6002,-4.6002,-4.6002,-4.6002,-4.6002,-4.6002,-4.6002,-4.5959,-4.5784,-4.574,-4.5828,-4.609,-4.5522,-4.5194,-4.5631,-4.5063,-4.4582,-4.4582,-4.4582,-4.4582,-4.4582,-4.4582,-4.4582,-4.4582,-4.4866,-4.5332,-4.5745,-4.7182,-4.839,-4.9151,-5.092,-5.2466,-5.3649,-5.4671,-5.5099,-5.5099,-5.5099,-5.5099,-5.5072,-5.4131,-5.3583,-5.34,-5.3609,-5.3583,-5.3478,-5.4628,-5.5099,-5.5099,-5.5099,-5.5099,-5.5099,-5.5099,-5.5099,-5.5099,-3.3792,-3.3777,-3.3777,-3.4684,-3.5225,-3.5573,-3.5573,-3.5573,-3.5573,-3.5573,-3.5573,-3.5573,-3.5573,-3.5573,-3.5573,-3.5573,-3.5573,-3.5573,-3.5573,-3.5573,-3.5573,-3.5573,-3.5573,-3.5573,-3.5573,-3.5573,-3.5573,-3.5573,-3.5573,-3.5573,-3.5573,-3.5573,-3.5573,-3.5573,-3.5573,-3.5573,-3.5573,-3.5573,-3.551,-3.5383,-3.5129,-3.4827,-3.463,-3.5427,-3.5606,-3.5534,-3.7152,-3.8548,-3.9669,-4.0783,-4.1888,-4.2984,-4.3442,-4.3767,-4.405,-4.4504,-4.4654,-4.4654,-4.4805,-4.5256,-4.5704,-4.5853,-4.5853,-4.6002,-4.6002,-4.6002,-4.6002,-4.6002,-4.6002,-4.6002,-4.6002,-4.6002,-4.5893,-4.5587,-4.5522,-4.5412,-4.5085,-4.5041,-4.5041,-4.5041,-4.5041,-4.5041,-4.5041,-4.5041,-4.5041,-4.5041,-4.5347,-4.5522,-4.5522,-4.6837,-4.758,-4.758,-4.9008,-5.0197,-5.0986,-5.3275,-5.4299,-5.4118,-5.4545,-5.4733,-5.4524,-5.3556,-5.3112,-5.3138,-5.3321,-5.34,-5.3478,-5.4628,-5.5099,-5.5099,-5.5099,-5.5099,-5.5099,-5.5099,-5.5099,-5.5099,-3.1287,-3.2351,-3.3425,-3.3425,-3.4684,-3.5573,-3.5573,-3.5573,-3.5573,-3.5573,-3.5573,-3.5573,-3.5573,-3.5573,-3.5573,-3.5573,-3.5573,-3.5573,-3.5573,-3.5573,-3.5573,-3.5573,-3.5573,-3.5573,-3.5573,-3.5573,-3.5573,-3.5573,-3.5573,-3.5573,-3.5573,-3.5573,-3.5573,-3.5573,-3.5573,-3.5573,-3.5573,-3.5573,-3.5367,-3.5033,-3.5033,-3.4827,-3.4461,-3.4144,-3.4016,-3.4119,-3.55,-3.5994,-3.6477,-3.9983,-4.1113,-4.1424,-4.3136,-4.3615,-4.3615,-4.405,-4.4201,-4.4201,-4.4654,-4.4805,-4.4955,-4.5256,-4.5704,-4.6002,-4.6002,-4.6002,-4.6002,-4.6002,-4.6002,-4.6002,-4.6002,-4.6002,-4.6002,-4.6002,-4.6002,-4.6002,-4.6002,-4.6002,-4.6002,-4.6002,-4.6002,-4.6002,-4.6002,-4.6002,-4.6002,-4.6002,-4.6002,-4.6002,-4.6002,-4.6002,-4.6002,-4.6002,-4.7434,-4.7912,-4.6955,-5.0822,-5.2528,-5.2,-5.3498,-5.3922,-5.3373,-5.2772,-5.2485,-5.2537,-5.3138,-5.34,-5.3478,-5.4628,-5.5099,-5.5099,-5.5099,-5.5099,-5.5099,-5.5099,-5.5099,-5.5099,-2.9847,-3.1095,-3.2174,-3.3249,-3.4684,-3.5573,-3.5573,-3.5573,-3.5573,-3.5573,-3.5573,-3.5573,-3.5573,-3.5573,-3.5573,-3.5573,-3.5573,-3.5573,-3.5573,-3.5573,-3.5573,-3.5573,-3.5573,-3.5573,-3.5573,-3.5573,-3.5573,-3.5573,-3.5573,-3.5573,-3.5573,-3.5573,-3.5573,-3.5573,-3.5573,-3.5573,-3.5573,-3.5573,-3.551,-3.5415,-3.5415,-3.5049,-3.4493,-3.4398,-3.4064,-3.3619,-3.4147,-3.5059,-3.6316,-3.8548,-4.0139,-4.1424,-4.3136,-4.3615,-4.3615,-4.3767,-4.3767,-4.3767,-4.3919,-4.4201,-4.4504,-4.4805,-4.5256,-4.5555,-4.5256,-4.5555,-4.5853,-4.5256,-4.5405,-4.5555,-4.5555,-4.5555,-4.5704,-4.6002,-4.6002,-4.6002,-4.6002,-4.6002,-4.6002,-4.6002,-4.6002,-4.6002,-4.6002,-4.6002,-4.5853,-4.5555,-4.5256,-4.5106,-4.5106,-4.5106,-4.5106,-4.5106,-4.5209,-4.5244,-4.4945,-4.8756,-5.0263,-4.9567,-5.1239,-5.1987,-5.1834,-5.2336,-5.2485,-5.2537,-5.3138,-5.34,-5.3478,-5.4628,-5.5099,-5.5099,-5.5099,-5.5099,-5.5099,-5.5099,-5.5099,-5.5099,-2.7148,-2.913,-3.0753,-3.1642,-3.3616,-3.505,-3.505,-3.5225,-3.5399,-3.5399,-3.5399,-3.5573,-3.5573,-3.5573,-3.5573,-3.5573,-3.5573,-3.5573,-3.5573,-3.5573,-3.5573,-3.5573,-3.5573,-3.5573,-3.5573,-3.5573,-3.5573,-3.5573,-3.5573,-3.5573,-3.5573,-3.5573,-3.5573,-3.5573,-3.5573,-3.5573,-3.5573,-3.5573,-3.5573,-3.5573,-3.5573,-3.5145,-3.4509,-3.4509,-3.408,-3.3492,-3.3492,-3.4115,-3.5221,-3.6957,-3.9179,-4.1268,-4.235,-4.3136,-4.3615,-4.3615,-4.3615,-4.3615,-4.3615,-4.3767,-4.405,-4.4201,-4.4805,-4.5256,-4.4955,-4.5256,-4.5555,-4.4955,-4.4955,-4.5106,-4.5106,-4.5106,-4.5256,-4.5555,-4.5555,-4.5555,-4.5555,-4.5555,-4.5555,-4.5555,-4.5555,-4.5555,-4.5555,-4.5555,-4.5405,-4.5106,-4.4955,-4.4805,-4.4805,-4.4805,-4.4805,-4.4805,-4.4337,-4.4018,-4.3679,-4.5886,-4.7144,-4.7258,-4.9034,-4.9742,-4.9677,-5.0298,-5.0818,-5.1382,-5.2207,-5.2828,-5.3478,-5.4628,-5.5099,-5.5099,-5.5099,-5.5099,-5.5099,-5.5099,-5.5099,-5.5099,-2.3903,-2.6616,-2.8771,-2.8771,-3.1465,-3.3807,-3.3983,-3.4334,-3.47,-3.4875,-3.5225,-3.5573,-3.5573,-3.5573,-3.5573,-3.5573,-3.5573,-3.5573,-3.5573,-3.5573,-3.5573,-3.5573,-3.5573,-3.5573,-3.5573,-3.5573,-3.5573,-3.5573,-3.5573,-3.5573,-3.5573,-3.5573,-3.5573,-3.5573,-3.5573,-3.5573,-3.5573,-3.5573,-3.5573,-3.5573,-3.5573,-3.5145,-3.4509,-3.4509,-3.408,-3.3492,-3.3492,-3.3492,-3.3804,-3.5366,-3.8231,-4.0938,-4.0938,-4.1888,-4.3136,-4.3136,-4.3289,-4.3462,-4.3462,-4.3462,-4.3615,-4.3615,-4.4504,-4.5256,-4.4805,-4.4955,-4.5256,-4.4805,-4.4654,-4.4805,-4.4805,-4.4805,-4.4805,-4.4805,-4.4805,-4.4805,-4.4805,-4.4805,-4.4805,-4.4805,-4.4805,-4.4805,-4.4805,-4.4805,-4.4805,-4.4805,-4.4654,-4.4654,-4.4654,-4.4654,-4.4633,-4.4591,-4.4145,-4.3531,-4.2774,-4.2602,-4.3349,-4.5134,-4.6607,-4.7322,-4.7136,-4.7269,-4.806,-4.9307,-5.0463,-5.1809,-5.3218,-5.4417,-5.4913,-5.5099,-5.5099,-5.5099,-5.5099,-5.5099,-5.5099,-5.5099,-2.2984,-2.4967,-2.6773,-2.6773,-2.8385,-3.0177,-3.1628,-3.1983,-3.2705,-3.4684,-3.505,-3.5225,-3.5573,-3.5573,-3.5573,-3.5573,-3.5573,-3.5573,-3.5573,-3.5573,-3.5573,-3.5573,-3.5573,-3.5573,-3.5573,-3.5573,-3.5573,-3.5573,-3.5573,-3.5573,-3.5573,-3.5573,-3.5573,-3.5573,-3.5573,-3.5573,-3.5573,-3.5573,-3.5573,-3.5573,-3.5573,-3.5145,-3.4509,-3.4509,-3.408,-3.3492,-3.3492,-3.3492,-3.3804,-3.5366,-3.7436,-3.9022,-3.9022,-3.9336,-3.9651,-3.9651,-4.0608,-4.1578,-4.1578,-4.2677,-4.3615,-4.3615,-4.405,-4.4352,-4.3919,-4.4352,-4.4654,-4.4071,-4.405,-4.4352,-4.4352,-4.4352,-4.4504,-4.4805,-4.4805,-4.4805,-4.4805,-4.4805,-4.4805,-4.4805,-4.4805,-4.4805,-4.4805,-4.4504,-4.4352,-4.4352,-4.4071,-4.3919,-4.3919,-4.3919,-4.3752,-4.3377,-4.2918,-4.2481,-4.1856,-4.1543,-4.1599,-4.2308,-4.4063,-4.48,-4.4823,-4.6288,-4.7088,-4.7377,-4.8476,-4.984,-5.138,-5.2329,-5.3561,-5.4645,-5.4965,-5.5099,-5.5099,-5.5099,-5.5099,-5.5099,-2.1889,-2.3698,-2.515,-2.515,-2.6592,-2.8038,-2.9117,-2.9462,-3.0369,-3.2528,-3.3058,-3.3601,-3.4875,-3.505,-3.5399,-3.5573,-3.5573,-3.5573,-3.5573,-3.5573,-3.5573,-3.5573,-3.5573,-3.5573,-3.5573,-3.5573,-3.5573,-3.5573,-3.5573,-3.5573,-3.5573,-3.5573,-3.5573,-3.5573,-3.5573,-3.5573,-3.5573,-3.5573,-3.5573,-3.5558,-3.5383,-3.4986,-3.4509,-3.4509,-3.408,-3.3508,-3.3667,-3.3635,-3.364,-3.4588,-3.585,-3.7259,-3.7259,-3.7896,-3.853,-3.853,-3.9328,-4.0091,-3.9883,-4.123,-4.2611,-4.241,-4.3136,-4.3919,-4.3615,-4.405,-4.4352,-4.3767,-4.3767,-4.3919,-4.3919,-4.3919,-4.3898,-4.4201,-4.4201,-4.4201,-4.4201,-4.4201,-4.4201,-4.4201,-4.4201,-4.4201,-4.4201,-4.4071,-4.3919,-4.3919,-4.3767,-4.3615,-4.3615,-4.3615,-4.3387,-4.2932,-4.2497,-4.2042,-4.1565,-4.111,-4.1025,-4.1167,-4.2278,-4.2958,-4.3075,-4.4001,-4.4823,-4.5503,-4.6308,-4.7643,-4.9398,-5.0913,-5.2166,-5.324,-5.4376,-5.4805,-5.4805,-5.5099,-5.5099,-5.5099,-2.1168,-2.2432,-2.3515,-2.3515,-2.4978,-2.6071,-2.6423,-2.6773,-2.7858,-2.9833,-3.0369,-3.1437,-3.344,-3.4334,-3.4875,-3.5399,-3.5399,-3.5399,-3.5399,-3.5399,-3.5399,-3.5399,-3.5573,-3.5573,-3.5573,-3.5573,-3.5573,-3.5573,-3.5573,-3.5573,-3.5573,-3.5573,-3.5573,-3.5573,-3.5573,-3.5573,-3.5573,-3.5573,-3.5573,-3.5542,-3.5176,-3.4859,-3.4588,-3.4525,-3.4112,-3.3619,-3.3969,-3.3873,-3.3572,-3.3508,-3.4425,-3.5527,-3.5527,-3.6529,-3.7703,-3.7703,-3.815,-3.8707,-3.8362,-3.9748,-4.1148,-4.1133,-4.2256,-4.3289,-4.3462,-4.3919,-4.405,-4.3615,-4.3615,-4.3615,-4.3615,-4.3615,-4.3615,-4.3615,-4.3615,-4.3615,-4.3615,-4.3615,-4.3615,-4.3615,-4.3615,-4.3615,-4.3615,-4.3615,-4.3615,-4.3615,-4.3615,-4.3615,-4.3615,-4.3615,-4.3366,-4.2828,-4.2456,-4.2,-4.1462,-4.1069,-4.0882,-4.0882,-4.1188,-4.1594,-4.1877,-4.1877,-4.2538,-4.3653,-4.4308,-4.5617,-4.7423,-4.9259,-5.0531,-5.1394,-5.3215,-5.4081,-5.4216,-5.4805,-5.5099,-5.5099,-2.1168,-2.1353,-2.1529,-2.1529,-2.1898,-2.2626,-2.4247,-2.4602,-2.5514,-2.7858,-2.8218,-2.9104,-3.1437,-3.3264,-3.4349,-3.4349,-3.4349,-3.4349,-3.4349,-3.47,-3.505,-3.505,-3.5399,-3.5573,-3.5573,-3.5573,-3.5573,-3.5573,-3.5573,-3.5573,-3.5573,-3.5573,-3.5573,-3.5573,-3.5573,-3.5573,-3.5573,-3.5573,-3.5573,-3.5542,-3.5176,-3.5002,-3.4922,-3.462,-3.4271,-3.3985,-3.4318,-3.4223,-3.3889,-3.3587,-3.364,-3.3804,-3.3804,-3.4177,-3.4585,-3.4585,-3.5974,-3.7387,-3.7335,-3.8418,-3.9794,-4.1168,-4.1523,-4.1888,-4.331,-4.3615,-4.3615,-4.3615,-4.3615,-4.3615,-4.3615,-4.3615,-4.3615,-4.3615,-4.3615,-4.3615,-4.3615,-4.3615,-4.3615,-4.3615,-4.3615,-4.3615,-4.3615,-4.3615,-4.3615,-4.3615,-4.3615,-4.3615,-4.3615,-4.3615,-4.3221,-4.2373,-4.229,-4.1835,-4.0986,-4.0903,-4.0882,-4.0882,-4.1025,-4.1025,-4.1025,-4.1473,-4.1615,-4.1877,-4.2202,-4.3545,-4.5497,-4.611,-4.7532,-4.9391,-5.1394,-5.2228,-5.2754,-5.4511,-5.5099,-5.502,-2.1168,-2.1168,-2.1168,-2.1168,-2.1168,-2.1538,-2.2442,-2.2432,-2.3158,-2.5332,-2.5684,-2.6592,-2.8578,-2.9833,-3.1095,-3.2528,-3.2528,-3.3073,-3.4174,-3.4349,-3.4525,-3.4525,-3.47,-3.4875,-3.4875,-3.4875,-3.4875,-3.5225,-3.5399,-3.5573,-3.5573,-3.5573,-3.5573,-3.5573,-3.5573,-3.5573,-3.5573,-3.5573,-3.5573,-3.5542,-3.5176,-3.5033,-3.4986,-3.4636,-3.4302,-3.4001,-3.3953,-3.408,-3.4207,-3.3667,-3.373,-3.4016,-3.3842,-3.4016,-3.4287,-3.4287,-3.5032,-3.5919,-3.5721,-3.6843,-3.8265,-3.8617,-4.0122,-4.1543,-4.2102,-4.2984,-4.3615,-4.3615,-4.3615,-4.3615,-4.3615,-4.3615,-4.3615,-4.3615,-4.3615,-4.3615,-4.3615,-4.3615,-4.3615,-4.3615,-4.3615,-4.3615,-4.3615,-4.3615,-4.3615,-4.3615,-4.3615,-4.3615,-4.3615,-4.3366,-4.2932,-4.2269,-4.2,-4.1545,-4.0882,-4.0882,-4.0882,-4.0882,-4.0882,-4.0882,-4.0882,-4.1025,-4.1167,-4.1167,-4.131,-4.2242,-4.3671,-4.4639,-4.5911,-4.7366,-4.9391,-5.078,-5.1893,-5.292,-5.3731,-5.4105]}]]